[[{"header":{"parameterUnit":"m.s-1","parameterCategory":1,"la1":30.6,"la2":29.2853,"lo1":-89.7004,"lo2":-87.6739,"dy":0.0162,"dx":0.0183,"nx":112,"ny":82,"refTime":"2024-06-16T06:00:00:Z","depth":0,"parameterNumber":2,"parameterNumberName":"U-component_of_WINDS"},"data":[0.0,0.0,0.0,0.0,0.0,0.0,0.0,0.0,0.0,0.0,0.0,0.0,0.0,0.0,0.0,0.0,0.0,0.0,0.0,0.0,0.0,0.0,0.0,0.0,0.0,0.0,0.0,0.0,0.0,0.0,0.0,0.0,0.0,0.0,0.0,0.0,0.0,0.0,0.0,0.0,0.0,0.0,0.0,0.0,0.0,0.0,0.0,0.0,0.0,0.0,0.0,0.0,0.0,0.0,0.0,0.0,0.0,0.0,0.0,0.0,0.0,0.0,0.0,0.0,0.0,0.0,0.0,0.0,0.0,0.0,0.0,0.0,0.0,0.0,0.0,0.0,0.0,0.0,0.0,0.0,0.0,0.0,0.0,0.0,0.0,0.0,0.0,0.0,0.0,0.0,0.0,1.6562,1.8702,1.9942,1.9824,1.9025,1.7776,1.6105,0.0,0.0,0.0,0.0,0.0,0.0,0.0,0.0,0.0,0.0,0.0,0.0,0.0,0.0,0.0,0.0,0.0,0.0,0.0,0.0,0.0,0.0,0.0,0.0,0.0,0.0,0.0,0.0,0.0,0.0,0.0,0.0,0.0,0.0,0.0,0.0,0.0,0.0,0.0,0.0,0.0,0.0,0.0,0.0,0.0,0.0,0.0,0.0,0.0,0.0,0.0,0.0,0.0,0.0,0.0,0.0,0.0,0.0,0.0,0.0,0.0,0.0,0.0,0.0,0.0,0.0,0.0,0.0,0.0,0.0,0.0,0.0,0.0,0.0,0.0,0.0,0.0,0.0,0.0,0.0,0.0,0.0,0.0,0.0,0.0,0.0,0.0,0.0,0.0,0.0,0.0,0.0,0.0,0.0,0.0,0.0,0.0,0.0,0.0,0.0,0.0,0.0,0.0,0.0,1.4834,1.7812,1.9536,2.0195,1.9434,1.8594,1.7347,1.5625,0.0,0.0,0.0,0.0,0.0,0.0,0.0,0.0,0.0,0.0,0.0,0.0,0.0,0.0,0.0,0.0,0.0,0.0,0.0,0.0,0.0,0.0,0.0,0.0,0.0,0.0,0.0,0.0,0.0,0.0,0.0,0.0,0.0,0.0,0.0,0.0,0.0,0.0,0.0,0.0,0.0,0.0,0.0,0.0,0.0,0.0,0.0,0.0,0.0,0.0,0.0,0.0,0.0,0.0,0.0,0.0,0.0,0.0,0.0,0.0,0.0,0.0,0.0,0.0,0.0,0.0,0.0,0.0,0.0,0.0,0.0,0.0,0.0,0.0,0.0,0.0,0.0,0.0,0.0,0.0,0.0,0.0,0.0,0.0,0.0,0.0,0.0,0.0,0.0,0.0,0.0,0.0,0.0,0.0,0.0,0.0,0.0,0.0,0.0,0.0,0.0,0.0,0.0,1.4594,1.6292,1.8326,1.9696,2.0216,1.9687,1.883,1.7601,1.5894,1.4336,0.0,0.0,0.0,0.0,0.0,0.0,0.0,0.0,0.0,0.0,0.0,0.0,0.0,0.0,0.0,0.0,0.0,0.0,0.0,0.0,0.0,0.0,0.0,0.0,0.0,0.0,0.0,0.0,0.0,0.0,0.0,0.0,0.0,0.0,0.0,0.0,0.0,0.0,0.0,0.0,0.0,0.0,0.0,0.0,0.0,0.0,0.0,0.0,0.0,0.0,0.0,0.0,0.0,0.0,0.0,0.0,0.0,0.0,0.0,0.0,0.0,0.0,0.0,0.0,0.0,0.0,0.0,0.0,0.0,0.0,0.0,0.0,0.0,0.0,0.0,0.0,0.0,0.0,0.0,0.0,0.0,0.0,0.0,0.0,0.0,0.0,0.0,0.0,0.0,0.0,0.0,0.0,0.0,0.0,0.0,0.0,0.0,0.0,0.0,0.0,0.0,0.0,1.5932,1.7413,1.845,1.9602,2.012,1.9711,1.8931,1.7737,1.6031,1.431,0.0,0.0,0.0,0.0,0.0,0.0,0.0,0.0,0.0,0.0,0.0,0.0,0.0,0.0,0.0,0.0,0.0,0.0,0.0,0.0,0.0,0.0,0.0,0.0,0.0,0.0,0.0,0.0,0.0,0.0,0.0,0.0,0.0,0.0,0.0,0.0,0.0,0.0,0.0,0.0,0.0,0.0,0.0,0.0,0.0,0.0,0.0,0.0,0.0,0.0,0.0,0.0,0.0,0.0,0.0,0.0,0.0,0.0,0.0,0.0,0.0,0.0,0.0,0.0,0.0,0.0,0.0,0.0,0.0,0.0,0.0,0.0,0.0,0.0,0.0,0.0,0.0,0.0,0.0,0.0,0.0,0.0,0.0,0.0,0.0,0.0,0.0,0.0,0.0,0.0,0.0,0.0,0.0,0.0,0.0,0.0,0.0,0.0,0.0,0.0,0.0,0.0,1.5851,1.729,1.8064,1.943,1.9947,1.9138,1.8449,1.7288,1.5552,1.3867,0.0,0.0,0.0,0.0,0.0,0.0,0.0,0.0,0.0,0.0,0.0,0.0,0.0,0.0,0.0,0.0,0.0,0.0,0.0,0.0,0.0,0.0,0.0,0.0,0.0,0.0,0.0,0.0,0.0,0.0,0.0,0.0,0.0,0.0,0.0,0.0,0.0,0.0,0.0,0.0,0.0,0.0,0.0,0.0,0.0,0.0,0.0,0.0,0.0,0.0,0.0,0.0,0.0,0.0,0.0,0.0,0.0,0.0,0.0,0.0,0.0,0.0,0.0,0.0,0.0,0.0,0.0,0.0,0.0,0.0,0.0,0.0,0.0,0.0,0.0,0.0,0.0,0.0,0.0,0.0,0.0,0.0,0.0,0.0,0.0,0.0,0.0,0.0,0.0,0.0,0.0,0.0,0.0,0.0,0.0,0.0,0.0,0.0,0.0,0.0,0.0,0.0,1.5434,1.6813,0.0,1.9118,1.9485,1.9045,1.827,1.7119,1.5498,0.0,0.0,0.0,0.0,0.0,0.0,0.0,0.0,0.0,0.0,0.0,0.0,0.0,0.0,0.0,0.0,0.0,0.0,0.0,0.0,0.0,0.0,0.0,0.0,0.0,0.0,0.0,0.0,0.0,0.0,0.0,0.0,0.0,0.0,0.0,0.0,0.0,0.0,0.0,0.0,0.0,0.0,0.0,0.0,0.0,0.0,0.0,0.0,0.0,0.0,0.0,0.0,0.0,0.0,0.0,0.0,0.0,0.0,0.0,0.0,0.0,0.0,0.0,0.0,0.0,0.0,0.0,0.0,0.0,0.0,0.0,0.0,0.0,0.0,0.0,0.0,0.0,0.0,0.0,0.0,0.0,0.0,0.0,0.0,0.0,0.0,0.0,0.0,0.0,0.0,0.0,0.0,0.0,0.0,0.0,0.0,0.0,0.0,0.0,0.0,0.0,0.0,1.3807,1.5138,1.6482,0.0,1.8721,1.9058,1.8749,1.8094,1.7023,1.5439,0.0,0.0,0.0,0.0,0.0,0.0,0.0,0.0,0.0,0.0,0.0,0.0,0.0,0.0,0.0,0.0,0.0,0.0,0.0,0.0,0.0,0.0,0.0,0.0,0.0,0.0,0.0,0.0,0.0,0.0,0.0,0.0,0.0,0.0,0.0,0.0,0.0,0.0,0.0,0.0,0.0,0.0,0.0,0.0,0.0,0.0,0.0,0.0,0.0,0.0,0.0,0.0,0.0,0.0,0.0,0.0,0.0,0.0,0.0,0.0,0.0,0.0,0.0,0.0,0.0,0.0,0.0,0.0,0.0,0.0,0.0,0.0,0.0,0.0,0.0,0.0,0.0,0.0,0.0,0.0,0.0,0.0,0.0,0.0,0.0,0.0,0.0,0.0,0.0,0.0,0.0,0.0,0.0,0.0,0.0,0.0,0.0,0.0,0.0,0.0,0.0,0.0,1.3468,1.5066,1.6348,1.7027,1.8246,1.8765,1.8155,1.7847,1.6993,0.0,0.0,0.0,0.0,0.0,0.0,0.0,0.0,0.0,0.0,0.0,0.0,0.0,0.0,0.0,0.0,0.0,0.0,0.0,0.0,0.0,0.0,0.0,0.0,0.0,0.0,0.0,0.0,0.0,0.0,0.0,0.0,0.0,0.0,0.0,0.0,0.0,0.0,0.0,0.0,0.0,0.0,0.0,0.0,0.0,0.0,0.0,0.0,0.0,0.0,0.0,0.0,0.0,0.0,0.0,0.0,0.0,0.0,0.0,0.0,0.0,0.0,0.0,0.0,0.0,0.0,0.0,0.0,0.0,0.0,0.0,0.0,0.0,0.0,0.0,0.0,0.0,0.0,0.0,0.0,0.0,0.0,0.0,0.0,0.0,0.0,0.0,0.0,0.0,0.0,0.0,0.0,0.0,0.0,0.0,0.0,0.0,0.0,0.0,0.0,0.0,0.0,0.0,1.3817,1.4994,1.6091,1.7179,1.8063,1.8558,1.852,1.8152,1.7261,1.5723,0.0,0.0,0.0,0.0,0.0,0.0,0.0,0.0,0.0,0.0,0.0,0.0,0.0,0.0,0.0,0.0,0.0,0.0,0.0,0.0,0.0,0.0,0.0,0.0,0.0,0.0,0.0,0.0,0.0,0.0,0.0,0.0,0.0,0.0,0.0,0.0,0.0,0.0,0.0,0.0,0.0,0.0,0.0,0.0,0.0,0.0,0.0,0.0,0.0,0.0,0.0,0.0,0.0,0.0,0.0,0.0,0.0,0.0,0.0,0.0,0.0,0.0,0.0,0.0,0.0,0.0,0.0,0.0,0.0,0.0,0.0,0.0,0.0,0.0,0.0,0.0,0.0,0.0,0.0,0.0,0.0,0.0,0.0,0.0,0.0,0.0,0.0,0.0,0.0,0.0,0.0,0.0,0.0,0.0,0.0,0.0,0.0,0.0,0.0,0.0,0.0,0.0,1.3903,1.5003,1.6095,1.7232,1.8029,1.8524,1.8649,1.8175,1.7303,1.5927,0.0,0.0,0.0,0.0,0.0,0.0,0.0,0.0,0.0,0.0,0.0,0.0,0.0,0.0,0.0,0.0,0.0,0.0,0.0,0.0,0.0,0.0,0.0,0.0,0.0,0.0,0.0,0.0,0.0,0.0,0.0,0.0,0.0,0.0,0.0,0.0,0.0,0.0,0.0,0.0,0.0,0.0,0.0,0.0,0.0,0.0,0.0,0.0,0.0,0.0,0.0,0.0,0.0,0.0,0.0,0.0,0.0,0.0,0.0,0.0,0.0,0.0,0.0,0.0,0.0,0.0,0.0,0.0,0.0,0.0,0.0,0.0,0.0,0.0,0.0,0.0,0.0,0.0,0.0,0.0,0.0,0.0,0.0,0.0,0.0,0.0,0.0,0.0,0.0,0.0,0.0,0.0,0.0,0.0,0.0,0.0,0.0,0.0,0.0,0.0,0.0,0.0,1.381,1.5078,1.6265,1.7175,1.805,1.8597,1.8622,1.8132,1.7304,1.6093,0.0,0.0,0.0,0.0,0.0,0.0,0.0,0.0,0.0,0.0,0.0,0.0,0.0,0.0,0.0,0.0,0.0,0.0,0.0,0.0,0.0,0.0,0.0,0.0,0.0,0.0,0.0,0.0,0.0,0.0,0.0,0.0,0.0,0.0,0.0,0.0,0.0,0.0,0.0,0.0,0.0,0.0,0.0,0.0,0.0,0.0,0.0,0.0,0.0,0.0,0.0,0.0,0.0,0.0,0.0,0.0,0.0,0.0,0.0,0.0,1.4531,0.0,0.0,0.0,0.0,0.0,0.0,0.0,0.0,0.0,0.0,0.0,0.0,0.0,0.0,0.0,0.0,0.0,0.0,0.0,0.0,0.0,0.0,0.0,0.0,0.0,0.0,0.0,0.0,0.0,0.0,0.0,0.0,0.0,0.0,0.0,0.0,0.0,0.0,0.0,0.0,0.0,1.4028,1.5219,1.6242,1.6911,1.7856,1.8553,1.88,1.8859,1.8302,1.6932,1.5785,0.0,0.0,0.0,0.0,0.0,0.0,0.0,0.0,0.0,0.0,0.0,0.0,0.0,0.0,0.0,0.0,0.0,0.0,0.0,0.0,0.0,0.0,0.0,0.0,0.0,0.0,0.0,0.0,0.0,0.0,0.0,0.0,0.0,0.0,0.0,0.0,0.0,0.0,0.0,0.0,0.0,0.0,0.0,0.0,0.0,0.0,0.0,0.0,0.0,0.0,0.0,0.0,0.0,0.0,0.0,0.0,0.0,0.0,0.0,0.0,1.5498,0.0,0.0,0.0,0.0,0.0,0.0,0.0,0.0,0.0,0.0,0.0,0.0,0.0,0.0,0.0,0.0,0.0,0.0,0.0,0.0,0.0,0.0,0.0,0.0,0.0,0.0,0.0,0.0,0.0,0.0,0.0,0.0,0.0,0.0,0.0,0.0,0.0,0.0,0.0,0.0,1.4285,1.5423,1.6387,1.6981,1.7922,1.8655,1.9059,1.8974,1.856,1.777,1.6618,0.0,0.0,0.0,0.0,0.0,0.0,0.0,0.0,0.0,0.0,0.0,0.0,0.0,0.0,0.0,0.0,0.0,0.0,0.0,0.0,0.0,0.0,0.0,0.0,0.0,0.0,0.0,0.0,0.0,0.0,0.0,0.0,0.0,0.0,0.0,0.0,0.0,0.0,0.0,0.0,0.0,0.0,0.0,0.0,0.0,0.0,0.0,0.0,0.0,0.0,0.0,0.0,0.0,2.017,2.0249,2.0268,2.1056,2.1391,2.1194,1.9045,1.7835,1.7347,1.6852,0.0,0.0,0.0,0.0,0.0,0.0,0.0,0.0,0.0,0.0,0.0,0.0,0.0,0.0,0.0,0.0,0.0,0.0,0.0,0.0,0.0,0.0,0.0,0.0,1.5687,1.5459,1.4591,0.0,0.0,0.0,0.0,0.0,0.0,0.0,0.0,0.0,0.0,0.0,1.4539,1.5604,1.6491,1.707,1.7983,1.8681,1.9135,1.8955,1.8662,1.8404,1.7406,1.6223,0.0,0.0,0.0,0.0,0.0,0.0,0.0,0.0,0.0,0.0,0.0,0.0,0.0,0.0,0.0,0.0,0.0,0.0,0.0,0.0,0.0,0.0,0.0,0.0,0.0,0.0,0.0,0.0,0.0,0.0,0.0,0.0,1.3688,1.4231,0.0,0.0,0.0,0.0,0.0,0.0,0.0,0.0,0.0,0.0,0.0,0.0,0.0,2.0267,2.0291,2.1388,2.1993,2.2111,2.2873,2.3225,2.3266,2.3714,2.3733,2.3403,2.3051,0.0,2.0019,1.9217,0.0,0.0,0.0,0.0,0.0,0.0,0.0,0.0,0.0,0.0,0.0,0.0,0.0,0.0,0.0,0.0,0.0,0.0,0.0,0.0,0.0,0.0,1.6526,1.6343,1.6031,1.5748,0.0,1.4934,1.4196,1.3622,1.3024,0.0,0.0,0.0,0.0,0.0,0.0,0.0,1.4705,1.5562,1.6324,1.6888,1.7682,1.8317,1.8671,1.9216,1.9204,1.8371,1.8203,1.7442,1.5871,1.5424,0.0,0.0,0.0,0.0,0.0,0.0,0.0,0.0,0.0,0.0,0.0,0.0,0.0,0.0,0.0,0.0,0.0,0.0,0.0,0.0,0.0,0.0,0.0,0.0,0.0,0.0,0.0,0.0,0.0,1.3906,1.5302,1.5693,1.6142,1.6355,0.0,0.0,0.0,0.0,0.0,0.0,0.0,0.0,0.0,2.0918,2.1682,2.2427,2.3108,2.3675,2.4082,2.4313,2.4684,2.4859,2.4879,2.5332,2.543,2.5254,2.5254,2.473,2.3714,2.1855,2.0566,1.9766,0.0,0.0,0.0,0.0,1.9453,1.9864,2.0293,2.0372,2.0159,1.9753,0.0,0.0,0.0,0.0,0.0,0.0,0.0,0.0,0.0,0.0,1.7157,1.6951,1.6829,1.6705,1.6535,1.6196,1.5637,0.0,1.4018,1.3682,1.3567,0.0,0.0,0.0,0.0,1.4594,1.4986,1.5656,1.6251,1.669,1.7276,1.7894,1.8491,1.8864,1.9,1.8758,1.8498,1.7948,1.7063,1.6286,1.5393,0.0,0.0,0.0,0.0,0.0,0.0,0.0,0.0,0.0,0.0,0.0,0.0,0.0,0.0,0.0,0.0,0.0,0.0,0.0,0.0,0.0,0.0,0.0,0.0,0.0,0.0,0.0,0.0,1.5332,1.6609,1.7272,1.7676,1.7927,0.0,0.0,0.0,0.0,0.0,0.0,2.1192,2.1563,2.2326,2.3571,2.3942,2.459,2.5571,2.5806,2.6055,2.6362,2.6479,2.6537,2.6537,2.7012,2.7148,2.7031,2.7031,2.6973,2.668,2.4199,2.2793,2.2147,2.1622,2.1211,2.0937,2.129,2.1639,2.1963,2.2431,2.2416,2.2143,2.1659,2.0778,1.9793,1.9241,0.0,0.0,0.0,0.0,1.7367,1.7071,1.7246,1.743,1.7284,1.7257,1.7244,1.6984,1.6905,1.6564,0.0,1.4944,1.4754,1.4632,0.0,0.0,0.0,0.0,1.4993,1.529,1.5737,1.616,1.656,1.6965,1.7551,1.8326,1.8544,1.8734,1.8964,1.8678,1.8339,1.7936,1.7117,1.634,1.5612,0.0,0.0,0.0,0.0,0.0,0.0,0.0,0.0,0.0,0.0,0.0,0.0,0.0,0.0,0.0,0.0,0.0,0.0,0.0,0.0,0.0,0.0,0.0,0.0,0.0,0.0,0.0,0.0,0.0,1.8986,1.9198,0.0,0.0,0.0,0.0,2.0468,2.1932,2.2908,2.3049,2.4225,2.4906,2.4984,2.6172,2.683,2.6889,2.7734,2.8144,2.8164,2.8574,2.8723,2.8742,2.9246,2.9207,2.8762,2.8762,2.8574,2.8027,2.5864,2.4926,2.4809,2.3968,2.3613,2.3594,2.3636,2.3725,2.3921,2.432,2.4331,2.4037,2.3322,2.1762,2.0083,1.9607,1.9128,0.0,0.0,1.7803,1.7936,1.74,1.7208,1.7125,1.7125,1.6925,1.675,1.6712,1.6737,1.6497,0.0,1.5544,1.5371,1.479,0.0,1.4755,1.5034,1.5136,1.5295,1.5636,1.5772,1.6032,1.6541,1.6847,1.7331,1.8063,1.8535,1.8744,1.8616,1.8904,1.8831,1.8293,1.8049,1.7458,1.6468,1.5923,0.0,0.0,0.0,0.0,0.0,0.0,0.0,0.0,0.0,0.0,0.0,0.0,0.0,0.0,0.0,0.0,0.0,0.0,0.0,0.0,0.0,0.0,0.0,0.0,0.0,0.0,0.0,0.0,2.0545,2.0971,0.0,2.1912,2.2383,2.2775,2.3027,2.3867,2.4746,2.5586,2.6074,2.6699,2.7519,2.8008,2.8379,2.8652,2.8992,2.9149,2.9149,2.9064,2.903,2.905,2.898,2.8877,2.8696,2.8696,2.862,2.8429,2.7684,2.6962,2.6289,2.5977,2.5407,2.4798,2.5044,2.5068,2.499,2.5227,2.5157,2.4774,2.3677,2.2326,2.101,2.0443,1.9922,1.9333,1.8518,1.8437,1.8485,1.8097,1.8005,1.7996,1.7996,1.7943,1.7796,1.7582,1.7542,1.7354,1.6736,1.6323,1.6007,1.5942,1.5796,1.5769,1.6025,1.6091,1.6174,1.6327,1.6351,1.6516,1.6872,1.6984,1.7242,1.7862,1.8185,1.827,1.8039,1.8431,1.8503,1.8106,1.8082,1.7711,1.6969,1.6503,1.5785,0.0,0.0,0.0,0.0,0.0,0.0,0.0,0.0,0.0,0.0,0.0,0.0,0.0,0.0,0.0,0.0,0.0,0.0,0.0,0.0,0.0,0.0,0.0,0.0,0.0,0.0,2.0046,2.1497,2.225,2.2897,2.3435,2.404,2.4484,2.4755,2.545,2.6222,2.7091,2.7374,2.7914,2.8763,2.8945,2.9185,2.9503,2.963,2.9688,2.9688,2.946,2.9374,2.9365,2.9136,2.8993,2.8859,2.8859,2.8821,2.8734,2.8734,2.8229,2.7428,2.7353,2.6813,2.6072,2.6337,2.612,2.5669,2.5447,2.5138,2.4624,2.3538,2.2365,2.1326,2.0799,2.029,1.9685,1.8984,1.8804,1.8767,1.851,1.8467,1.849,1.849,1.849,1.8437,1.8209,1.8169,1.8022,1.7542,1.7006,1.6614,1.663,1.6478,1.6435,1.6614,1.6616,1.6635,1.6687,1.67,1.6814,1.7077,1.7036,1.7206,1.7736,1.7964,1.8064,1.7975,1.8169,1.8301,1.8277,1.8129,1.7924,1.7603,1.7146,1.6539,1.5766,0.0,0.0,0.0,0.0,0.0,0.0,0.0,0.0,0.0,0.0,0.0,0.0,0.0,0.0,0.0,0.0,0.0,0.0,0.0,0.0,0.0,0.0,0.0,1.7691,1.9061,2.045,2.188,2.2962,2.3805,2.4287,2.5062,2.5535,2.5579,2.6714,2.7433,2.7452,2.82,2.8625,2.8616,2.9069,2.9306,2.9277,2.9674,2.9863,2.9863,2.9863,2.9863,2.9863,2.9833,2.9638,2.9324,2.9324,2.9194,2.8945,2.8945,2.8667,2.8257,2.8052,2.7789,2.7484,2.7484,2.6871,2.593,2.5022,2.4329,2.3755,2.2966,2.194,2.0976,2.0676,2.0185,1.9623,1.9057,1.8919,1.8864,1.86,1.8517,1.8517,1.8517,1.8517,1.8517,1.8504,1.8504,1.841,1.8089,1.7595,1.7113,1.678,1.6727,1.6727,1.6727,1.6727,0.0,1.6727,1.6727,1.6841,1.7091,1.7064,1.721,1.7727,1.7955,1.8195,1.8435,1.8221,1.8295,1.8749,1.8273,1.8154,1.8412,1.7972,1.7411,1.6743,0.0,0.0,0.0,0.0,0.0,0.0,0.0,0.0,0.0,0.0,0.0,0.0,0.0,0.0,0.0,0.0,0.0,0.0,0.0,0.0,0.0,1.6176,1.7367,1.844,1.9809,2.1334,2.3027,2.3487,2.4103,2.5225,2.5773,2.6308,2.6839,2.7471,2.8114,2.8738,2.8984,2.9134,2.9183,2.9295,2.9282,2.9076,2.9187,2.9242,2.9242,2.9005,2.8868,2.8868,2.8648,2.8331,2.8032,2.8032,2.7852,2.7539,2.7539,2.7469,2.7419,2.801,2.7713,2.7003,2.7003,2.6243,2.516,2.4655,2.3927,2.3212,2.2997,2.2253,2.1336,2.0816,2.0412,1.9994,1.9444,1.9262,1.9233,1.9189,1.916,1.916,1.916,1.916,1.9093,1.8851,1.8783,1.8718,1.8424,1.8237,1.7983,1.7435,1.7341,1.7341,1.7341,1.7341,0.0,1.7341,1.7341,1.7367,1.7445,1.7395,1.7349,1.7315,1.765,1.7722,1.7294,1.7874,1.8181,1.8012,1.8377,1.8619,1.8676,1.866,1.8406,0.0,0.0,0.0,0.0,0.0,0.0,0.0,0.0,0.0,0.0,0.0,0.0,0.0,0.0,0.0,0.0,0.0,0.0,0.0,0.0,0.0,0.0,1.7274,1.8463,1.9541,2.056,2.1698,2.3022,2.3713,2.4442,2.5354,2.5972,2.6473,2.6921,2.7427,2.7961,2.8468,2.8652,2.8766,2.8808,2.8808,2.8659,2.8379,2.8379,2.8289,2.817,2.7942,2.7852,2.7852,2.7521,2.719,2.6918,2.6766,2.6523,2.6205,2.6205,2.6205,0.0,0.0,0.0,0.0,0.0,2.532,2.4482,2.4041,2.3306,2.2601,2.2468,2.1871,2.1152,2.0821,2.0481,2.0186,1.9832,1.9733,1.9733,1.9733,1.9639,1.9575,1.9575,1.9481,1.9348,1.9145,1.9105,1.9025,1.8731,1.8677,0.0,1.8077,1.7862,1.7769,1.7769,1.7662,1.7608,1.7608,1.7608,1.7608,1.7608,1.7536,1.7446,1.7268,1.7499,0.0,0.0,0.0,1.7766,1.7576,1.8257,0.0,0.0,0.0,0.0,0.0,0.0,0.0,0.0,1.8486,1.865,0.0,0.0,0.0,0.0,0.0,0.0,0.0,0.0,0.0,0.0,0.0,0.0,0.0,0.0,0.0,0.0,1.852,1.9772,2.0716,2.1286,2.1862,2.2562,2.3762,2.4686,2.5089,2.5778,2.6229,2.631,2.6917,2.7323,2.7329,0.0,0.0,0.0,0.0,2.7672,2.734,2.731,2.7129,2.6844,2.6813,2.6783,2.6783,2.6463,2.6189,2.5914,2.5578,2.5241,2.4919,2.4888,2.4857,2.5011,2.6236,2.6388,2.5762,2.4795,2.4239,2.3838,2.3214,0.0,0.0,2.171,2.1201,2.0746,2.0719,2.0493,2.025,2.021,2.0197,2.0197,2.0197,2.001,1.9853,1.9853,1.9653,1.9481,1.9455,1.9441,1.9361,1.9025,1.8943,1.8891,1.8637,1.8289,1.8063,1.8076,1.7822,1.7662,1.7662,1.7635,1.7608,1.7608,0.0,0.0,1.7463,1.7421,1.7392,1.7373,1.7293,1.7319,1.7464,1.8111,1.8595,1.8852,1.9336,1.9992,2.0867,2.0955,2.1264,2.178,2.1043,2.072,0.0,0.0,0.0,0.0,0.0,0.0,0.0,0.0,0.0,0.0,0.0,0.0,0.0,0.0,0.0,1.8564,1.9627,2.0566,2.1201,2.1866,2.264,2.3503,2.3867,2.4373,2.5246,2.5478,2.5797,2.6351,2.6506,2.6729,2.7056,2.7142,2.7086,2.6874,2.6874,2.6722,2.6371,2.6114,2.5947,2.5886,0.0,0.0,2.5472,2.541,2.5195,2.4888,2.4548,2.4193,2.3852,2.3604,2.3479,2.3573,2.4656,2.4826,2.4409,2.3666,2.3168,2.2825,2.244,2.202,2.1693,2.1607,2.1343,2.0989,2.0761,2.065,0.0,2.0264,2.0197,2.0197,2.0197,2.0157,2.0117,2.0117,2.0077,2.0,1.9773,1.972,1.9626,1.9361,1.9308,1.9294,1.9241,1.8758,1.8397,1.8397,1.8116,1.7929,1.7929,1.7729,1.7608,1.7608,1.7581,1.7486,1.7271,1.7379,1.7392,1.7169,1.7489,1.779,1.8046,1.8601,1.9009,1.9296,2.0206,2.0893,2.1291,2.1895,2.2279,2.2494,2.2125,2.213,0.0,0.0,0.0,0.0,0.0,0.0,0.0,0.0,0.0,0.0,0.0,1.6557,1.7238,0.0,1.8783,1.9541,2.0348,2.11,2.1666,2.2214,2.2757,2.3376,2.3752,2.4207,2.4886,2.5247,2.5577,2.5939,2.6137,2.6339,2.6554,2.6388,2.6236,2.6083,2.5931,2.5686,2.5333,2.5165,2.5011,2.4857,2.4518,2.4363,2.4332,2.4007,2.3759,2.3573,2.323,2.3012,2.2825,2.2668,2.2606,2.2637,2.3137,2.3355,2.3322,2.2981,2.2627,2.237,2.2332,2.2084,2.1781,2.1632,2.1496,2.1269,2.0975,2.0895,2.0869,2.0708,2.0637,2.0637,2.0637,2.0561,2.0454,2.0454,2.0304,2.0157,2.0024,1.9983,1.9933,1.9639,1.9615,1.9562,1.9428,1.9147,1.8878,1.8731,1.8436,1.8236,1.8236,1.7982,1.7782,1.7782,1.7675,1.7555,1.7408,1.7364,1.7276,1.7116,1.7313,1.7562,1.7846,1.8192,1.8587,1.899,1.9787,2.0647,2.1551,2.2044,2.2584,2.3157,2.3007,2.3103,0.0,0.0,0.0,0.0,0.0,0.0,0.0,1.5928,1.6367,1.7463,1.7784,1.8135,1.9008,1.9518,1.9947,2.0408,2.1045,2.1639,2.212,2.2501,2.277,2.2983,2.3538,2.4047,2.4394,2.4905,2.5217,2.5217,2.5507,2.57,2.57,2.5472,2.5304,2.5304,2.5042,2.4734,2.4425,2.4332,2.4131,2.379,2.3479,2.3293,2.3293,2.2762,2.2512,2.248,2.2135,2.1978,2.1929,2.1929,2.1929,2.1929,2.1929,2.2073,2.2335,2.2398,2.2236,2.2029,2.2242,2.2167,2.1951,2.1743,2.1662,2.1622,2.1349,2.1243,2.1189,2.1189,2.1149,2.1109,2.1109,2.0935,2.0793,2.0793,2.0575,2.0357,2.0304,2.029,2.0197,1.9947,1.988,1.9786,1.9535,1.9481,1.9374,1.9052,1.8758,1.8571,1.8571,1.8289,1.8103,1.8103,1.7849,1.7649,1.7608,1.7394,1.7256,1.7204,1.7191,1.7291,1.7504,1.7731,1.811,1.8655,1.9194,2.0153,2.1564,2.1898,2.2504,2.3359,2.3479,2.3734,1.2357,1.3289,1.4428,1.5055,1.6075,1.6966,0.0,1.7794,1.854,1.899,1.9506,2.0006,2.04,2.1013,2.145,2.1512,2.2049,2.2481,2.2546,2.2826,2.3051,2.3097,2.3414,2.3779,2.4117,2.4209,2.4271,2.4271,2.4301,2.4317,2.4317,2.4301,2.427,2.427,2.4239,2.4053,2.3728,2.3417,2.3106,2.2762,2.2418,2.2261,2.2261,2.2198,2.2167,2.2135,2.1803,2.1488,2.1204,2.1204,2.1204,2.1204,2.1204,2.1235,2.1299,2.1592,2.1674,2.166,2.1687,2.1829,2.201,2.1984,2.197,2.197,2.1897,2.1743,2.1542,2.1542,2.1341,2.1109,2.1109,2.1082,2.1069,2.1069,2.1042,2.0935,2.0712,2.0628,2.0535,2.021,2.0157,2.0064,1.98,1.976,1.9653,1.9388,1.9065,1.885,1.885,1.8624,1.8437,1.8437,1.8143,1.7849,1.7609,1.7582,1.7541,1.7541,1.7541,1.7567,1.7593,1.7829,1.8254,1.8863,1.9394,2.0127,2.1079,2.16,2.2075,2.2555,2.3097,2.3783,1.3425,1.4455,1.5555,1.6587,1.7528,1.8321,1.8866,1.9304,1.9828,2.0545,2.0896,2.1117,2.1264,2.1509,2.1552,2.1176,2.1507,2.1782,2.1801,2.2194,2.2588,2.2777,2.3101,2.3454,2.3775,2.3991,2.4115,2.4115,2.4115,2.4115,2.4115,2.3914,2.3728,2.351,2.3324,2.3074,2.2731,2.2574,2.2449,2.2292,2.1978,2.1803,2.1803,2.1614,2.152,2.152,2.1362,2.1235,2.1109,2.1109,2.1109,2.1109,2.1109,2.1109,2.1136,2.1487,2.1711,2.1863,2.1991,2.2278,2.2505,2.2298,2.2231,2.2205,2.2031,2.193,2.1836,2.1836,2.171,2.1617,2.1617,2.1496,2.1395,2.1395,2.1229,2.1082,2.0949,2.0922,2.0842,2.0548,2.0494,2.0401,2.0107,2.0024,1.996,1.9666,1.9372,1.9185,1.9185,1.8931,1.8677,1.8504,1.8384,1.825,1.8116,1.8103,1.8103,1.8103,1.794,1.7818,1.7818,1.794,1.8184,1.8591,1.915,1.9824,2.0542,2.097,2.1435,2.1934,2.2184,2.2719,1.4355,1.5531,1.6639,1.807,1.8948,1.9667,2.0429,2.0622,2.0842,2.1641,2.167,2.1565,2.1566,2.1491,2.1232,2.0567,2.0874,2.1171,2.1087,2.1652,2.2193,2.2421,2.2668,2.2918,2.3168,2.3573,2.3805,2.3697,2.3712,2.3635,2.3542,2.3324,2.3074,2.2825,2.2574,2.2292,2.1978,2.1961,2.1915,2.1821,2.1583,2.1457,2.1457,2.1204,2.1109,2.1109,2.1109,2.1109,2.1109,2.1109,2.1109,2.1109,2.1109,2.1109,2.1136,2.1381,2.1649,2.1943,2.2205,2.2498,2.2746,2.2579,2.2539,2.2498,2.2331,2.2164,2.2111,2.2111,2.2044,2.1991,2.1991,2.1863,2.167,2.1573,2.1314,2.1038,2.0943,2.089,2.0771,2.056,2.0521,2.0429,2.0139,2.0055,1.995,1.9691,1.9401,1.9277,1.9386,1.9185,1.8931,1.8637,1.8611,1.8584,1.8504,1.849,1.849,1.849,1.82,1.7993,1.7993,1.7909,1.8004,1.829,1.8723,1.9263,1.9961,2.0203,2.0615,2.1199,2.1373,2.1719,1.5053,1.6484,1.7896,1.9378,2.0439,2.1233,2.1569,2.164,2.1734,2.2033,2.1619,2.1218,2.1218,2.1008,2.0616,1.9932,2.0601,2.1084,2.0752,2.1496,2.2104,2.2104,2.2104,2.2135,2.2135,2.2731,2.3012,2.2668,2.2637,2.2512,2.2167,2.2135,2.2135,2.2135,2.2104,2.1947,2.1614,2.1614,2.1457,2.1141,2.1109,2.1109,2.1109,2.1109,2.1109,2.1109,2.1109,2.1109,2.1109,2.1109,2.1109,2.1109,2.1109,2.1109,2.1109,2.1122,2.1341,2.1636,2.193,2.2191,2.2472,2.2786,2.288,2.288,2.2867,2.2632,2.2405,2.2405,2.2205,2.1991,2.1991,2.1977,2.1879,2.1503,2.1195,2.0922,2.0598,2.0297,2.0138,2.0125,2.0125,2.0036,1.9756,1.9718,1.9616,1.928,1.9,1.8957,1.9341,1.9388,1.9267,1.8916,1.8876,1.877,1.8517,1.849,1.849,1.849,1.82,1.7993,1.7993,1.7687,1.7659,1.8024,1.8024,1.8465,1.9331,1.9331,1.9608,2.0153,2.0801,2.1136,1.5398,1.7157,1.8782,1.9864,2.0844,2.1624,2.1912,2.1656,2.1399,2.1463,2.1008,2.0466,2.0012,1.9715,1.9304,1.8663,1.9153,1.9645,1.9755,2.0561,2.1319,2.1713,2.1947,2.2104,2.2104,2.2292,0.0,2.2261,2.2261,2.223,2.2104,2.2104,2.201,2.1772,2.1758,2.1614,2.1267,2.1267,2.1204,2.1109,2.1109,2.1109,2.1109,2.1109,2.1109,2.1109,2.1109,2.1109,2.1109,2.1109,2.1109,2.1109,2.1109,2.1109,2.1109,2.1109,2.1176,2.1296,2.1622,2.2017,2.2432,2.2539,2.2733,2.2893,2.2893,2.2827,2.2712,2.2712,2.2476,2.2193,2.2193,2.188,2.1502,2.1368,2.1117,2.0892,2.0793,2.0544,2.0386,2.0386,2.0234,2.0081,1.9979,1.9966,1.9877,1.9585,1.9109,1.8792,1.8745,1.8748,1.868,1.8577,1.8577,1.8538,1.8435,1.8435,1.8435,1.8435,1.8148,1.8004,1.8004,1.7889,1.7881,1.7998,1.8349,1.8673,1.8971,1.9163,1.9437,1.9825,2.0071,2.0276,1.6105,1.7776,1.9243,2.0341,2.1073,2.1566,2.1725,2.1327,2.0799,2.0486,1.9836,1.912,1.8374,1.7905,1.7553,1.7185,1.7667,1.827,1.8863,1.9743,2.0557,2.1164,2.1551,2.1727,2.1727,2.1727,0.0,2.1929,2.1915,2.1853,2.1772,2.1727,2.1646,2.1425,2.1425,2.133,2.1109,2.1109,2.1109,2.1109,2.1109,2.1109,2.1109,2.1109,2.1109,2.1109,2.1109,2.1109,2.1109,2.1109,2.1109,2.1109,2.1109,2.1109,2.1109,2.1109,2.1109,2.1149,2.1475,2.1836,2.2151,2.2352,2.2552,2.276,2.2867,2.2893,2.2859,2.2722,2.2516,2.2276,2.2138,2.1804,2.1424,2.1288,2.1053,2.0818,2.0718,2.0472,2.0248,2.0148,1.9986,1.9868,1.9768,1.9756,1.9656,1.9393,1.9,1.8699,1.8559,1.8538,1.85,1.8398,1.8386,1.8386,1.8386,1.8386,1.8386,1.8386,1.8236,1.8138,1.8138,1.8119,1.8108,1.8108,1.8449,1.8676,1.8776,1.895,1.9175,1.9493,1.972,1.9903,1.7109,1.8295,1.9263,2.0778,2.1144,2.1127,2.1084,2.0615,1.9926,1.903,1.8088,1.7176,1.6322,1.5682,1.5377,1.5661,1.6226,1.7043,1.8106,1.91,1.9919,2.0544,2.0887,2.1109,2.1109,2.1109,0.0,2.1551,0.0,2.1457,2.1109,2.1109,2.1109,2.1109,2.1077,2.1077,2.1109,2.1122,2.1136,2.1136,2.1149,2.1149,2.1149,2.1149,2.1149,2.1149,2.1136,2.1136,2.1136,2.1122,2.1109,2.1109,2.1109,2.1109,2.1109,2.1109,2.1077,2.1117,2.143,2.1569,2.1643,2.2185,2.2338,2.2404,2.2745,2.2825,2.2756,2.2379,2.2276,2.2173,2.1829,2.1772,2.1656,2.1276,2.0987,2.07,2.0393,2.012,1.9866,1.9588,1.9515,1.9418,1.9165,1.9116,1.9019,1.8778,1.8741,1.8722,1.8774,1.8758,1.8699,1.8433,1.8407,1.8407,1.8407,1.8407,1.8407,1.8407,1.8394,1.8394,1.8394,1.8337,1.83,1.83,1.8312,1.8432,1.8686,1.8698,1.8874,1.9128,1.9719,1.9985,1.7172,1.8373,1.9361,2.0007,2.0318,2.0288,1.9689,1.906,1.8257,1.7035,1.6073,1.5194,1.4371,1.4009,1.3935,1.426,1.5292,1.6434,1.7559,1.8691,1.9701,2.0518,2.0887,2.1109,2.1109,2.1109,0.0,0.0,2.1235,2.1204,2.1109,2.1109,2.1109,2.1109,2.0856,2.0856,2.1109,2.1355,2.1475,2.1475,2.1689,2.1764,2.1764,2.1764,2.1764,2.175,2.1569,2.1475,2.1462,2.1203,2.1109,2.1109,2.1109,2.1109,2.1109,2.1109,2.0951,2.0742,2.0821,2.0991,2.1228,2.1549,2.1644,2.1708,2.1992,2.207,2.207,2.1966,2.1691,2.1449,2.138,2.1185,2.0943,2.0839,2.079,2.0707,2.0603,2.0398,2.0192,2.012,1.9769,1.9479,1.9406,1.9237,1.908,1.9019,1.9007,1.8845,1.8466,1.8435,1.8398,1.8337,1.8325,1.8325,1.8325,1.8325,1.8325,1.8325,1.8337,1.8344,1.8344,1.8313,1.83,1.83,1.8481,1.8613,1.8686,1.8911,1.914,1.9406,1.9565,1.971,1.7535,1.8313,1.8908,1.9235,1.9322,1.9116,1.8193,1.7511,1.6634,1.5088,1.4196,1.3422,1.2519,1.2384,1.2598,1.3217,1.4315,1.557,1.693,1.8246,1.9358,2.0103,2.0745,2.1109,2.1109,2.1109,2.1046,0.0,2.1014,2.1046,2.0887,2.0887,2.0824,2.0666,2.0488,2.0604,2.1041,2.1244,2.1487,2.1783,2.1943,2.1991,2.1991,2.1991,2.1991,2.1977,0.0,2.1703,2.1601,2.1408,2.1229,2.1109,2.1109,2.1109,2.1109,2.1109,2.0887,2.0602,2.0602,2.0515,2.0438,2.0882,2.1066,2.1259,2.1539,2.1705,2.176,2.1587,2.138,2.1173,2.1012,2.0839,2.07,2.07,2.07,2.07,2.07,2.0591,2.0446,2.0337,1.9975,1.9684,1.9684,1.9455,1.9285,1.9285,1.9189,1.8995,1.8674,1.8541,1.842,1.8312,1.83,1.83,1.83,1.83,1.83,1.83,1.8396,1.8469,1.8469,1.8577,1.8638,1.8638,1.8814,1.8886,1.8886,1.9152,1.9358,1.9503,1.9745,1.9938,1.7856,1.8158,1.816,1.8395,1.8254,1.7743,1.6562,1.5903,1.5032,1.3245,1.2487,1.182,1.0895,1.09,1.1376,1.2349,1.3423,1.4688,1.6272,1.7805,1.8969,1.9574,2.042,2.0982,2.0982,2.0982,2.0856,2.0552,2.0792,2.0824,2.0552,2.052,2.0393,2.0043,2.0113,2.04,2.0935,2.1078,2.1398,2.1978,2.2018,2.2031,2.1965,2.1965,2.1998,2.2031,2.1991,2.1851,2.1636,2.1596,2.1408,2.1109,2.1109,2.1109,2.1077,2.1046,2.0824,2.052,2.0475,2.0062,1.9621,2.023,2.0548,2.0767,2.115,2.1416,2.1549,2.1242,2.1151,2.1081,2.077,2.07,2.07,2.07,2.07,2.07,2.07,2.07,2.064,2.041,2.0156,1.9941,1.9941,1.9733,1.9539,1.9503,1.931,1.9152,1.9116,1.8911,1.865,1.842,1.8396,1.8396,1.8396,1.8396,1.8396,1.8396,1.8613,1.8734,1.8734,1.8983,1.9104,1.9104,1.914,1.9165,1.9165,1.9431,1.9576,1.9624,2.0096,2.0325,1.7376,1.7598,1.7611,1.7219,1.697,1.6373,1.4618,1.3932,1.3225,1.1642,1.0919,1.0419,0.9841,1.0035,1.0545,1.1314,1.2819,1.4354,1.5756,1.7344,1.8619,1.92,1.9865,2.0265,2.0265,2.0265,0.0,0.0,2.0234,2.0265,2.0202,2.0202,2.0043,1.9711,2.0161,2.0475,2.0578,2.1369,2.1796,2.1916,2.2151,2.2099,2.1825,2.1825,2.1996,2.2256,2.202,0.0,2.193,2.1689,2.1408,2.1109,2.1109,2.1109,2.1077,2.0792,2.0488,2.0138,1.9871,1.952,1.9281,1.9886,1.9932,1.9825,2.0325,2.0508,2.0593,2.0743,2.0804,2.077,2.0735,2.07,2.07,2.07,2.07,2.07,2.07,2.07,2.0688,2.064,2.0422,2.0241,2.0241,2.0023,1.9769,1.9539,1.9455,1.9358,1.914,1.9068,1.9019,1.8983,1.8971,1.8971,1.8971,1.8971,1.8971,1.8971,1.9007,1.9044,1.9044,1.908,1.9104,1.9104,1.9322,1.9431,1.9431,1.9709,1.9929,2.0168,2.0265,2.0434,1.6144,1.6286,1.6245,1.5857,1.5627,1.503,1.322,1.2477,1.1704,1.0125,0.9503,0.9113,0.8781,0.9053,0.9656,1.0724,1.2119,1.3559,1.498,1.6499,1.7786,1.8624,1.9262,1.9751,2.0062,2.0106,2.0043,1.9839,1.9839,1.9839,1.9839,1.9679,1.952,1.9328,1.9747,2.0132,2.0434,2.1049,2.1484,2.1842,2.1971,2.1966,2.1794,2.1794,2.1897,2.2022,2.1893,2.1698,2.1417,2.1273,2.0974,2.0583,2.0583,2.0583,2.0552,2.0393,2.0138,1.9807,1.9679,1.9392,1.916,1.9455,1.9524,1.9576,1.9987,2.0204,2.0362,2.0628,2.07,2.07,2.07,2.07,2.07,2.07,2.07,2.07,2.07,2.07,2.07,2.07,2.0603,2.0519,2.0519,2.0301,2.0071,1.9938,1.9805,1.9672,1.9551,1.9406,1.9261,1.9116,1.9104,1.9104,1.9104,1.9104,1.9104,1.9104,1.9104,1.9104,1.9104,1.9237,1.931,1.931,1.9576,1.9721,1.9721,1.9987,2.0158,2.0313,2.0446,2.0579,1.4823,1.4956,1.4855,1.4649,1.4358,1.3706,1.1991,1.1141,1.028,0.8832,0.8289,0.8034,0.7885,0.8212,0.8916,1.0106,1.1393,1.2713,1.4115,1.557,1.6869,1.7867,1.8567,0.0,1.9731,1.9851,0.0,1.952,1.9475,1.9475,1.9475,1.9232,1.9104,1.9104,1.9418,1.9862,2.0402,2.0736,2.1133,2.1656,2.1656,2.1634,2.1565,2.1565,2.1587,2.1656,2.1656,2.1374,2.09,2.09,2.057,2.0106,2.0106,2.0106,2.0074,2.0011,1.9839,1.9571,1.9507,1.9328,1.9104,1.9104,1.9249,1.9479,1.9817,2.0059,2.0289,2.0616,2.07,2.07,2.07,2.07,2.07,2.07,2.07,2.07,2.07,2.07,2.07,2.07,2.07,2.07,2.07,2.0531,2.0374,2.0325,2.0132,1.9953,1.9893,1.9721,1.9515,1.9298,1.9177,1.9104,1.9104,1.9165,1.9189,1.9189,1.9249,1.9285,1.9285,1.9479,1.9588,1.9588,1.9866,2.0011,2.0011,2.0265,2.0398,2.0398,2.0603,2.07,1.3697,1.3963,1.4003,1.39,1.3277,1.2276,1.0721,0.9719,0.8829,0.7817,0.749,0.741,0.7444,0.7875,0.8473,0.921,1.0649,1.2066,1.3244,1.4803,1.6074,1.6865,1.7727,0.0,1.8708,1.902,1.9168,1.9136,1.9136,1.9136,1.9136,1.9104,1.9104,1.9104,1.9612,2.0057,2.0414,2.0922,2.1183,2.1242,2.1242,2.1116,2.0804,2.0804,2.0977,2.1242,2.1242,2.1102,0.0,2.09,2.057,2.0106,2.0106,2.0106,2.0074,1.9775,1.9635,1.9552,1.9264,1.9136,1.9104,1.9104,1.9128,1.9237,1.9724,1.9938,2.0026,2.0567,2.07,2.07,2.07,2.07,2.07,2.07,2.07,2.07,2.07,2.07,2.07,2.07,2.07,2.07,2.07,2.0688,2.0591,2.035,2.0289,2.0192,1.9917,1.9869,1.9833,1.982,1.9406,1.9104,1.9104,1.9322,1.9467,1.9467,1.9697,1.9842,1.9842,1.9833,1.9845,1.9845,2.0144,2.0277,2.0277,2.0543,2.0664,2.0664,2.0688,2.07,1.1561,1.2013,1.2225,1.2334,1.1826,1.0906,0.9402,0.8373,0.7523,0.6713,0.6374,0.6346,0.6783,0.709,0.7627,0.8625,0.9712,1.0896,1.2164,1.3363,1.4567,1.5772,1.6595,1.7368,0.0,0.0,1.8892,1.9072,1.9104,1.92,1.9392,1.92,1.9104,1.9104,1.9603,1.9948,2.0114,2.0639,2.0908,2.0908,2.0908,2.0839,2.07,2.07,2.077,2.0908,2.0908,2.0671,0.0,2.0314,1.9994,1.95,1.95,1.95,1.9488,1.936,1.9296,1.9264,1.9136,1.9104,1.9128,1.9285,1.9346,1.9418,1.9805,2.0002,2.0229,2.0603,2.07,2.07,2.07,2.0591,2.0434,2.0265,2.0229,2.0229,2.0229,2.0362,2.047,2.047,2.0591,2.07,2.07,2.07,2.0664,2.0567,2.0543,2.0507,2.041,2.0253,2.0156,2.0156,1.9817,1.96,1.96,1.9697,1.9757,1.9757,1.982,1.9881,1.9881,2.0071,2.0156,2.0156,2.041,2.0543,2.0543,2.0652,2.07,2.07,2.07,2.07,0.9436,1.0002,1.0413,1.0703,1.0318,0.9483,0.819,0.7186,0.6334,0.5594,0.5333,0.5382,0.588,0.6282,0.6831,0.7752,0.8791,0.985,1.0998,1.2123,1.3343,1.4731,0.0,1.6442,0.0,1.8238,1.8731,1.9072,1.92,1.936,1.9584,1.9392,1.9264,1.9264,1.9768,1.9981,1.9881,2.0446,2.07,2.07,2.07,2.07,2.07,2.07,2.07,2.07,2.07,2.041,0.0,1.9881,1.9567,1.9104,1.9104,1.9104,1.9104,1.9104,1.9104,1.9104,1.9104,1.9165,1.9249,1.9443,1.9612,1.9769,1.9975,2.0168,2.0362,2.0628,2.07,2.07,2.07,2.0567,2.0386,2.0192,2.0156,2.0156,2.0156,2.0289,2.0422,2.0422,2.0579,2.07,2.07,2.07,2.07,2.07,2.07,2.07,2.07,2.0543,2.0422,2.0422,2.0265,2.005,1.9905,1.9953,2.0035,2.0035,2.0074,2.0156,2.0156,2.0325,2.0422,2.0422,2.0603,2.07,2.07,2.07,2.07,2.07,2.07,2.07,0.7559,0.8154,0.8657,0.9179,0.8778,0.7999,0.7113,0.6186,0.5296,0.4487,0.4474,0.4633,0.4702,0.5471,0.6186,0.648,0.7857,0.9158,0.9821,1.125,1.2639,0.0,0.0,1.5762,1.6894,1.798,1.8731,1.9072,1.9424,0.0,1.9603,1.9603,1.9571,1.9571,2.0117,2.0248,1.9881,2.0446,2.07,2.07,2.07,2.07,2.07,2.07,2.07,2.07,2.07,2.041,0.0,1.9881,1.9567,1.9104,1.9104,1.9104,1.9104,1.9104,1.9104,1.9104,1.9104,1.9273,1.9491,1.9503,1.9866,2.0301,2.0301,2.0313,2.0362,2.0628,2.07,2.07,2.07,2.07,2.07,2.07,2.07,2.07,2.07,2.07,2.07,2.07,2.07,2.07,2.07,2.07,2.07,2.07,2.07,2.07,2.07,2.07,2.07,2.07,2.07,2.0483,1.9963,2.0122,2.0313,2.0313,2.0555,2.07,2.07,2.07,2.07,2.07,2.07,2.07,2.07,2.07,2.07,2.07,2.07,2.07,0.5705,0.6334,0.6858,0.7181,0.6828,0.6219,0.5427,0.4716,0.4044,0.3514,0.3502,0.3671,0.4022,0.4665,0.5283,0.5745,0.6942,0.8088,0.8893,1.021,0.0,1.2662,1.4585,1.6198,0.0,0.0,1.8828,1.9392,1.9539,1.9807,2.0253,2.0062,1.9839,1.9616,1.9887,2.0014,1.9881,2.0446,2.07,2.07,2.07,2.07,2.07,2.07,2.07,2.07,2.07,2.041,1.9881,1.9881,1.9567,1.9104,1.9104,1.9104,1.9104,1.9104,1.9104,1.9128,1.931,1.9431,1.9564,1.9938,2.0168,2.035,2.0519,2.0579,2.0591,2.0676,2.07,2.0664,2.0483,2.0434,2.0386,2.0217,2.0134,2.0134,2.0134,2.0313,2.0434,2.0434,2.0579,2.07,2.07,2.07,2.07,2.07,2.07,2.07,2.07,2.07,2.07,2.07,2.07,2.064,2.047,2.0531,2.0579,2.0579,2.0652,2.07,2.07,2.07,2.07,2.07,2.07,2.07,2.07,2.07,2.07,2.07,2.07,2.07,0.4024,0.4665,0.5233,0.5364,0.5128,0.4718,0.4133,0.3578,0.308,0.2691,0.2695,0.2841,0.315,0.3769,0.4385,0.4802,0.5963,0.7081,0.7919,0.9108,0.0,1.2322,0.0,0.0,0.0,1.8005,1.872,1.9539,1.9711,2.003,2.057,2.0265,2.0011,1.9807,1.9998,2.0014,1.9881,2.0446,2.07,2.07,2.07,2.07,2.07,2.07,2.07,2.07,2.07,2.041,0.0,1.9881,1.9567,1.9104,1.9104,1.9104,1.9116,1.9213,1.9249,1.9298,1.9564,1.9721,1.9866,2.0204,2.0386,2.0495,2.0652,2.07,2.07,2.07,2.07,2.0664,2.0495,2.0458,2.0422,2.0253,2.0217,2.0217,2.0217,2.035,2.0458,2.0458,2.0591,2.07,2.07,2.07,2.07,2.07,2.07,2.07,2.07,2.07,2.07,2.07,2.07,2.07,2.07,2.07,2.07,2.07,2.07,2.07,2.07,2.07,2.07,2.07,2.07,2.07,2.07,2.07,2.07,2.07,2.07,2.07,0.0,0.3227,0.3782,0.3782,0.3678,0.3496,0.3187,0.2769,0.0,0.2008,0.2055,0.2158,0.2174,0.2875,0.3536,0.3715,0.4981,0.6211,0.6951,0.8143,0.0,0.0,1.415,0.0,1.7103,1.7738,1.8483,1.9552,1.9947,2.0265,2.0583,2.0265,2.0074,2.0074,2.0235,2.019,1.9881,2.0422,2.0688,2.07,2.07,2.07,2.07,2.07,2.07,0.0,2.07,2.041,1.9881,1.9881,1.9567,1.9104,1.9104,1.9116,1.9165,1.9406,1.9515,1.9576,1.9854,2.0108,2.0313,2.0337,2.0507,2.07,2.07,2.07,2.07,2.07,2.07,2.07,2.07,2.07,2.07,2.07,2.07,2.07,2.07,2.07,2.07,2.07,2.07,2.07,2.07,2.07,2.07,2.07,2.07,2.07,2.07,2.07,2.07,2.07,2.07,2.07,2.07,2.07,2.07,2.07,2.07,2.07,2.07,2.07,2.07,2.07,2.07,2.07,2.07,2.07,2.07,2.07,2.07,2.07,0.1597,0.0,0.2671,0.2671,0.2606,0.247,0.0,0.2008,0.1814,0.1529,0.162,0.1777,0.1869,0.2512,0.3103,0.3297,0.4497,0.5723,0.6667,0.8783,0.0,1.2052,1.3695,1.5291,1.6695,1.7836,1.888,1.9915,2.0297,2.052,2.0602,2.0265,1.9979,1.9743,1.9711,1.9763,1.9881,2.0241,2.0507,2.07,2.07,2.07,2.07,2.07,2.07,2.07,2.07,2.041,1.9881,1.9881,1.9567,1.9104,1.9104,1.9237,1.9418,1.9479,1.9636,1.982,2.012,2.0265,2.035,2.0543,2.0652,2.07,2.07,2.07,2.07,2.07,2.07,2.07,2.07,2.07,2.07,2.07,2.07,2.07,2.07,2.07,2.07,2.07,2.07,2.07,2.07,2.07,2.07,2.07,2.07,2.07,2.07,2.07,2.07,2.07,2.07,2.07,2.07,2.07,2.07,2.07,2.07,2.07,2.07,2.07,2.07,2.07,2.07,2.07,2.07,2.07,2.07,2.07,2.07,2.07,0.1254,0.1573,0.1889,0.1889,0.1865,0.1791,0.1639,0.1592,0.1506,0.1326,0.1488,0.1675,0.1772,0.2485,0.3101,0.3298,0.4477,0.5853,0.7231,0.0,1.1117,1.2282,1.3908,1.5534,0.0,1.8164,1.918,2.0043,2.0425,2.0602,2.0602,2.0265,1.9947,1.9616,1.943,1.9515,1.9881,2.018,2.0446,2.07,2.07,2.07,2.07,2.07,2.07,2.07,2.07,2.047,2.0062,2.0062,1.9854,1.9479,1.9479,1.9564,1.9709,1.983,1.9829,1.984,2.0124,2.0105,1.9991,2.0167,2.0214,2.0214,2.0388,2.0422,2.0457,2.0631,2.07,2.07,2.07,2.07,2.07,2.07,2.07,2.07,2.07,2.07,2.07,2.07,2.07,2.07,2.07,2.07,2.07,2.07,2.07,2.07,2.07,2.07,2.07,2.07,2.07,2.07,2.07,2.07,2.07,2.07,2.07,2.07,2.07,2.07,2.07,2.07,2.07,2.07,2.07,2.07,2.0761,2.0882,2.0882,2.0954,0.1203,0.1312,0.1447,0.1447,0.1449,0.1466,0.1505,0.1521,0.1513,0.1444,0.1658,0.1881,0.1964,0.2727,0.3463,0.3713,0.5058,0.6679,0.8382,0.9931,1.1434,1.2833,1.4461,0.0,1.749,1.8569,1.9456,2.0138,2.0456,2.0583,2.052,2.0202,1.9871,1.952,1.9301,1.9406,1.9914,2.0144,2.0398,2.07,2.07,2.07,2.07,2.07,2.07,2.07,0.0,0.0,2.0313,2.0313,2.0122,1.9881,1.9881,1.9884,1.991,2.0127,1.9996,1.9725,1.9935,1.9831,1.9611,1.9611,1.9611,1.9645,1.9936,2.004,2.0179,2.0492,2.0631,2.07,2.07,2.07,2.07,2.07,2.07,2.07,2.07,2.07,2.07,2.07,2.07,2.07,2.07,2.07,2.07,2.07,2.07,2.07,2.07,2.07,2.07,2.07,2.07,2.07,2.07,2.07,2.07,2.07,2.07,2.07,2.07,2.07,2.07,2.07,2.07,2.0724,2.0761,2.0761,2.0894,2.116,2.116,2.1281,0.1203,0.1414,0.1648,0.1648,0.1696,0.1788,0.1957,0.2042,0.2083,0.2055,0.2314,0.2585,0.2716,0.3495,0.4304,0.4786,0.674,0.8648,0.0,0.0,1.2214,1.3352,0.0,1.6215,1.7642,1.8821,1.9807,2.0488,2.057,2.0488,2.0202,1.9871,1.952,1.92,1.9354,1.9588,1.9881,1.9929,2.0229,2.07,2.07,2.07,2.07,2.07,2.07,2.07,0.0,2.0555,2.0313,2.0313,2.0122,1.9881,1.9881,1.9824,1.9743,1.979,1.9725,1.9634,1.9669,1.9645,1.9611,1.9611,1.9611,1.9611,1.9645,1.9866,2.011,2.0179,2.0422,2.07,2.07,2.07,2.07,2.07,2.07,2.07,2.07,2.07,2.07,2.07,2.07,2.07,2.07,2.07,2.07,2.07,2.07,2.07,2.07,2.07,2.07,2.07,2.07,2.07,2.07,2.07,2.07,2.07,2.07,2.07,2.07,2.07,2.07,2.07,2.07,2.0809,2.1039,2.1039,2.1184,2.145,2.145,2.1474,0.1203,0.145,0.1745,0.1871,0.2066,0.2247,0.2359,0.254,0.2706,0.2782,0.2993,0.3294,0.3685,0.453,0.5669,0.7222,0.8812,1.0227,1.1374,1.2602,1.3746,0.0,0.0,1.7445,1.8312,1.9455,2.0189,2.0329,2.052,2.038,1.9871,1.9679,1.9517,1.931,1.9443,1.9709,2.0098,2.0132,2.0325,2.07,2.07,2.07,2.07,2.07,2.0561,2.0388,0.0,2.0501,2.0209,2.0416,2.0309,1.9996,1.9996,1.9862,1.9588,1.9173,1.8963,1.8878,1.8493,1.8352,1.8387,1.8598,1.8668,1.8773,1.9157,1.9552,1.9866,2.004,2.0388,2.07,2.07,2.07,2.07,2.07,2.07,2.07,2.07,2.07,2.07,2.07,2.07,2.07,2.07,2.07,2.07,2.07,2.07,2.07,2.07,2.07,2.07,2.07,2.07,2.07,2.07,2.07,2.07,2.07,2.07,2.07,2.07,2.07,2.07,2.07,2.0845,2.0978,2.1099,2.1244,2.1462,2.1728,2.1728,2.18,0.1195,0.1496,0.1852,0.2072,0.2414,0.2728,0.2883,0.3178,0.3473,0.3688,0.3925,0.4286,0.4832,0.6005,0.7567,0.9761,1.095,1.1996,1.3165,1.4324,1.5314,1.6041,1.7358,1.8417,1.8885,1.9804,2.0297,2.0106,2.0265,2.0151,1.9702,1.9606,1.9568,1.9588,1.966,1.989,2.0313,2.0271,2.0404,2.07,2.07,2.0631,2.0561,2.0561,2.0353,2.0005,2.0318,2.0284,2.0005,2.0318,2.0249,1.997,1.9866,1.9622,1.9176,1.8473,1.8234,1.8216,1.7638,1.7435,1.7496,1.7815,1.7886,1.8028,1.8701,1.916,1.9583,2.0005,2.0426,2.0752,2.0702,2.07,2.07,2.07,2.07,2.07,2.07,2.07,2.07,2.07,2.07,2.07,2.07,2.07,2.07,2.07,2.0761,2.0797,2.0797,2.0857,2.0894,2.0894,2.0894,2.0869,2.0797,2.0736,2.07,2.07,2.07,2.07,2.07,2.07,2.0736,2.0797,2.099,2.116,2.1281,2.1498,2.174,2.1994,2.1994,2.2103,0.1209,0.1635,0.2091,0.2179,0.2576,0.3112,0.3688,0.4107,0.452,0.4885,0.5325,0.5773,0.6194,0.8159,1.0188,1.1679,1.3052,1.4303,1.5334,0.0,1.6601,1.7293,1.7777,1.8293,1.9012,1.9436,1.9775,2.0074,1.9839,1.9759,1.9968,1.9675,1.9633,1.9845,2.012,2.0277,2.0313,2.0176,2.0306,2.07,2.07,2.0492,2.0144,2.0144,1.997,1.9645,1.968,1.9645,1.9645,1.968,1.9645,1.9611,1.9227,1.8774,1.8267,1.7827,1.7779,1.7925,1.7889,1.7852,1.7852,1.7889,1.7889,1.7998,1.8389,1.8836,1.9319,2.0068,2.0574,2.0852,2.0728,2.07,2.07,2.07,2.07,2.07,2.07,2.07,2.07,2.07,2.07,2.07,2.07,2.07,2.07,2.07,2.0906,2.1063,2.1063,2.1293,2.1462,2.1462,2.1462,2.1353,2.1087,2.0845,2.07,2.07,2.07,2.07,2.07,2.07,2.0821,2.1063,2.1087,2.1341,2.1849,2.1873,2.2018,2.2272,2.2272,2.2284,0.1254,0.1674,0.2163,0.2395,0.3161,0.3929,0.4202,0.4834,0.5524,0.6041,0.6587,0.7382,0.8696,1.0238,1.185,1.3438,1.4696,1.5776,1.669,1.7398,1.7884,1.8153,1.8655,1.9092,1.9392,1.9711,1.9871,1.9807,1.9841,1.9796,1.9699,1.9738,1.989,2.0156,2.0265,2.0249,2.0176,2.0132,2.0075,2.004,2.004,1.9924,1.9796,1.9796,1.9576,1.9227,1.9471,1.9471,1.9227,1.9227,1.9087,1.8795,1.8336,1.7847,1.7447,1.7177,1.6983,1.6756,1.6545,1.6471,1.6508,1.6719,1.6976,1.728,1.7636,1.8368,1.9217,1.9762,2.0415,2.0946,2.1149,2.1208,2.1208,2.1208,2.1208,2.1208,2.1208,2.1208,2.1208,2.1208,2.1208,2.1208,2.1208,2.1208,2.1208,2.1208,2.1293,2.1353,2.1353,2.145,2.151,2.151,2.151,2.1474,2.1365,2.1268,2.1208,2.1208,2.0894,2.0773,2.0942,2.0942,2.1075,2.1353,2.1522,2.1704,2.1909,2.2066,2.2199,2.2296,2.2296,2.2296,0.1385,0.1777,0.2231,0.2628,0.358,0.4533,0.49,0.5742,0.6653,0.7293,0.8122,0.9225,1.0853,1.2051,1.33,0.0,1.5978,1.6893,1.7732,1.8378,1.8764,1.8764,1.9168,1.9456,1.9456,1.9647,1.9717,1.9567,1.9731,1.9817,1.9745,1.9938,2.0101,2.0229,2.0229,2.014,1.9936,1.9692,1.9448,1.9227,1.8982,1.8982,1.9227,1.9122,1.8843,1.8457,1.8738,1.8703,1.8468,1.8468,1.8195,1.7739,1.7357,1.6991,1.6625,1.6554,1.6341,1.6098,1.5883,1.5771,1.5845,1.606,1.6359,1.6666,1.7028,1.7808,1.8706,1.937,2.0131,2.0864,2.1436,2.1534,2.151,2.151,2.151,2.151,2.151,2.151,2.151,2.151,2.151,2.151,2.151,2.151,2.151,2.151,2.1583,2.1643,2.1643,2.1716,2.1764,2.1764,2.1692,2.1643,2.1643,2.1559,2.151,2.151,2.116,2.1039,2.122,2.1232,2.1353,2.1631,2.1813,2.1946,2.203,2.2212,2.2296,2.2296,2.2296,2.2296,0.1629,0.1946,0.2345,0.2877,0.3774,0.4786,0.5781,0.6904,0.7911,0.8678,0.9958,1.127,1.2418,1.3479,1.4674,1.599,1.6957,1.7766,1.8507,1.8892,1.9104,1.9104,1.9072,1.9072,1.9072,1.9072,1.9181,1.9479,1.9503,1.9733,2.0277,2.0313,2.0229,2.011,2.0075,1.9936,1.9576,1.8784,1.8398,1.8363,1.7625,1.7696,1.8363,1.8037,1.7685,1.7308,1.7308,1.7308,1.7308,1.7273,1.6942,1.6409,1.6409,1.6186,1.5905,1.5905,1.6037,1.6165,1.6165,1.6165,1.6165,1.6165,1.6165,1.6242,1.6653,1.7083,1.7655,1.886,1.9768,2.0586,2.1473,2.1579,2.1486,2.1522,2.1522,2.1522,2.1522,2.1522,2.1522,2.1522,2.1522,2.1522,2.1522,2.1522,2.1522,2.1522,2.174,2.1909,2.1909,2.2139,2.2296,2.2296,2.2066,2.1909,2.1909,2.1667,2.1522,2.1522,2.1486,2.1486,2.1486,2.1486,2.1643,2.1909,2.1909,2.2042,2.2296,2.2296,2.2296,2.2296,2.2296,2.2296,0.1692,0.2121,0.2711,0.3609,0.4701,0.5905,0.7251,0.7794,0.856,1.0323,1.1633,1.2733,1.3678,1.4809,1.5936,1.6947,1.7774,1.8442,1.8892,1.8828,1.8764,1.8764,1.8495,1.8323,1.8323,1.8323,1.8536,1.9131,1.9309,1.9671,2.0255,2.0208,2.0143,2.011,1.9587,1.9133,1.8749,1.8293,1.7756,1.7193,1.6744,1.6921,1.7625,1.752,1.7414,1.7308,1.7308,1.7308,1.7283,1.6829,1.6509,1.6241,1.6083,1.5808,1.5479,1.5341,1.5119,1.4899,1.4553,1.4438,1.4438,1.4438,1.4661,1.4998,1.5429,1.6003,1.6797,1.8025,1.8936,1.9806,2.0924,2.1431,2.1696,2.1993,2.2066,2.2066,2.2066,2.2066,2.2066,2.2066,2.2066,2.2066,2.2066,2.2066,2.2066,2.2066,2.2127,2.2175,2.2175,2.2248,2.2296,2.2296,2.2236,2.2175,2.2175,2.2115,2.2066,2.2066,2.1807,2.1687,2.1764,2.1788,2.1909,2.2175,2.2175,2.2224,2.2296,2.2296,2.2296,2.2296,2.2296,2.2296,0.185,0.2294,0.2919,0.4051,0.5163,0.6511,0.8437,0.9214,0.9982,1.1635,1.2856,1.3846,1.4663,1.5749,1.6776,1.7571,1.8077,1.8495,1.8848,1.8591,1.8366,1.8366,1.8141,1.8001,1.8001,1.8092,1.8361,1.889,1.9179,1.9537,2.0,1.9958,1.9761,1.9413,1.8993,1.8433,1.7721,1.7369,1.6911,1.6275,1.5895,1.5966,1.6391,1.6391,1.6391,1.64,1.6477,1.6515,1.6489,1.6193,1.6003,1.5821,1.572,1.5354,1.4944,1.4821,1.4476,1.4091,1.3783,1.3706,1.3706,1.3706,1.3891,1.416,1.443,1.5045,1.5956,1.6988,1.7978,1.9012,2.021,2.0861,2.136,2.2109,2.2296,2.2296,2.2296,2.2296,2.2296,2.2296,2.2296,2.2296,2.2296,2.2296,2.2296,2.2296,2.2296,2.2296,2.2296,2.2296,2.2296,2.2296,2.2296,2.2296,2.2296,2.2147,2.2072,2.2072,2.151,2.1216,2.1314,2.1462,2.1656,2.181,2.181,2.181,2.181,2.181,2.181,2.181,2.181,2.1982,0.2042,0.2472,0.3055,0.4264,0.5452,0.6948,0.9395,1.0794,1.1811,1.2556,1.3665,1.4692,1.5306,1.6318,1.726,1.7872,1.7969,1.8141,1.8507,1.8173,1.7905,1.7905,1.784,1.7852,1.7874,1.8121,1.8415,1.8743,1.9004,1.9278,1.9564,1.9541,1.9122,1.8363,1.8258,1.7685,1.6628,1.6214,1.5824,1.5425,1.5044,1.4839,1.4803,1.4946,1.5026,1.5052,1.5218,1.5315,1.5359,1.5506,1.5475,1.5307,1.527,1.4876,1.4407,1.4322,1.4014,1.3628,1.359,1.359,1.359,1.359,1.359,1.359,1.3621,1.4199,1.4998,1.5842,1.6912,1.8063,1.9304,1.9908,2.0549,2.1773,2.2147,2.2259,2.2296,2.2296,2.2296,2.2296,2.2296,2.2296,2.2296,2.2296,2.2296,2.2296,2.2296,2.2296,2.2296,2.2296,2.2296,2.2296,2.2296,2.2296,2.2259,2.1885,2.1623,2.1585,2.0748,2.0248,2.0248,2.0721,2.0996,2.0996,2.0996,2.0996,2.0996,2.0996,2.0996,2.0996,2.1007,2.1333,0.2086,0.2751,0.3609,0.4763,0.6904,0.9012,0.9983,1.1379,1.2535,1.2887,1.4128,1.5273,1.5571,1.6594,1.7432,1.7594,1.7819,1.8033,1.8141,1.7582,1.7227,1.7227,1.6742,1.6621,1.7106,1.7203,1.7617,1.8585,1.8697,1.8968,1.9564,1.8993,1.8468,1.8002,1.7132,1.6391,1.5851,1.5186,1.4652,1.4252,1.386,1.3539,1.3325,1.4474,1.5096,1.5236,1.5271,1.5464,1.5753,1.546,1.5438,1.5455,1.4843,1.4522,1.4322,1.3628,1.332,1.3158,1.2888,1.2772,1.2772,1.2772,1.2772,1.2811,1.312,1.3351,1.3737,1.493,1.5659,1.6462,1.7987,1.8699,1.9229,2.0097,2.1086,2.1922,2.2221,2.2296,2.2296,2.2296,2.2296,2.2296,2.2296,2.2296,2.2296,2.2296,2.2296,2.2296,2.2296,2.2296,2.2296,2.2296,2.2296,2.2184,2.1847,2.1424,2.1037,2.0699,1.9606,1.9002,1.9002,1.9693,2.007,2.007,2.007,2.007,2.007,2.007,2.007,2.007,2.0293,2.049,0.2096,0.2914,0.4052,0.5785,0.7875,0.9628,1.0185,1.1624,1.2887,1.311,1.4201,1.5221,1.5642,1.6562,1.7271,1.7271,1.7389,1.7453,1.7303,1.685,1.6516,1.6516,1.6294,1.6285,1.6563,1.6969,1.7436,1.8022,1.8186,1.8432,1.8762,1.8037,1.7334,1.6805,1.6028,1.5248,1.4501,1.411,1.3761,1.3361,1.3146,1.3013,1.2944,1.389,1.4372,1.4507,1.4866,1.5125,1.5311,1.5215,1.5078,1.4976,1.4553,1.413,1.3706,1.3274,1.2965,1.2772,1.2579,1.2501,1.2501,1.2501,1.2501,1.254,1.2733,1.2965,1.3274,1.4122,1.4699,1.5352,1.6759,1.7293,1.7711,1.8699,2.0032,2.1124,2.1349,2.1585,2.1735,2.1735,2.1735,2.1735,2.1735,2.1735,2.1735,2.1735,2.1735,2.1735,2.1735,2.1735,2.1735,2.1735,2.1735,2.1548,2.1124,2.0511,1.9871,1.9294,1.812,1.7359,1.7169,1.7359,1.7854,1.8623,1.8661,1.8547,1.8357,1.8357,1.8407,1.8517,1.8665,1.9029,0.2085,0.3086,0.4542,0.6691,0.8374,0.9657,1.0243,1.1736,1.3075,1.3322,1.4179,1.5029,1.5575,1.6304,1.6839,1.6839,1.6839,1.6721,1.6461,1.6071,1.5811,1.5811,1.588,1.5962,1.6068,1.6766,1.7261,1.7337,1.7582,1.7685,1.7685,1.6875,1.6098,1.5425,1.4884,1.4137,1.3111,1.2968,1.2753,1.2502,1.2532,1.259,1.2751,1.3257,1.3529,1.3618,1.4241,1.4498,1.4538,1.472,1.4584,1.4284,1.4207,1.3744,1.3081,1.3004,1.2772,1.2501,1.2501,1.2501,1.2501,1.2501,1.2501,1.2501,1.2501,1.2733,1.3081,1.3474,1.3891,1.4422,1.5573,1.588,1.6148,1.7226,1.8547,1.9671,2.0021,2.0409,2.0684,2.0684,2.0684,2.0684,2.0684,2.0684,2.0684,2.0684,2.0684,2.0684,2.0684,2.0684,2.0684,2.0684,2.0684,2.0496,2.0021,1.9229,1.8471,1.774,1.6559,1.5735,1.5424,1.5047,1.5449,1.6821,1.6976,1.6852,1.6507,1.6543,1.6641,1.6793,1.6829,1.7372,0.2031,0.3495,0.5265,0.6626,0.8235,0.9715,1.0532,1.1915,1.3137,1.3635,1.4449,1.516,1.5482,1.5856,1.6136,1.6136,1.6136,1.6136,1.6071,1.5486,1.5062,1.5062,1.4723,1.4681,1.5116,1.5759,1.6316,1.6781,1.6856,1.6875,1.6875,1.5806,1.5061,1.4671,1.3646,1.286,1.2359,1.1671,1.1276,1.1247,1.1415,1.1553,1.1661,1.2569,1.3198,1.3499,1.3627,1.3725,1.3822,1.3845,1.386,1.3744,1.339,1.3197,1.3042,1.2695,1.254,1.2501,1.2501,1.2501,1.2501,1.2501,1.2501,1.2501,1.2501,1.254,1.2656,1.3081,1.3235,1.3467,1.4384,1.4653,1.4768,1.5267,1.5833,1.6712,1.8461,1.8888,1.8926,1.8926,1.8926,1.8926,1.8926,1.8926,1.8926,1.8926,1.8926,1.8926,1.8926,1.8926,1.8926,1.8926,1.8926,1.8774,1.8367,1.7588,1.694,1.6483,1.5305,1.4686,1.4719,1.4344,1.4295,1.463,1.5198,1.5476,1.5399,1.5547,1.5589,1.5614,1.5818,1.5965,0.2683,0.3877,0.5237,0.671,0.8232,0.9666,1.074,1.2155,1.3358,1.387,1.4519,1.5086,1.5453,1.5626,1.5724,1.5724,1.5518,1.5323,1.5127,1.466,1.4379,1.4497,1.4218,1.4172,1.4535,1.5068,1.5432,1.5443,1.5629,1.5664,1.5487,1.4386,1.3603,1.321,1.228,1.1606,1.1247,1.0887,1.0745,1.0784,1.0927,1.1071,1.1208,1.1644,1.2315,1.3188,1.3473,1.3639,1.3706,1.3706,1.3583,1.3351,1.3158,1.2965,1.2733,1.2579,1.2501,1.2501,1.2501,1.2501,1.2501,1.2501,1.2501,1.2501,1.2501,1.2501,1.254,1.2695,1.2772,1.2888,1.3505,1.366,1.3775,1.4199,1.443,1.4768,1.565,1.6606,1.7255,1.7255,1.7255,1.7255,1.7255,1.7255,1.7255,1.7255,1.7255,1.7255,1.7255,1.7255,1.7255,1.7255,1.7255,1.7102,1.6674,1.6206,1.5648,1.499,1.407,1.349,1.3324,1.2894,1.2689,1.2749,1.3995,1.4394,1.3919,1.3985,1.3905,1.3791,1.3863,1.4112,0.296,0.3886,0.4873,0.6475,0.8006,0.9483,1.0755,1.2269,1.3537,1.4039,1.4558,1.4996,1.53,1.5332,1.5332,1.5234,1.4964,1.467,1.431,1.3908,1.369,1.3913,1.3671,1.3545,1.3612,1.4109,1.428,1.3923,1.4137,1.4173,1.3923,1.2817,1.2072,1.1785,1.0881,1.0311,1.0023,0.998,1.0006,1.0093,1.0303,1.0533,1.0738,1.0847,1.1498,1.2529,1.3031,1.3312,1.339,1.339,1.3235,1.2965,1.2965,1.2772,1.2501,1.2501,1.2501,1.2501,1.2501,1.2501,1.2501,1.2501,1.2501,1.2501,1.2501,1.2501,1.2501,1.2501,1.2501,1.2579,1.2888,1.2965,1.3004,1.3312,1.339,1.3428,1.3667,1.4699,1.5573,1.5573,1.5573,1.5573,1.5573,1.5573,1.5573,1.5573,1.5573,1.559,1.5641,1.565,1.5666,1.567,1.5679,1.5562,1.5283,1.4868,1.4357,1.3759,1.3001,1.2441,1.2164,1.1841,1.1658,1.1729,1.2983,1.3319,1.2634,1.2674,1.2584,1.2408,1.2408,1.2624,0.228,0.3187,0.4257,0.5615,0.7361,0.9119,1.0586,1.2207,1.3555,1.417,1.4616,1.4898,1.4931,1.4931,1.4833,1.4506,1.4441,1.431,1.3973,1.3325,1.293,1.3143,1.271,1.2301,1.2043,1.2549,1.2753,1.2359,1.2359,1.2359,1.2316,1.1247,1.0599,1.0599,0.9446,0.8801,0.8801,0.8538,0.8509,0.8717,0.9104,0.9549,1.0053,1.0436,1.0901,1.1405,1.1837,1.2192,1.2579,1.2579,1.254,1.254,1.254,1.2501,1.2501,1.2501,1.2501,1.2501,1.2501,1.2501,1.2501,1.2501,1.2501,1.2501,1.2501,1.2501,1.2501,1.2501,1.2501,1.2501,1.254,1.254,1.254,1.2579,1.2579,1.2772,1.3551,1.3775,1.3814,1.3814,1.3814,1.3814,1.3814,1.3814,1.3814,1.3814,1.3814,1.3912,1.4078,1.41,1.4153,1.4303,1.4279,1.4279,1.4279,1.3488,1.3009,1.2969,1.2141,1.1726,1.1808,1.1814,1.1875,1.2086,1.2175,1.2107,1.1849,1.2066,1.2133,1.2098,1.2098,1.2146,0.1959,0.2759,0.3729,0.4905,0.6562,0.835,1.0003,1.1687,1.3127,1.3984,1.4571,1.4898,1.4898,1.4735,1.4539,1.4408,1.4048,1.363,1.326,1.2766,1.2414,1.221,1.1812,1.1399,1.1041,1.1214,1.1067,1.0383,1.0599,1.0599,1.0347,0.9699,0.9338,0.9338,0.8471,0.7888,0.7663,0.7682,0.7833,0.82,0.8413,0.8736,0.9246,0.963,1.0058,1.0486,1.1223,1.1727,1.2114,1.2385,1.2501,1.2501,1.2501,1.2501,1.2501,1.2501,1.2501,1.2501,1.2501,1.2501,1.2501,1.2501,1.2501,1.2501,1.2501,1.2501,1.2501,1.2501,1.2501,1.2501,1.2501,1.2501,1.2501,1.2501,1.2501,1.2606,1.2982,1.2997,1.2954,1.306,1.3081,1.3109,1.3214,1.3235,1.3235,1.3235,1.3235,1.3296,1.3352,1.3359,1.338,1.3429,1.3436,1.3436,1.3436,1.2956,1.2639,1.2639,1.1914,1.1494,1.1541,1.1251,1.115,1.1195,1.1195,1.1297,1.1541,1.1629,1.1486,1.1195,1.1195,1.1195,0.1689,0.2272,0.304,0.4067,0.5601,0.7284,0.9064,1.0766,1.2292,1.3393,1.4157,1.4619,1.4553,1.4366,1.4235,1.4235,1.3752,1.3235,1.2708,1.2338,1.197,1.1537,1.1055,1.0512,0.9964,0.9771,0.9374,0.8579,0.876,0.8796,0.8543,0.8145,0.7856,0.7747,0.727,0.6929,0.6761,0.6841,0.7079,0.7439,0.7458,0.772,0.8193,0.8583,0.9085,0.963,1.0641,1.1378,1.1921,1.2347,1.2501,1.2501,1.2501,1.2501,1.2501,1.2501,1.2501,1.2501,1.2501,1.2501,1.2501,1.2501,1.2501,1.2501,1.2501,1.2501,1.2501,1.2501,1.2535,1.2576,1.2576,1.2617,1.2657,1.2657,1.2657,1.2684,1.2786,1.2684,1.2623,1.2779,1.2807,1.284,1.2982,1.3003,1.3003,1.3003,1.3003,1.3016,1.3064,1.3071,1.3091,1.3146,1.3152,1.3071,1.2902,1.2581,1.2304,1.214,1.1523,1.1153,1.1153,1.0862,1.0695,1.0695,1.0695,1.0862,1.1153,1.1153,1.0987,1.0695,1.0695,1.0779,0.0,0.0,0.0,0.3138,0.443,0.5931,0.7732,0.949,1.1105,1.2314,1.3353,1.4033,1.3896,1.3866,1.3875,1.3875,1.3588,1.3137,1.2371,1.1975,1.1595,1.1118,1.0398,0.9602,0.8739,0.8285,0.7743,0.699,0.6954,0.6918,0.6918,0.6551,0.6152,0.5752,0.5826,0.5904,0.6015,0.6014,0.6087,0.6235,0.6235,0.647,0.6865,0.7291,0.7955,0.8856,1.0058,1.1068,1.1921,1.2347,1.2501,1.2501,1.2501,1.2501,1.2501,1.2501,1.2501,1.2501,1.2501,1.2501,1.2501,1.2501,1.2501,1.2501,1.2501,1.2501,1.2501,1.2501,1.261,1.2693,1.2693,1.2847,1.3003,1.3003,1.3003,1.3003,1.3009,1.2847,1.2786,1.2975,1.3009,1.3009,1.3016,1.3016,1.3016,1.3016,1.3016,1.3064,1.32,1.322,1.3275,1.3383,1.3403,1.3189,1.2733,1.2318,1.1861,1.1445,1.0945,1.0695,1.0695,1.0695,1.0695,1.0695,1.0695,1.0695,1.0695,1.0695,1.0695,1.0695,1.0695,1.0945,0.1039,0.0,0.0,0.0,0.0,0.0,0.0,0.8223,0.991,1.1434,1.2421,1.3161,1.3611,1.3479,1.336,1.3506,1.3235,1.2741,1.2041,1.1611,1.0985,0.9921,0.9199,0.8408,0.7487,0.6805,0.6224,0.0,0.5462,0.5317,0.5317,0.5244,0.4989,0.4589,0.4572,0.4484,0.4311,0.4328,0.4536,0.4944,0.4944,0.5299,0.5965,0.6431,0.7252,0.8345,0.9319,1.0408,1.1533,1.2192,1.2501,1.2501,1.2501,1.2501,1.2501,1.2501,1.2501,1.2501,1.2501,1.2501,1.2501,1.2501,1.2501,1.2501,1.2501,1.2501,1.2501,1.2501,1.261,1.272,1.2868,1.2969,1.3003,1.3003,1.3003,1.303,1.3132,1.3078,1.3064,1.3146,1.3152,1.3193,1.3261,1.3281,1.3281,1.3281,1.3281,1.3295,1.3336,1.3336,1.3356,1.3397,1.3106,1.2858,1.2692,1.2027,1.1528,1.1403,1.0945,1.0695,1.0695,1.0695,1.0695,1.0695,1.0695,1.0695,1.0695,1.0695,1.0695,1.0695,1.0695,1.0779,0.0872,0.1233,0.1648,0.1957,0.0,0.0,0.5269,0.6867,0.8445,0.0,1.1086,1.1973,1.2319,1.2497,1.2587,1.2532,1.2385,1.2194,1.1835,1.1446,1.0738,0.9465,0.8549,0.7613,0.652,0.5718,0.5069,0.4514,0.4301,0.4192,0.4192,0.4192,0.4083,0.3862,0.3893,0.3794,0.3593,0.3696,0.3899,0.4162,0.4162,0.4397,0.4865,0.5492,0.6349,0.7404,0.8613,0.9864,1.1068,1.1921,1.2347,1.2501,1.2501,1.2501,1.2501,1.2501,1.2501,1.2501,1.2501,1.2501,1.2501,1.2501,1.2501,1.2501,1.2501,1.2501,1.2515,1.2576,1.2752,1.2949,1.3105,1.3186,1.3186,1.3186,1.3186,1.3207,1.3247,1.3268,1.3268,1.3268,1.3268,1.3295,1.3383,1.3403,1.3403,1.3403,1.3403,1.3403,1.3403,1.3403,1.3403,1.3403,1.2982,1.265,1.2443,1.1819,1.132,1.1112,1.0862,1.0695,1.0695,1.0695,1.0695,1.0695,1.0695,1.0695,1.0695,1.0695,1.0695,1.0695,1.0695,1.0695,0.082,0.1128,0.0,0.0,0.0,0.0,0.4196,0.5491,0.6752,0.0,0.9415,1.0477,1.0436,1.1045,1.1431,1.1106,1.1239,1.1473,1.1691,1.1339,1.0632,0.9374,0.8248,0.7057,0.5746,0.492,0.4166,0.349,0.3389,0.3354,0.3354,0.3354,0.3354,0.3354,0.3437,0.3482,0.3482,0.3607,0.365,0.365,0.365,0.3689,0.3729,0.4473,0.5293,0.631,0.7872,0.9275,1.0525,1.1417,1.2037,1.2501,1.2501,1.2501,1.2501,1.2501,1.2501,1.2501,1.2501,1.2501,1.2501,1.2501,1.2501,1.2501,1.2501,1.2501,1.2535,1.2705,1.2956,1.3248,1.3363,1.3403,1.3403,1.3403,1.3403,1.3403,1.3403,1.3403,1.3403,1.3403,1.3403,1.3403,1.3403,1.3403,1.3403,1.3403,1.3403,1.3403,1.3403,1.3403,1.3403,1.3403,1.2982,1.2526,1.211,1.1653,1.1195,1.0737,1.0695,1.0695,1.0695,1.0695,1.0695,1.0695,1.0695,1.0695,1.0695,1.0695,1.0695,1.0695,1.0712,1.0717,0.0686,0.0,0.0,0.0,0.0,0.0,0.341,0.4212,0.5146,0.0,0.7348,0.8089,0.8669,0.9081,0.938,0.9503,0.9846,1.0317,1.1045,1.0709,1.0,0.8856,0.7554,0.6286,0.515,0.4201,0.3472,0.305,0.2717,0.2551,0.2551,0.2551,0.2551,0.2551,0.2615,0.265,0.265,0.2717,0.2749,0.2749,0.2749,0.2905,0.3258,0.3413,0.4314,0.576,0.6467,0.7872,0.9708,1.0525,1.1495,1.2501,1.2501,1.2501,1.2501,1.2501,1.2501,1.2501,1.2501,1.2501,1.2501,1.2501,1.2501,1.2501,1.2501,1.2501,1.2562,1.288,1.3077,1.3248,1.3363,1.3403,1.3403,1.3403,1.3403,1.3403,1.3403,1.3403,1.3403,1.3403,1.3403,1.3403,1.3403,1.3403,1.3403,1.3403,1.3403,1.3403,1.3403,1.3403,1.3403,1.3403,1.2982,1.2526,1.211,1.1653,1.1195,1.0737,1.0695,1.0695,1.0695,1.0695,1.0695,1.0695,1.0695,1.0695,1.0695,1.0695,1.0695,1.0695,1.0798,1.0842,0.0354,0.0,0.0,0.1566,0.0,0.0,0.0,0.342,0.4086,0.4899,0.5629,0.626,0.6644,0.6969,0.7304,0.7573,0.7987,0.8515,0.9081,0.9494,0.9356,0.8274,0.7124,0.593,0.4688,0.3808,0.3057,0.2372,0.1972,0.1733,0.1733,0.1744,0.1751,0.1751,0.1794,0.1817,0.1817,0.1863,0.1886,0.1886,0.1886,0.212,0.2512,0.2709,0.3493,0.4745,0.5606,0.7014,0.8852,0.9864,1.1068,1.2231,1.2424,1.2501,1.2501,1.2501,1.2501,1.2501,1.2501,1.2501,1.2501,1.2501,1.2501,1.2515,1.2589,1.2718,1.2868,1.3064,1.3214,1.3302,1.3383,1.3403,1.3403,1.3403,1.3403,1.3403,1.3403,1.3403,1.3403,1.3403,1.3403,1.3403,1.3403,1.3403,1.3403,1.3403,1.3403,1.3403,1.3403,1.3403,1.3403,1.3403,1.2982,1.2526,1.211,1.1653,1.1195,1.0737,1.0695,1.0695,1.0695,1.0695,1.0722,1.0787,1.0889,1.0922,1.0922,1.0922,1.0889,1.0787,1.0954,1.1009,0.0,0.0,0.0,0.0,0.0,0.2006,0.0,0.0,0.0,0.348,0.4083,0.0,0.0,0.0,0.0,0.0,0.0,0.0,0.0,0.7673,0.0,0.7548,0.6625,0.5541,0.4182,0.3407,0.2608,0.178,0.1377,0.121,0.1216,0.1193,0.1201,0.1204,0.1196,0.1211,0.1211,0.128,0.1296,0.1296,0.1296,0.1454,0.1807,0.22,0.2828,0.3611,0.4823,0.6271,0.7872,0.9197,1.0525,1.1727,1.2269,1.2501,1.2501,1.2501,1.2501,1.2501,1.2501,1.2501,1.2501,1.2501,1.2522,1.2576,1.2725,1.2963,1.3214,1.3214,1.3281,1.3403,1.3403,1.3403,1.3403,1.3403,1.3403,1.3403,1.3403,1.3403,1.3403,1.3403,1.3403,1.3403,1.3403,1.3403,1.3403,1.3403,1.3403,1.3403,1.3403,1.3403,1.3403,1.3403,1.3065,1.265,1.2152,1.1736,1.132,1.0737,1.0695,1.0706,1.0728,1.0755,1.0809,1.0954,1.1052,1.1101,1.1101,1.1123,1.1074,1.096,1.1079,1.1134,0.0,0.0,0.0,0.0,0.1333,0.0,0.0,0.0,0.2228,0.2505,0.0,0.0,0.0,0.0,0.0,0.0,0.0,0.0,0.4457,0.491,0.5586,0.6517,0.5804,0.4816,0.3682,0.2508,0.1775,0.1719,0.138,0.1186,0.1215,0.1183,0.119,0.1204,0.1196,0.1211,0.1211,0.128,0.1296,0.1296,0.1296,0.1336,0.1375,0.1768,0.22,0.271,0.4005,0.5296,0.6623,0.8262,0.9664,1.0874,1.2037,1.2501,1.2501,1.2501,1.2501,1.2501,1.2501,1.2501,1.2501,1.2501,1.2589,1.2693,1.2928,1.3084,1.3214,1.3214,1.3281,1.3403,1.3403,1.3403,1.3403,1.3403,1.3403,1.3403,1.3403,1.3403,1.3403,1.3403,1.3403,1.3403,1.3403,1.3403,1.3403,1.3403,1.3403,1.3403,1.3403,1.3403,1.3403,1.3403,1.3362,1.2982,1.2152,1.2069,1.1653,1.0779,1.0695,1.0744,1.0852,1.1003,1.1069,1.1079,1.1096,1.1101,1.1101,1.1204,1.1194,1.1085,1.1199,1.1297,0.0,0.0,0.0,0.0,0.0,0.0,0.1586,0.0,0.1794,0.0,0.0,0.0,0.0,0.0,0.0,0.0,0.2759,0.0,0.0,0.0,0.4277,0.0,0.0,0.0,0.3014,0.1922,0.1249,0.1308,0.0798,0.0507,0.0518,0.0495,0.0502,0.0505,0.0518,0.0489,0.0492,0.054,0.0546,0.055,0.055,0.0668,0.0903,0.106,0.1532,0.22,0.2946,0.416,0.5684,0.7361,0.8925,1.0369,1.165,1.2308,1.2501,1.2501,1.2501,1.2501,1.2501,1.2562,1.2651,1.2739,1.2868,1.2996,1.3105,1.3227,1.3302,1.3302,1.3349,1.3403,1.3403,1.3403,1.3403,1.3403,1.3403,1.3403,1.3403,1.3403,1.3403,1.3403,1.3403,1.3403,1.3403,1.3403,1.3403,1.3403,1.3403,1.3403,1.3403,1.3403,1.3403,1.3403,1.3403,1.3065,1.2152,1.211,1.173,1.0882,1.0911,1.0971,1.1025,1.1139,1.1199,1.1199,1.127,1.1352,1.1352,1.1401,1.1395,1.1308,1.1401,1.1423,-0.1843,0.0,0.0,0.0,0.0,0.0,0.0,0.0,0.0,0.0,0.0,0.0,0.0,0.0,0.0,0.0,0.0,0.2114,0.0,0.2535,0.0,0.0,0.0,0.0,0.0,0.151,0.0978,0.0966,0.0383,0.0,0.0,0.0,0.0,0.0,0.0,0.0,0.0,0.0,0.0,0.0,0.0,0.0157,0.0432,0.055,0.1021,0.1768,0.2278,0.3376,0.4944,0.6541,0.8159,0.9834,1.1122,1.1966,1.2467,1.2544,1.2589,1.263,1.263,1.2698,1.282,1.3009,1.3125,1.322,1.322,1.3315,1.3403,1.3403,1.3403,1.3403,1.3403,1.3403,1.3403,1.3403,1.3403,1.3403,1.3403,1.3403,1.3403,1.3403,1.3403,1.3403,1.3403,1.3403,1.3403,1.3403,1.3403,1.3403,1.3403,1.3403,1.3403,1.3403,1.3403,1.3065,1.2152,1.2105,1.1807,1.1002,1.1085,1.115,1.115,1.1259,1.1368,1.1368,1.1455,1.1499,1.1499,1.1499,1.1499,1.1499,1.1499,1.1499,0.0,0.0,0.0,-0.0304,0.0,0.0,0.0,0.0,0.0826,0.0,0.0,0.0,0.0,0.0,0.0,0.0444,0.0663,0.0,0.0,0.0,0.0,0.0,0.0,0.0,0.0,0.1256,0.0905,0.0,0.0337,0.0,0.0,0.0,0.0,0.0,0.0,0.0,0.0,0.0,0.0,0.0,0.0,0.0,0.0039,0.0432,0.0864,0.1375,0.216,0.322,0.4515,0.5805,0.7378,0.908,1.0391,1.1503,1.2322,1.2621,1.282,1.2989,1.2989,1.2989,1.3016,1.3159,1.3207,1.32,1.3349,1.3397,1.3403,1.3403,1.3403,1.3403,1.3403,1.3403,1.3403,1.3403,1.3403,1.3403,1.3403,1.3403,1.3403,1.3403,1.3403,1.3403,1.3403,1.3403,1.3403,1.3403,1.3403,1.3403,1.3403,1.3403,1.3403,1.3403,1.3403,1.3065,1.2152,1.2149,1.1901,1.1133,1.1204,1.1308,1.1308,1.1428,1.1494,1.1494,1.1499,1.1499,1.1499,1.1499,1.1499,1.1499,1.1499,1.1499,0.0,0.0,-0.2578,-0.1663,0.0,0.0,0.0,0.0,0.0,0.0,0.0,0.0,0.0,0.0,0.0412,0.0402,0.0636,0.0789,0.0,0.0,0.0,0.0,0.0,0.0,0.0,0.0,0.0,0.0574,0.0206,0.0,0.0,0.0,0.0,0.0,0.0,0.0,0.0,0.0,0.0,0.0,0.0,0.0,0.0,0.0157,0.0432,0.0864,0.1454,0.2239,0.3261,0.4868,0.6518,0.8256,0.9881,1.1275,1.2471,1.2775,1.2955,1.3016,1.3111,1.3139,1.3166,1.3275,1.3322,1.3336,1.3383,1.3403,1.3403,1.3403,1.3403,1.3403,1.3403,1.3403,1.3403,1.3403,1.3403,1.3403,1.3403,1.3403,1.3403,1.3403,1.3403,1.3403,1.3403,1.3403,1.3403,1.3403,1.3403,1.3403,1.3403,1.3403,1.3403,1.3403,1.3403,1.3063,1.2239,1.1806,1.1519,1.1253,1.1374,1.1439,1.1439,1.1477,1.1499,1.1499,1.1499,1.1499,1.1499,1.1499,1.1499,1.1499,1.1499,1.1499,-0.5511,-0.472,0.0,-0.3168,-0.2452,0.0,-0.1135,0.0,0.0,0.0,0.0,0.0,0.0,0.0,0.0,0.0102,0.0345,0.05,0.0,0.0481,0.0,0.0,0.0,0.0,0.0,0.0,0.0398,0.0412,0.0143,0.0,0.0,0.0,0.0,0.0,0.0,0.0,0.0,0.0,0.0,0.0,0.0,0.0,0.0,0.0,0.0236,0.0628,0.1099,0.1772,0.2649,0.4221,0.5854,0.7472,0.9273,1.0835,1.2209,1.2842,1.3111,1.3132,1.322,1.3254,1.3309,1.337,1.3403,1.3403,1.3403,1.3403,1.3403,1.3403,1.3403,1.3403,1.3403,1.3403,1.3403,1.3403,1.3403,1.3403,1.3403,1.3403,1.3403,1.3403,1.3403,1.3403,1.3403,1.3403,1.3403,1.3403,1.3403,1.3403,1.3403,1.3403,1.3424,1.3478,1.3485,1.3188,1.2441,1.1703,1.1335,1.1379,1.1455,1.1499,1.1499,1.1499,1.1499,1.1499,1.1499,1.1499,1.1499,1.1499,1.1499,1.1499,1.1499,1.1499]},{"header":{"parameterUnit":"m.s-1","parameterCategory":1,"la1":30.6,"la2":29.2853,"lo1":-89.7004,"lo2":-87.6739,"dy":0.0162,"dx":0.0183,"nx":112,"ny":82,"refTime":"2024-06-16T06:00:00:Z","depth":0,"parameterNumber":3,"parameterNumberName":"V-component_of_WINDS"},"data":[0.0,0.0,0.0,0.0,0.0,0.0,0.0,0.0,0.0,0.0,0.0,0.0,0.0,0.0,0.0,0.0,0.0,0.0,0.0,0.0,0.0,0.0,0.0,0.0,0.0,0.0,0.0,0.0,0.0,0.0,0.0,0.0,0.0,0.0,0.0,0.0,0.0,0.0,0.0,0.0,0.0,0.0,0.0,0.0,0.0,0.0,0.0,0.0,0.0,0.0,0.0,0.0,0.0,0.0,0.0,0.0,0.0,0.0,0.0,0.0,0.0,0.0,0.0,0.0,0.0,0.0,0.0,0.0,0.0,0.0,0.0,0.0,0.0,0.0,0.0,0.0,0.0,0.0,0.0,0.0,0.0,0.0,0.0,0.0,0.0,0.0,0.0,0.0,0.0,0.0,0.0,2.9272,3.2639,3.4584,3.4336,3.2994,3.0828,2.7824,0.0,0.0,0.0,0.0,0.0,0.0,0.0,0.0,0.0,0.0,0.0,0.0,0.0,0.0,0.0,0.0,0.0,0.0,0.0,0.0,0.0,0.0,0.0,0.0,0.0,0.0,0.0,0.0,0.0,0.0,0.0,0.0,0.0,0.0,0.0,0.0,0.0,0.0,0.0,0.0,0.0,0.0,0.0,0.0,0.0,0.0,0.0,0.0,0.0,0.0,0.0,0.0,0.0,0.0,0.0,0.0,0.0,0.0,0.0,0.0,0.0,0.0,0.0,0.0,0.0,0.0,0.0,0.0,0.0,0.0,0.0,0.0,0.0,0.0,0.0,0.0,0.0,0.0,0.0,0.0,0.0,0.0,0.0,0.0,0.0,0.0,0.0,0.0,0.0,0.0,0.0,0.0,0.0,0.0,0.0,0.0,0.0,0.0,0.0,0.0,0.0,0.0,0.0,0.0,2.6658,3.1482,3.4052,3.4934,3.366,3.2205,3.0083,2.7063,0.0,0.0,0.0,0.0,0.0,0.0,0.0,0.0,0.0,0.0,0.0,0.0,0.0,0.0,0.0,0.0,0.0,0.0,0.0,0.0,0.0,0.0,0.0,0.0,0.0,0.0,0.0,0.0,0.0,0.0,0.0,0.0,0.0,0.0,0.0,0.0,0.0,0.0,0.0,0.0,0.0,0.0,0.0,0.0,0.0,0.0,0.0,0.0,0.0,0.0,0.0,0.0,0.0,0.0,0.0,0.0,0.0,0.0,0.0,0.0,0.0,0.0,0.0,0.0,0.0,0.0,0.0,0.0,0.0,0.0,0.0,0.0,0.0,0.0,0.0,0.0,0.0,0.0,0.0,0.0,0.0,0.0,0.0,0.0,0.0,0.0,0.0,0.0,0.0,0.0,0.0,0.0,0.0,0.0,0.0,0.0,0.0,0.0,0.0,0.0,0.0,0.0,0.0,2.6879,2.9735,3.2807,3.468,3.5237,3.41,3.2655,3.0523,2.7494,2.4831,0.0,0.0,0.0,0.0,0.0,0.0,0.0,0.0,0.0,0.0,0.0,0.0,0.0,0.0,0.0,0.0,0.0,0.0,0.0,0.0,0.0,0.0,0.0,0.0,0.0,0.0,0.0,0.0,0.0,0.0,0.0,0.0,0.0,0.0,0.0,0.0,0.0,0.0,0.0,0.0,0.0,0.0,0.0,0.0,0.0,0.0,0.0,0.0,0.0,0.0,0.0,0.0,0.0,0.0,0.0,0.0,0.0,0.0,0.0,0.0,0.0,0.0,0.0,0.0,0.0,0.0,0.0,0.0,0.0,0.0,0.0,0.0,0.0,0.0,0.0,0.0,0.0,0.0,0.0,0.0,0.0,0.0,0.0,0.0,0.0,0.0,0.0,0.0,0.0,0.0,0.0,0.0,0.0,0.0,0.0,0.0,0.0,0.0,0.0,0.0,0.0,0.0,2.9886,3.2238,3.3631,3.5002,3.5382,3.4357,3.2913,3.076,2.7731,2.4755,0.0,0.0,0.0,0.0,0.0,0.0,0.0,0.0,0.0,0.0,0.0,0.0,0.0,0.0,0.0,0.0,0.0,0.0,0.0,0.0,0.0,0.0,0.0,0.0,0.0,0.0,0.0,0.0,0.0,0.0,0.0,0.0,0.0,0.0,0.0,0.0,0.0,0.0,0.0,0.0,0.0,0.0,0.0,0.0,0.0,0.0,0.0,0.0,0.0,0.0,0.0,0.0,0.0,0.0,0.0,0.0,0.0,0.0,0.0,0.0,0.0,0.0,0.0,0.0,0.0,0.0,0.0,0.0,0.0,0.0,0.0,0.0,0.0,0.0,0.0,0.0,0.0,0.0,0.0,0.0,0.0,0.0,0.0,0.0,0.0,0.0,0.0,0.0,0.0,0.0,0.0,0.0,0.0,0.0,0.0,0.0,0.0,0.0,0.0,0.0,0.0,0.0,2.9929,3.2305,3.384,3.5053,3.5211,3.3784,3.2198,2.9982,2.697,2.4019,0.0,0.0,0.0,0.0,0.0,0.0,0.0,0.0,0.0,0.0,0.0,0.0,0.0,0.0,0.0,0.0,0.0,0.0,0.0,0.0,0.0,0.0,0.0,0.0,0.0,0.0,0.0,0.0,0.0,0.0,0.0,0.0,0.0,0.0,0.0,0.0,0.0,0.0,0.0,0.0,0.0,0.0,0.0,0.0,0.0,0.0,0.0,0.0,0.0,0.0,0.0,0.0,0.0,0.0,0.0,0.0,0.0,0.0,0.0,0.0,0.0,0.0,0.0,0.0,0.0,0.0,0.0,0.0,0.0,0.0,0.0,0.0,0.0,0.0,0.0,0.0,0.0,0.0,0.0,0.0,0.0,0.0,0.0,0.0,0.0,0.0,0.0,0.0,0.0,0.0,0.0,0.0,0.0,0.0,0.0,0.0,0.0,0.0,0.0,0.0,0.0,0.0,3.0496,3.2775,0.0,3.558,3.5424,3.3747,3.221,2.9989,2.6911,0.0,0.0,0.0,0.0,0.0,0.0,0.0,0.0,0.0,0.0,0.0,0.0,0.0,0.0,0.0,0.0,0.0,0.0,0.0,0.0,0.0,0.0,0.0,0.0,0.0,0.0,0.0,0.0,0.0,0.0,0.0,0.0,0.0,0.0,0.0,0.0,0.0,0.0,0.0,0.0,0.0,0.0,0.0,0.0,0.0,0.0,0.0,0.0,0.0,0.0,0.0,0.0,0.0,0.0,0.0,0.0,0.0,0.0,0.0,0.0,0.0,0.0,0.0,0.0,0.0,0.0,0.0,0.0,0.0,0.0,0.0,0.0,0.0,0.0,0.0,0.0,0.0,0.0,0.0,0.0,0.0,0.0,0.0,0.0,0.0,0.0,0.0,0.0,0.0,0.0,0.0,0.0,0.0,0.0,0.0,0.0,0.0,0.0,0.0,0.0,0.0,0.0,2.8426,3.1123,3.3422,0.0,3.601,3.5656,3.3912,3.231,3.0088,2.6945,0.0,0.0,0.0,0.0,0.0,0.0,0.0,0.0,0.0,0.0,0.0,0.0,0.0,0.0,0.0,0.0,0.0,0.0,0.0,0.0,0.0,0.0,0.0,0.0,0.0,0.0,0.0,0.0,0.0,0.0,0.0,0.0,0.0,0.0,0.0,0.0,0.0,0.0,0.0,0.0,0.0,0.0,0.0,0.0,0.0,0.0,0.0,0.0,0.0,0.0,0.0,0.0,0.0,0.0,0.0,0.0,0.0,0.0,0.0,0.0,0.0,0.0,0.0,0.0,0.0,0.0,0.0,0.0,0.0,0.0,0.0,0.0,0.0,0.0,0.0,0.0,0.0,0.0,0.0,0.0,0.0,0.0,0.0,0.0,0.0,0.0,0.0,0.0,0.0,0.0,0.0,0.0,0.0,0.0,0.0,0.0,0.0,0.0,0.0,0.0,0.0,0.0,2.8718,3.1764,3.4226,3.5849,3.6297,3.5855,3.4234,3.2447,3.015,0.0,0.0,0.0,0.0,0.0,0.0,0.0,0.0,0.0,0.0,0.0,0.0,0.0,0.0,0.0,0.0,0.0,0.0,0.0,0.0,0.0,0.0,0.0,0.0,0.0,0.0,0.0,0.0,0.0,0.0,0.0,0.0,0.0,0.0,0.0,0.0,0.0,0.0,0.0,0.0,0.0,0.0,0.0,0.0,0.0,0.0,0.0,0.0,0.0,0.0,0.0,0.0,0.0,0.0,0.0,0.0,0.0,0.0,0.0,0.0,0.0,0.0,0.0,0.0,0.0,0.0,0.0,0.0,0.0,0.0,0.0,0.0,0.0,0.0,0.0,0.0,0.0,0.0,0.0,0.0,0.0,0.0,0.0,0.0,0.0,0.0,0.0,0.0,0.0,0.0,0.0,0.0,0.0,0.0,0.0,0.0,0.0,0.0,0.0,0.0,0.0,0.0,0.0,3.0363,3.2617,3.4606,3.6684,3.678,3.6226,3.4969,3.3259,3.094,2.7862,0.0,0.0,0.0,0.0,0.0,0.0,0.0,0.0,0.0,0.0,0.0,0.0,0.0,0.0,0.0,0.0,0.0,0.0,0.0,0.0,0.0,0.0,0.0,0.0,0.0,0.0,0.0,0.0,0.0,0.0,0.0,0.0,0.0,0.0,0.0,0.0,0.0,0.0,0.0,0.0,0.0,0.0,0.0,0.0,0.0,0.0,0.0,0.0,0.0,0.0,0.0,0.0,0.0,0.0,0.0,0.0,0.0,0.0,0.0,0.0,0.0,0.0,0.0,0.0,0.0,0.0,0.0,0.0,0.0,0.0,0.0,0.0,0.0,0.0,0.0,0.0,0.0,0.0,0.0,0.0,0.0,0.0,0.0,0.0,0.0,0.0,0.0,0.0,0.0,0.0,0.0,0.0,0.0,0.0,0.0,0.0,0.0,0.0,0.0,0.0,0.0,0.0,3.1181,3.3599,3.5678,3.765,3.7535,3.6901,3.5872,3.3869,3.1498,2.8733,0.0,0.0,0.0,0.0,0.0,0.0,0.0,0.0,0.0,0.0,0.0,0.0,0.0,0.0,0.0,0.0,0.0,0.0,0.0,0.0,0.0,0.0,0.0,0.0,0.0,0.0,0.0,0.0,0.0,0.0,0.0,0.0,0.0,0.0,0.0,0.0,0.0,0.0,0.0,0.0,0.0,0.0,0.0,0.0,0.0,0.0,0.0,0.0,0.0,0.0,0.0,0.0,0.0,0.0,0.0,0.0,0.0,0.0,0.0,0.0,0.0,0.0,0.0,0.0,0.0,0.0,0.0,0.0,0.0,0.0,0.0,0.0,0.0,0.0,0.0,0.0,0.0,0.0,0.0,0.0,0.0,0.0,0.0,0.0,0.0,0.0,0.0,0.0,0.0,0.0,0.0,0.0,0.0,0.0,0.0,0.0,0.0,0.0,0.0,0.0,0.0,0.0,3.1479,3.4676,3.7184,3.8576,3.8434,3.7867,3.6895,3.4555,3.212,2.9755,0.0,0.0,0.0,0.0,0.0,0.0,0.0,0.0,0.0,0.0,0.0,0.0,0.0,0.0,0.0,0.0,0.0,0.0,0.0,0.0,0.0,0.0,0.0,0.0,0.0,0.0,0.0,0.0,0.0,0.0,0.0,0.0,0.0,0.0,0.0,0.0,0.0,0.0,0.0,0.0,0.0,0.0,0.0,0.0,0.0,0.0,0.0,0.0,0.0,0.0,0.0,0.0,0.0,0.0,0.0,0.0,0.0,0.0,0.0,0.0,2.4035,0.0,0.0,0.0,0.0,0.0,0.0,0.0,0.0,0.0,0.0,0.0,0.0,0.0,0.0,0.0,0.0,0.0,0.0,0.0,0.0,0.0,0.0,0.0,0.0,0.0,0.0,0.0,0.0,0.0,0.0,0.0,0.0,0.0,0.0,0.0,0.0,0.0,0.0,0.0,0.0,0.0,3.2407,3.5636,3.7918,3.8777,3.9126,3.8843,3.781,3.6422,3.4377,3.1388,2.881,0.0,0.0,0.0,0.0,0.0,0.0,0.0,0.0,0.0,0.0,0.0,0.0,0.0,0.0,0.0,0.0,0.0,0.0,0.0,0.0,0.0,0.0,0.0,0.0,0.0,0.0,0.0,0.0,0.0,0.0,0.0,0.0,0.0,0.0,0.0,0.0,0.0,0.0,0.0,0.0,0.0,0.0,0.0,0.0,0.0,0.0,0.0,0.0,0.0,0.0,0.0,0.0,0.0,0.0,0.0,0.0,0.0,0.0,0.0,0.0,2.6278,0.0,0.0,0.0,0.0,0.0,0.0,0.0,0.0,0.0,0.0,0.0,0.0,0.0,0.0,0.0,0.0,0.0,0.0,0.0,0.0,0.0,0.0,0.0,0.0,0.0,0.0,0.0,0.0,0.0,0.0,0.0,0.0,0.0,0.0,0.0,0.0,0.0,0.0,0.0,0.0,3.3911,3.678,3.8959,4.0066,4.0253,4.0005,3.9294,3.7592,3.5654,3.3598,3.0847,0.0,0.0,0.0,0.0,0.0,0.0,0.0,0.0,0.0,0.0,0.0,0.0,0.0,0.0,0.0,0.0,0.0,0.0,0.0,0.0,0.0,0.0,0.0,0.0,0.0,0.0,0.0,0.0,0.0,0.0,0.0,0.0,0.0,0.0,0.0,0.0,0.0,0.0,0.0,0.0,0.0,0.0,0.0,0.0,0.0,0.0,0.0,0.0,0.0,0.0,0.0,0.0,0.0,3.4542,3.4677,3.4711,3.606,3.6634,3.6296,3.2575,3.0659,3.0083,2.9151,0.0,0.0,0.0,0.0,0.0,0.0,0.0,0.0,0.0,0.0,0.0,0.0,0.0,0.0,0.0,0.0,0.0,0.0,0.0,0.0,0.0,0.0,0.0,0.0,3.539,3.4978,3.1469,0.0,0.0,0.0,0.0,0.0,0.0,0.0,0.0,0.0,0.0,0.0,3.5539,3.8142,4.0185,4.1467,4.1421,4.1111,4.0686,3.8649,3.6875,3.5734,3.2995,3.035,0.0,0.0,0.0,0.0,0.0,0.0,0.0,0.0,0.0,0.0,0.0,0.0,0.0,0.0,0.0,0.0,0.0,0.0,0.0,0.0,0.0,0.0,0.0,0.0,0.0,0.0,0.0,0.0,0.0,0.0,0.0,0.0,2.2809,2.3714,0.0,0.0,0.0,0.0,0.0,0.0,0.0,0.0,0.0,0.0,0.0,0.0,0.0,3.4621,3.4969,3.6952,3.8046,3.8249,3.9568,4.0176,4.0197,4.1022,4.1056,4.0434,3.9825,0.0,3.463,3.3243,0.0,0.0,0.0,0.0,0.0,0.0,0.0,0.0,0.0,0.0,0.0,0.0,0.0,0.0,0.0,0.0,0.0,0.0,0.0,0.0,0.0,0.0,3.8178,3.8384,3.8643,3.8674,0.0,3.4866,3.1607,3.0109,2.8578,0.0,0.0,0.0,0.0,0.0,0.0,0.0,3.6568,3.9632,4.1641,4.1669,4.2102,4.2,4.1029,4.0345,3.9049,3.6846,3.5486,3.3417,3.0448,2.8518,0.0,0.0,0.0,0.0,0.0,0.0,0.0,0.0,0.0,0.0,0.0,0.0,0.0,0.0,0.0,0.0,0.0,0.0,0.0,0.0,0.0,0.0,0.0,0.0,0.0,0.0,0.0,0.0,0.0,2.3725,2.6076,2.6843,2.7576,2.7904,0.0,0.0,0.0,0.0,0.0,0.0,0.0,0.0,0.0,3.6095,3.7413,3.8698,3.9973,4.0954,4.1711,4.2164,4.2807,4.3112,4.3146,4.3876,4.4045,4.3741,4.3741,4.278,4.1022,3.7855,3.5667,3.428,0.0,0.0,0.0,0.0,3.3694,3.4449,3.5193,3.5509,3.545,3.4692,0.0,0.0,0.0,0.0,0.0,0.0,0.0,0.0,0.0,0.0,4.1938,4.2022,4.245,4.275,4.2314,4.0726,3.834,0.0,3.3175,3.2087,3.1201,0.0,0.0,0.0,0.0,3.6697,3.8976,4.0853,4.213,4.2505,4.2692,4.2478,4.1838,4.1156,4.0058,3.8354,3.7001,3.5178,3.2822,3.0671,2.8535,0.0,0.0,0.0,0.0,0.0,0.0,0.0,0.0,0.0,0.0,0.0,0.0,0.0,0.0,0.0,0.0,0.0,0.0,0.0,0.0,0.0,0.0,0.0,0.0,0.0,0.0,0.0,0.0,2.6691,2.884,2.9991,3.0615,3.1011,0.0,0.0,0.0,0.0,0.0,0.0,3.6614,3.7302,3.8621,4.0878,4.1521,4.2591,4.4234,4.464,4.5128,4.5717,4.592,4.6022,4.6022,4.6786,4.7022,4.6819,4.6819,4.6718,4.621,4.1914,3.9478,3.8408,3.7403,3.6693,3.6265,3.6828,3.7574,3.8379,3.9146,3.9469,3.9489,3.8775,3.7923,3.7079,3.662,0.0,0.0,0.0,0.0,4.024,4.1087,4.2956,4.4606,4.4663,4.5176,4.5515,4.4903,4.4766,4.3433,0.0,3.7398,3.6633,3.5544,0.0,0.0,0.0,0.0,3.8806,4.1033,4.195,4.2584,4.3142,4.3068,4.2833,4.2464,4.1772,4.0872,3.9816,3.8349,3.6731,3.4965,3.275,3.0731,2.8905,0.0,0.0,0.0,0.0,0.0,0.0,0.0,0.0,0.0,0.0,0.0,0.0,0.0,0.0,0.0,0.0,0.0,0.0,0.0,0.0,0.0,0.0,0.0,0.0,0.0,0.0,0.0,0.0,0.0,3.2926,3.321,0.0,0.0,0.0,0.0,3.5363,3.8036,3.9728,3.9872,4.1854,4.3085,4.322,4.5331,4.653,4.6631,4.8037,4.8748,4.8781,4.9492,4.9812,4.9846,5.0592,5.0525,4.988,4.988,4.9492,4.8545,4.4742,4.3118,4.2916,4.1461,4.0899,4.0865,4.0886,4.1511,4.2388,4.315,4.3502,4.3531,4.2898,4.1473,4.0008,4.02,4.0387,0.0,0.0,4.239,4.3773,4.403,4.4901,4.5727,4.5727,4.5801,4.5865,4.5838,4.5828,4.4793,0.0,4.0561,4.0042,3.8466,0.0,3.8437,3.9292,4.0215,4.1114,4.2029,4.2895,4.3383,4.3233,4.3114,4.2964,4.2619,4.2374,4.1854,4.0968,3.9801,3.8449,3.6841,3.4951,3.2835,3.0529,2.869,0.0,0.0,0.0,0.0,0.0,0.0,0.0,0.0,0.0,0.0,0.0,0.0,0.0,0.0,0.0,0.0,0.0,0.0,0.0,0.0,0.0,0.0,0.0,0.0,0.0,0.0,0.0,0.0,3.6175,3.6831,0.0,3.8048,3.8768,3.9398,3.9884,4.1339,4.2861,4.4316,4.5162,4.6244,4.7665,4.8511,4.9154,4.9627,5.0153,5.0423,5.0423,5.0787,5.0986,5.102,5.1419,5.1432,5.1175,5.1175,5.1039,5.0698,4.9369,4.7534,4.5534,4.4993,4.4284,4.3552,4.4041,4.4477,4.4968,4.5864,4.6213,4.6287,4.5849,4.5087,4.4422,4.46,4.4878,4.5135,4.5476,4.6434,4.7381,4.7531,4.8317,4.9028,4.9028,4.9048,4.8893,4.8389,4.8279,4.7599,4.5288,4.4024,4.31,4.2499,4.1969,4.1896,4.2718,4.311,4.3621,4.4481,4.4847,4.4994,4.4903,4.4318,4.3841,4.3592,4.2907,4.1893,4.0457,3.9807,3.8738,3.702,3.568,3.4114,3.2254,3.0554,2.881,0.0,0.0,0.0,0.0,0.0,0.0,0.0,0.0,0.0,0.0,0.0,0.0,0.0,0.0,0.0,0.0,0.0,0.0,0.0,0.0,0.0,0.0,0.0,0.0,0.0,0.0,3.6587,3.8731,3.9832,4.0678,4.1316,4.2275,4.3056,4.3532,4.4754,4.6112,4.764,4.8199,4.915,5.0644,5.09,5.1258,5.1751,5.2039,5.214,5.214,5.2269,5.2318,5.2368,5.2495,5.2575,5.2603,5.2603,5.2669,5.2716,5.2716,5.1256,4.8976,4.8345,4.7573,4.6914,4.7392,4.7735,4.8023,4.8495,4.8743,4.8786,4.8061,4.7757,4.7759,4.7906,4.8166,4.8417,4.8738,4.9226,4.9699,4.9838,5.0311,5.0802,5.0802,5.0802,5.0655,5.0115,5.0004,4.9601,4.8196,4.6645,4.5416,4.5077,4.4592,4.4399,4.4958,4.504,4.5242,4.5847,4.5883,4.5883,4.5828,4.4967,4.4316,4.4106,4.3169,4.2109,4.0913,4.0099,3.9135,3.7893,3.6661,3.5322,3.3906,3.2204,3.058,2.8999,0.0,0.0,0.0,0.0,0.0,0.0,0.0,0.0,0.0,0.0,0.0,0.0,0.0,0.0,0.0,0.0,0.0,0.0,0.0,0.0,0.0,0.0,0.0,3.4256,3.6229,3.8411,4.0614,4.2071,4.3168,4.3928,4.533,4.6184,4.6205,4.8255,4.9554,4.9588,5.1005,5.1841,5.189,5.2577,5.2937,5.2953,5.3671,5.4013,5.4013,5.4013,5.4013,5.4013,5.4029,5.4092,5.4219,5.4219,5.4333,5.451,5.451,5.4127,5.3284,5.1398,5.0784,5.095,5.095,5.1276,5.1584,5.1162,5.1149,5.116,4.9674,4.9496,4.987,4.9994,5.0195,5.0459,5.0634,5.0686,5.0706,5.0845,5.0875,5.0875,5.0875,5.0875,5.0875,5.0839,5.0839,5.0582,4.9784,4.8343,4.6938,4.6104,4.5957,4.5957,4.5957,4.5957,0.0,4.5957,4.5957,4.5957,4.5864,4.504,4.4398,4.4152,4.3215,4.2606,4.246,4.0804,3.9741,3.9529,3.7938,3.6561,3.5511,3.38,3.2151,3.0558,0.0,0.0,0.0,0.0,0.0,0.0,0.0,0.0,0.0,0.0,0.0,0.0,0.0,0.0,0.0,0.0,0.0,0.0,0.0,0.0,0.0,3.5856,3.7243,3.6986,3.8877,4.1256,4.3941,4.4582,4.5272,4.6399,4.7346,4.8077,4.8543,4.9622,5.0784,5.1912,5.2356,5.2898,5.3539,5.3745,5.393,5.4042,5.4248,5.4351,5.4351,5.4478,5.4507,5.4507,5.4667,5.4788,5.4942,5.4942,5.5033,5.5234,5.5234,5.5094,5.477,5.3237,5.2466,5.222,5.222,5.2563,5.3047,5.3025,5.3271,5.3544,5.3127,5.3231,5.3479,5.3013,5.3002,5.3036,5.2616,5.2475,5.2485,5.2543,5.2553,5.2553,5.2553,5.2553,5.237,5.1793,5.1693,5.1426,5.0618,5.0105,4.9324,4.7902,4.7645,4.7645,4.7645,4.7645,0.0,4.7645,4.7645,4.7636,4.7607,4.6835,4.6018,4.5404,4.4309,4.3185,4.2009,4.117,4.0479,3.987,3.9186,3.8335,3.7305,3.6086,3.4985,0.0,0.0,0.0,0.0,0.0,0.0,0.0,0.0,0.0,0.0,0.0,0.0,0.0,0.0,0.0,0.0,0.0,0.0,0.0,0.0,0.0,0.0,3.9258,4.0867,4.1142,4.2212,4.3698,4.5613,4.6664,4.752,4.819,4.9234,4.9985,5.0366,5.138,5.2379,5.326,5.3604,5.403,5.4539,5.4539,5.4617,5.4807,5.4807,5.4853,5.4915,5.4987,5.5033,5.5033,5.5199,5.5363,5.5496,5.5569,5.5686,5.5879,5.5879,5.5879,0.0,0.0,0.0,0.0,0.0,5.4611,5.4906,5.4717,5.4907,5.5158,5.4833,5.4906,5.5103,5.4686,5.4689,5.4715,5.4304,5.4216,5.4216,5.4216,5.3959,5.3691,5.3691,5.3434,5.3067,5.2601,5.2491,5.227,5.1463,5.1316,0.0,4.9581,4.9077,4.882,4.882,4.8526,4.8296,4.8296,4.8296,4.8296,4.8296,4.7532,4.6816,4.634,4.4998,0.0,0.0,0.0,4.0919,4.0064,3.9716,0.0,0.0,0.0,0.0,0.0,0.0,0.0,0.0,3.4721,3.5121,0.0,0.0,0.0,0.0,0.0,0.0,0.0,0.0,0.0,0.0,0.0,0.0,0.0,0.0,0.0,0.0,4.2593,4.4475,4.5721,4.5975,4.6223,4.6711,4.8517,4.9716,4.9776,5.1004,5.1827,5.1917,5.3186,5.3987,5.4072,0.0,0.0,0.0,0.0,5.5124,5.5289,5.5304,5.5393,5.5575,5.559,5.5604,5.5604,5.5714,5.5844,5.5972,5.6126,5.6278,5.6465,5.6478,5.6492,5.6424,5.5865,5.5793,5.6042,5.6519,5.676,5.676,5.6216,0.0,0.0,5.5557,5.5502,5.5674,5.5601,5.5643,5.5732,5.5622,5.5585,5.5585,5.5585,5.5071,5.4546,5.4546,5.3995,5.3434,5.3361,5.3324,5.3104,5.227,5.2134,5.1903,5.1206,5.0335,4.9711,4.9664,4.8967,4.8443,4.8443,4.837,4.8296,4.8296,0.0,0.0,4.7018,4.5531,4.4579,4.446,4.2937,4.1618,4.0709,4.0382,4.0162,4.0085,3.981,3.9879,4.0354,4.0308,4.0631,4.1287,3.9733,3.902,0.0,0.0,0.0,0.0,0.0,0.0,0.0,0.0,0.0,0.0,0.0,0.0,0.0,0.0,0.0,4.3934,4.6029,4.7582,4.7687,4.9401,5.0552,5.033,5.0677,5.1388,5.2486,5.2895,5.3261,5.373,5.4045,5.4501,5.5168,5.5343,5.5458,5.5561,5.5561,5.5634,5.5758,5.5922,5.6042,5.6071,0.0,0.0,5.6217,5.6245,5.6342,5.6478,5.6626,5.6737,5.6881,5.6984,5.7036,5.6997,5.6537,5.6505,5.6644,5.6959,5.7163,5.7301,5.7243,5.7364,5.7447,5.7312,5.7369,5.7375,5.6751,5.6542,0.0,5.5768,5.5585,5.5585,5.5585,5.5475,5.5365,5.5365,5.5254,5.495,5.4326,5.4179,5.3922,5.3104,5.2957,5.292,5.2774,5.1536,5.0545,5.0545,4.9858,4.9344,4.9344,4.871,4.8296,4.8296,4.814,4.78,4.713,4.6716,4.621,4.5543,4.5044,4.459,4.4318,4.4088,4.3914,4.3788,4.3333,4.3136,4.3115,4.2856,4.3142,4.391,4.2165,4.1676,0.0,0.0,0.0,0.0,0.0,0.0,0.0,0.0,0.0,0.0,0.0,4.1044,4.2665,0.0,4.6127,4.6744,4.8524,4.986,5.0127,5.155,5.2337,5.1592,5.2193,5.2887,5.352,5.3912,5.4232,5.4536,5.4874,5.5298,5.5671,5.5793,5.5865,5.5936,5.6007,5.612,5.6237,5.6355,5.6424,5.6492,5.664,5.6707,5.672,5.6816,5.692,5.6997,5.7138,5.7226,5.7301,5.7363,5.7388,5.7375,5.7176,5.7087,5.7185,5.7785,5.8092,5.8276,5.875,5.8969,5.904,5.8637,5.8562,5.8437,5.7629,5.7409,5.7336,5.6895,5.6796,5.6796,5.6796,5.6492,5.6198,5.6198,5.5879,5.5475,5.5108,5.4997,5.4766,5.3959,5.3801,5.3654,5.3287,5.2517,5.1867,5.1463,5.0739,5.0188,5.0188,4.949,4.894,4.894,4.8563,4.815,4.7746,4.7304,4.6671,4.5855,4.5697,4.5602,4.545,4.5312,4.5152,4.4942,4.4639,4.4722,4.5247,4.5009,4.5483,4.6637,4.5708,4.5221,0.0,0.0,0.0,0.0,0.0,0.0,0.0,3.9486,4.0573,4.329,4.4087,4.4956,4.7047,4.8232,4.8985,4.9345,5.073,5.1921,5.227,5.3169,5.3479,5.2622,5.3573,5.433,5.4389,5.4887,5.5174,5.5174,5.5729,5.607,5.607,5.6217,5.6336,5.6336,5.641,5.6546,5.668,5.672,5.6763,5.6907,5.7036,5.7112,5.7112,5.7326,5.7425,5.7437,5.7571,5.7631,5.7691,5.7691,5.7691,5.7691,5.7691,5.7595,5.7619,5.8349,5.8787,5.9115,5.9786,6.0188,6.0309,5.9636,5.9416,5.9306,5.8657,5.8364,5.8217,5.8217,5.8107,5.7997,5.7997,5.7519,5.7031,5.7031,5.6528,5.6025,5.5879,5.5842,5.5585,5.4803,5.462,5.4363,5.3581,5.3434,5.3141,5.2344,5.1536,5.1022,5.1022,5.0335,4.9821,4.9821,4.904,4.8489,4.8296,4.7709,4.7011,4.6322,4.6286,4.6248,4.6126,4.604,4.5976,4.5884,4.5703,4.6142,4.7181,4.7027,4.7648,4.8972,4.9088,4.8661,3.3496,3.4732,3.651,3.7438,3.9849,4.2058,0.0,4.4041,4.5888,4.6928,4.8279,4.9593,5.0572,5.2009,5.2759,5.2016,5.3231,5.4025,5.3277,5.46,5.5564,5.5418,5.5412,5.5682,5.6387,5.6518,5.6576,5.6576,5.6648,5.6684,5.6684,5.6733,5.6746,5.6746,5.676,5.6839,5.6933,5.7061,5.7188,5.7326,5.7461,5.7522,5.7522,5.7547,5.7559,5.7571,5.7739,5.7857,5.7962,5.7962,5.7962,5.7962,5.7962,5.795,5.7927,5.7943,5.8455,5.9209,5.9283,5.9771,6.037,6.0297,6.026,6.026,6.0162,5.9636,5.9086,5.9086,5.8535,5.7997,5.7997,5.7923,5.7886,5.7886,5.7813,5.7519,5.6811,5.6675,5.6418,5.5622,5.5475,5.5218,5.4399,5.4289,5.3995,5.3177,5.238,5.1877,5.1877,5.1169,5.0655,5.0655,4.9931,4.9123,4.8379,4.8223,4.8113,4.803,4.803,4.802,4.8011,4.7924,4.8181,4.8743,4.8534,4.8742,4.9359,4.9091,4.9436,5.0291,5.0903,5.0931,3.7846,3.9051,4.0389,4.2041,4.3727,4.5345,4.6768,4.7855,4.9075,5.085,5.1719,5.2431,5.3298,5.3999,5.4192,5.3416,5.4252,5.4857,5.4471,5.5366,5.626,5.6731,5.6642,5.6624,5.6871,5.6865,5.6812,5.6812,5.6812,5.6812,5.6812,5.6855,5.6933,5.7023,5.71,5.7201,5.7338,5.74,5.7449,5.751,5.7631,5.7739,5.7739,5.781,5.7845,5.7845,5.7904,5.795,5.7997,5.7997,5.7997,5.7997,5.7997,5.7997,5.807,5.844,5.9149,5.9967,6.0419,6.1104,6.1728,6.1263,6.108,6.1006,6.0529,6.015,5.9893,5.9893,5.9648,5.9391,5.9391,5.9061,5.8682,5.8682,5.8327,5.7923,5.7556,5.7483,5.7262,5.6455,5.6308,5.6051,5.5244,5.5108,5.484,5.4032,5.3225,5.2711,5.2711,5.2013,5.1316,5.0839,5.0508,5.0141,4.9774,4.9738,4.9738,4.9738,4.9797,4.9799,4.9799,4.9797,4.9874,5.0141,4.9888,5.0086,5.0683,5.0549,5.1117,5.2306,5.2582,5.3119,4.1617,4.2817,4.399,4.6243,4.7493,4.8677,5.0644,5.1282,5.1994,5.3988,5.4229,5.4397,5.5278,5.5265,5.4863,5.4197,5.4916,5.5514,5.5295,5.6041,5.6794,5.7376,5.7363,5.7264,5.7163,5.6997,5.6943,5.6946,5.6982,5.6972,5.701,5.71,5.7201,5.7301,5.74,5.751,5.7631,5.7679,5.7655,5.7691,5.7822,5.7869,5.7869,5.7962,5.7997,5.7997,5.7997,5.7997,5.7997,5.7997,5.7997,5.7997,5.7997,5.7997,5.807,5.8646,5.938,6.0187,6.1006,6.1814,6.2389,6.2034,6.1924,6.1814,6.1251,6.0896,6.075,6.075,6.0566,6.0419,6.0419,5.9967,5.9538,5.9574,5.8961,5.8396,5.843,5.8283,5.7952,5.7364,5.7254,5.6996,5.6187,5.6051,5.5757,5.4937,5.4128,5.3508,5.3261,5.2711,5.2013,5.1206,5.1132,5.1059,5.0839,5.0802,5.0802,5.0802,5.0865,5.0898,5.0898,5.0927,5.1018,5.1206,5.1008,5.135,5.2255,5.2204,5.284,5.4163,5.4346,5.505,4.4186,4.5754,4.7314,4.959,5.123,5.2552,5.3385,5.4241,5.5086,5.5934,5.5593,5.5454,5.6374,5.591,5.5139,5.4393,5.5561,5.6298,5.5505,5.6644,5.7583,5.7583,5.7583,5.7571,5.7571,5.7338,5.7226,5.7363,5.7375,5.7425,5.7559,5.7571,5.7571,5.7571,5.7583,5.7643,5.781,5.781,5.7869,5.7985,5.7997,5.7997,5.7997,5.7997,5.7997,5.7997,5.7997,5.7997,5.7997,5.7997,5.7997,5.7997,5.7997,5.7997,5.7997,5.8033,5.8535,5.9343,6.015,6.097,6.1741,6.2499,6.2756,6.2756,6.2719,6.2181,6.1557,6.1557,6.1006,6.0419,6.0419,6.0382,6.0418,6.0512,5.9958,5.9391,5.9504,5.8947,5.8382,5.8345,5.8345,5.8087,5.7274,5.7163,5.6868,5.5992,5.518,5.4285,5.3319,5.3177,5.2847,5.206,5.195,5.1657,5.0875,5.0802,5.0802,5.0802,5.0865,5.0898,5.0898,5.1005,5.1469,5.2252,5.2252,5.2967,5.4402,5.4402,5.4801,5.5559,5.6195,5.653,4.6954,4.8873,5.0487,5.1664,5.3086,5.4373,5.5184,5.5243,5.5385,5.628,5.591,5.557,5.6025,5.5965,5.5571,5.4882,5.5623,5.6155,5.5785,5.6492,5.7211,5.769,5.7643,5.7583,5.7583,5.751,0.0,5.7522,5.7522,5.7534,5.7583,5.7583,5.7619,5.7751,5.7714,5.781,5.7939,5.7939,5.7962,5.7997,5.7997,5.7997,5.7997,5.7997,5.7997,5.7997,5.7997,5.7997,5.7997,5.7997,5.7997,5.7997,5.7997,5.7997,5.7997,5.7997,5.818,5.851,5.9306,6.0493,6.163,6.1924,6.2352,6.2793,6.2793,6.2609,6.2401,6.2401,6.2279,6.2132,6.2132,6.1787,6.1465,6.1511,6.0896,6.0353,6.0387,5.9771,5.9206,5.9206,5.8762,5.8319,5.8024,5.7987,5.7728,5.6879,5.5596,5.4384,5.349,5.3406,5.3306,5.3011,5.3011,5.29,5.2605,5.2605,5.2605,5.2605,5.2705,5.2754,5.2754,5.2794,5.2961,5.321,5.3669,5.4135,5.4611,5.5165,5.5855,5.6671,5.6875,5.7258,4.9476,5.1263,5.269,5.3865,5.4631,5.5278,5.6138,5.5831,5.5446,5.5812,5.5342,5.4849,5.4815,5.46,5.4427,5.4298,5.4883,5.5508,5.5969,5.6535,5.7158,5.7852,5.7834,5.7726,5.7726,5.7726,0.0,5.7691,5.7655,5.7679,5.7751,5.7726,5.7798,5.7881,5.7881,5.7916,5.7997,5.7997,5.7997,5.7997,5.7997,5.7997,5.7997,5.7997,5.7997,5.7997,5.7997,5.7997,5.7997,5.7997,5.7997,5.7997,5.7997,5.7997,5.7997,5.7997,5.7997,5.8107,5.8902,5.9893,6.086,6.141,6.1961,6.2426,6.2719,6.2793,6.2805,6.2855,6.2929,6.3014,6.3063,6.2766,6.2442,6.2489,6.1909,6.1328,6.1362,6.0744,6.0078,5.9782,5.9301,5.8846,5.855,5.8513,5.8217,5.7439,5.6376,5.5283,5.4092,5.3934,5.3823,5.3528,5.3491,5.3491,5.3491,5.3491,5.3491,5.3491,5.3913,5.4111,5.4111,5.4447,5.4615,5.4615,5.5037,5.5414,5.571,5.6228,5.6895,5.7735,5.7989,5.8422,5.1695,5.2944,5.3928,5.6038,5.59,5.5489,5.6298,5.5973,5.5309,5.459,5.3963,5.3358,5.2768,5.2105,5.1911,5.2764,5.3491,5.4466,5.5931,5.6673,5.7342,5.8116,5.8077,5.7997,5.7997,5.7997,0.0,5.7834,0.0,5.7869,5.7997,5.7997,5.7997,5.7997,5.8008,5.8008,5.7997,5.8033,5.807,5.807,5.8107,5.8107,5.8107,5.8107,5.8107,5.8107,5.807,5.807,5.807,5.8033,5.7997,5.7997,5.7997,5.7997,5.7997,5.7997,5.8008,5.8118,5.8877,5.9159,5.9465,6.1055,6.1581,6.1765,6.2597,6.2818,6.2842,6.2978,6.3014,6.3051,6.3171,6.3231,6.323,6.3359,6.2838,6.2316,6.2417,6.1808,6.1028,6.0173,5.995,5.9653,5.8873,5.8725,5.8427,5.7685,5.7573,5.6881,5.501,5.4767,5.4498,5.3723,5.3649,5.3649,5.3649,5.3649,5.3649,5.3649,5.4479,5.4973,5.4973,5.5815,5.632,5.632,5.6357,5.6729,5.7509,5.7546,5.7982,5.8762,5.9472,5.9837,5.2949,5.432,5.5344,5.582,5.6206,5.6217,5.5311,5.458,5.3783,5.2624,5.1863,5.1191,5.0535,5.0839,5.1224,5.1419,5.2465,5.3755,5.5163,5.5862,5.6714,5.8042,5.8077,5.7997,5.7997,5.7997,0.0,0.0,5.795,5.7962,5.7997,5.7997,5.7997,5.7997,5.8088,5.8088,5.7997,5.8572,5.8902,5.8902,5.949,5.9795,5.9795,5.9795,5.9795,5.9758,5.9159,5.8902,5.8866,5.8253,5.7997,5.7997,5.7997,5.7997,5.7997,5.7997,5.8054,5.817,5.8391,5.8869,5.9532,6.0537,6.1332,6.2055,6.2866,6.3087,6.3087,6.3123,6.3218,6.3301,6.3324,6.3431,6.3511,6.3545,6.3397,6.326,6.3293,6.2662,6.203,6.1808,6.073,5.9839,5.9616,5.9096,5.8613,5.8427,5.839,5.7786,5.6102,5.5906,5.5795,5.5609,5.5572,5.5572,5.5572,5.5572,5.5572,5.5572,5.5815,5.5936,5.5936,5.6152,5.632,5.632,5.6878,5.7286,5.7509,5.8093,5.8799,5.9616,5.977,6.0215,5.4474,5.5741,5.6613,5.6462,5.6515,5.6213,5.4669,5.3496,5.226,5.053,4.961,4.8813,4.7761,4.8321,4.9153,4.9759,5.1079,5.2669,5.4419,5.5434,5.642,5.7567,5.7879,5.7997,5.7997,5.7997,5.802,0.0,5.8031,5.802,5.8077,5.8077,5.8099,5.8156,5.826,5.8385,5.8603,5.9069,5.9438,5.9747,6.0187,6.0419,6.0419,6.0419,6.0419,6.0382,0.0,5.9526,5.9148,5.8719,5.8327,5.7997,5.7997,5.7997,5.7997,5.7997,5.8077,5.8179,5.8179,5.8541,5.9146,5.9902,6.0748,6.1632,6.2444,6.2924,6.3194,6.3254,6.3324,6.3394,6.3488,6.3545,6.359,6.359,6.359,6.359,6.359,6.3256,6.281,6.2476,6.1362,6.047,6.047,5.9765,5.9245,5.9245,5.8947,5.8353,5.7472,5.7063,5.6692,5.6357,5.632,5.632,5.632,5.632,5.632,5.632,5.6617,5.684,5.684,5.7175,5.736,5.736,5.7796,5.8019,5.8019,5.8836,5.9467,5.9913,6.0656,6.125,5.5888,5.694,5.7595,5.7357,5.6705,5.5638,5.3961,5.2324,5.0546,4.8376,4.7325,4.6328,4.4948,4.551,4.66,4.7967,4.9663,5.1542,5.3641,5.5208,5.6387,5.7048,5.7663,5.8042,5.8042,5.8042,5.8088,5.8238,5.8111,5.8099,5.8238,5.8249,5.8294,5.8415,5.8515,5.8829,5.9428,5.9626,6.001,6.059,6.07,6.0737,6.0761,6.0761,6.0749,6.0737,6.0627,6.0137,5.9343,5.9233,5.8719,5.7997,5.7997,5.7997,5.8008,5.802,5.8099,5.8249,5.8223,5.8367,5.864,5.9383,6.01,6.0851,6.1752,6.2528,6.3143,6.337,6.3442,6.3465,6.3568,6.359,6.359,6.359,6.359,6.359,6.359,6.359,6.3405,6.2699,6.1919,6.1373,6.1373,6.0619,6.0025,5.9913,5.9319,5.8836,5.8725,5.8093,5.7398,5.6692,5.6617,5.6617,5.6617,5.6617,5.6617,5.6617,5.7286,5.7658,5.7658,5.8316,5.8687,5.8687,5.8799,5.8873,5.8873,5.969,6.0136,6.0285,6.1733,6.2439,5.6285,5.7116,5.7602,5.6987,5.6164,5.4834,5.2049,5.0131,4.83,4.6051,4.4942,4.4138,4.327,4.4347,4.5673,4.6455,4.9015,5.1433,5.298,5.4904,5.6462,5.7175,5.7898,5.8338,5.8338,5.8338,0.0,0.0,5.8349,5.8338,5.836,5.836,5.8415,5.8486,5.9076,5.9464,5.9553,6.0766,6.1444,6.1567,6.223,6.2621,6.2717,6.2717,6.2657,6.2524,6.1862,0.0,6.015,5.949,5.8719,5.7997,5.7997,5.7997,5.8008,5.8111,5.826,5.8382,5.8432,5.8551,5.8794,5.954,5.9895,6.0342,6.1864,6.242,6.268,6.3371,6.3557,6.3568,6.3579,6.359,6.359,6.359,6.359,6.359,6.359,6.359,6.3553,6.3405,6.2736,6.2179,6.2179,6.151,6.073,6.0025,5.9765,5.9467,5.8799,5.8576,5.8427,5.8316,5.8279,5.8279,5.8279,5.8279,5.8279,5.8279,5.839,5.8502,5.8502,5.8613,5.8687,5.8687,5.9356,5.969,5.969,6.0545,6.1336,6.1956,6.2253,6.2773,5.6651,5.7504,5.7962,5.7178,5.635,5.4893,5.1817,4.9466,4.7163,4.4407,4.2865,4.1751,4.0984,4.1804,4.3111,4.4668,4.7179,4.9626,5.1498,5.3653,5.546,5.6584,5.736,5.7978,5.8367,5.8393,5.8415,5.8443,5.8443,5.8443,5.8443,5.8497,5.8551,5.8614,5.934,5.9952,6.0304,6.1456,6.2174,6.2546,6.2915,6.3123,6.3183,6.3183,6.3147,6.3062,6.2693,6.181,6.0584,6.0179,5.9331,5.8227,5.8227,5.8227,5.8238,5.8294,5.8382,5.8454,5.8497,5.8593,5.8751,5.9107,5.9536,6.0136,6.1399,6.2068,6.255,6.3368,6.359,6.359,6.359,6.359,6.359,6.359,6.359,6.359,6.359,6.359,6.359,6.359,6.3293,6.3033,6.3033,6.2365,6.1659,6.125,6.0842,6.0433,6.0062,5.9616,5.917,5.8725,5.8687,5.8687,5.8687,5.8687,5.8687,5.8687,5.8687,5.8687,5.8687,5.9096,5.9319,5.9319,6.0136,6.0582,6.0582,6.1399,6.2041,6.2402,6.281,6.3219,5.693,5.7702,5.8092,5.7418,5.6404,5.4716,5.1553,4.8863,4.6134,4.2929,4.1086,3.9823,3.8976,3.9587,4.0955,4.3129,4.559,4.8074,5.0364,5.2669,5.4643,5.6131,5.6932,0.0,5.8439,5.848,0.0,5.8551,5.8524,5.8524,5.8524,5.8646,5.8687,5.8687,5.9653,6.0454,6.0974,6.1974,6.2706,6.323,6.323,6.3279,6.3302,6.3302,6.3254,6.323,6.323,6.2294,6.0805,6.0805,5.9845,5.8393,5.8393,5.8393,5.8404,5.8426,5.8443,5.8492,5.8513,5.8614,5.8687,5.8687,5.9133,5.9839,6.0879,6.1622,6.2328,6.333,6.359,6.359,6.359,6.359,6.359,6.359,6.359,6.359,6.359,6.359,6.359,6.359,6.359,6.359,6.359,6.307,6.2588,6.2439,6.1845,6.141,6.1224,6.0582,5.995,5.9282,5.891,5.8687,5.8687,5.8873,5.8947,5.8947,5.9133,5.9245,5.9245,5.9839,6.0173,6.0173,6.1028,6.1473,6.1473,6.2253,6.2662,6.2662,6.3293,6.359,5.7051,5.7469,5.7499,5.7484,5.5705,5.3172,5.0036,4.7373,4.4643,4.1298,3.9928,3.9029,3.8187,3.9257,4.0849,4.253,4.5449,4.8281,5.064,5.293,5.4923,5.6481,5.7199,0.0,5.8774,5.8756,5.8667,5.8677,5.8677,5.8677,5.8677,5.8687,5.8687,5.8687,6.0248,6.1047,6.1011,6.253,6.3308,6.337,6.337,6.3454,6.3557,6.3557,6.35,6.337,6.337,6.2387,0.0,6.0805,5.9845,5.8393,5.8393,5.8393,5.8404,5.8465,5.8471,5.854,5.8635,5.8677,5.8687,5.8687,5.8762,5.9096,6.0704,6.125,6.1633,6.3182,6.359,6.359,6.359,6.359,6.359,6.359,6.359,6.359,6.359,6.359,6.359,6.359,6.359,6.359,6.359,6.3553,6.3256,6.2513,6.2328,6.203,6.1298,6.115,6.1038,6.1001,5.9616,5.8687,5.8687,5.9356,5.9802,5.9802,6.0508,6.0953,6.0953,6.1038,6.1076,6.1076,6.1882,6.229,6.229,6.3108,6.3479,6.3479,6.3553,6.359,5.5887,5.667,5.6905,5.6361,5.4753,5.2432,4.9227,4.6161,4.3217,4.0383,3.8737,3.7672,3.7278,3.8136,3.9584,4.1695,4.4379,4.7196,5.0067,5.2022,5.4129,5.6634,5.7049,5.7594,0.0,0.0,5.8797,5.8698,5.8687,5.8656,5.8593,5.8656,5.8687,5.8687,6.0333,6.1165,6.1111,6.2706,6.3522,6.3522,6.3522,6.3545,6.359,6.359,6.3568,6.3522,6.3522,6.2572,0.0,6.1044,6.0081,5.8598,5.8598,5.8598,5.8561,5.8604,5.8625,5.8635,5.8677,5.8687,5.8762,5.9245,5.943,5.9653,6.0842,6.1558,6.2142,6.3293,6.359,6.359,6.359,6.3256,6.2773,6.2253,6.2142,6.2142,6.2142,6.255,6.2885,6.2885,6.3256,6.359,6.359,6.359,6.3479,6.3182,6.3108,6.2996,6.2699,6.2216,6.1919,6.1919,6.0879,6.021,6.021,6.0508,6.0693,6.0693,6.1001,6.1187,6.1187,6.1659,6.1919,6.1919,6.2699,6.3108,6.3108,6.3442,6.359,6.359,6.359,6.359,5.4383,5.5314,5.5675,5.5222,5.3705,5.1478,4.8453,4.5372,4.2381,3.9646,3.7947,3.6835,3.6482,3.7287,3.8738,4.0952,4.3575,4.6467,4.9736,5.1483,5.3639,5.6833,0.0,5.7459,0.0,5.8962,5.8848,5.8698,5.8656,5.8604,5.8529,5.8593,5.8635,5.8635,6.0279,6.1154,6.1187,6.281,6.359,6.359,6.359,6.359,6.359,6.359,6.359,6.359,6.359,6.2699,0.0,6.1187,6.0221,5.8687,5.8687,5.8687,5.8687,5.8687,5.8687,5.8687,5.8687,5.8873,5.9133,5.9728,6.0248,6.073,6.1362,6.1956,6.255,6.3368,6.359,6.359,6.359,6.3182,6.2625,6.203,6.1919,6.1919,6.1919,6.2328,6.2736,6.2736,6.3219,6.359,6.359,6.359,6.359,6.359,6.359,6.359,6.359,6.3108,6.2736,6.2736,6.2253,6.1707,6.1261,6.141,6.1548,6.1548,6.1781,6.1919,6.1919,6.2439,6.2736,6.2736,6.3293,6.359,6.359,6.359,6.359,6.359,6.359,6.359,5.2742,5.3365,5.3523,5.4308,5.2632,5.0147,4.7596,4.5085,4.2366,3.9,3.7625,3.674,3.5865,3.702,3.8649,4.0342,4.3316,4.6569,4.9942,5.168,5.3809,0.0,0.0,5.769,5.9158,5.9041,5.8848,5.8698,5.8582,0.0,5.8481,5.8481,5.8492,5.8492,6.0122,6.1067,6.1187,6.281,6.359,6.359,6.359,6.359,6.359,6.359,6.359,6.359,6.359,6.2699,0.0,6.1187,6.0221,5.8687,5.8687,5.8687,5.8687,5.8687,5.8687,5.8687,5.8687,5.9207,5.9876,5.9913,6.1028,6.2365,6.2365,6.2402,6.255,6.3368,6.359,6.359,6.359,6.359,6.359,6.359,6.359,6.359,6.359,6.359,6.359,6.359,6.359,6.359,6.359,6.359,6.359,6.359,6.359,6.359,6.359,6.359,6.359,6.359,6.359,6.2922,6.1325,6.193,6.2402,6.2402,6.3145,6.359,6.359,6.359,6.359,6.359,6.359,6.359,6.359,6.359,6.359,6.359,6.359,6.359,4.9595,5.0896,5.1656,5.1297,4.9768,4.784,4.5852,4.3063,4.0384,3.8708,3.7218,3.626,3.6537,3.7484,3.8979,4.1203,4.3829,4.6767,5.0115,5.2373,0.0,5.7409,5.8361,5.8907,0.0,0.0,5.8818,5.8593,5.8503,5.8454,5.8301,5.8367,5.8443,5.8519,6.0198,6.1143,6.1187,6.281,6.359,6.359,6.359,6.359,6.359,6.359,6.359,6.359,6.359,6.2699,6.1187,6.1187,6.0221,5.8687,5.8687,5.8687,5.8687,5.8687,5.8687,5.8762,5.9319,5.969,6.0099,6.125,6.1956,6.2513,6.3033,6.3219,6.3256,6.3516,6.359,6.3479,6.2922,6.2773,6.2625,6.2105,6.1967,6.1967,6.1967,6.2402,6.2773,6.2773,6.3219,6.359,6.359,6.359,6.359,6.359,6.359,6.359,6.359,6.359,6.359,6.359,6.359,6.3405,6.2885,6.307,6.3219,6.3219,6.3442,6.359,6.359,6.359,6.359,6.359,6.359,6.359,6.359,6.359,6.359,6.359,6.359,6.359,4.5996,4.7898,4.9018,4.8493,4.7301,4.5852,4.4182,4.1683,3.9411,3.8186,3.6815,3.6099,3.6936,3.8056,3.9641,4.2149,4.4918,4.7917,5.1267,5.3527,0.0,5.8441,0.0,0.0,0.0,5.9238,5.8811,5.8503,5.8486,5.8378,5.819,5.8338,5.8426,5.8454,6.0203,6.1143,6.1187,6.281,6.359,6.359,6.359,6.359,6.359,6.359,6.359,6.359,6.359,6.2699,0.0,6.1187,6.0221,5.8687,5.8687,5.8687,5.8725,5.9022,5.9133,5.9282,6.0099,6.0582,6.1028,6.2068,6.2625,6.2959,6.3442,6.359,6.359,6.359,6.359,6.3479,6.2959,6.2848,6.2736,6.2216,6.2105,6.2105,6.2105,6.2513,6.2848,6.2848,6.3256,6.359,6.359,6.359,6.359,6.359,6.359,6.359,6.359,6.359,6.359,6.359,6.359,6.359,6.359,6.359,6.359,6.359,6.359,6.359,6.359,6.359,6.359,6.359,6.359,6.359,6.359,6.359,6.359,6.359,6.359,6.359,0.0,4.4414,4.5821,4.5821,4.5163,4.4119,4.2576,4.0883,0.0,3.7524,3.6544,3.6264,3.7202,3.8682,4.0667,4.3278,4.6413,4.9691,5.3023,5.5105,0.0,0.0,6.0837,0.0,6.0642,5.9645,5.8845,5.854,5.8448,5.8338,5.8227,5.8338,5.8404,5.8404,6.0041,6.1003,6.1187,6.2736,6.3553,6.359,6.359,6.359,6.359,6.359,6.359,0.0,6.359,6.2699,6.1187,6.1187,6.0221,5.8687,5.8687,5.8725,5.8873,5.9616,5.995,6.0136,6.099,6.177,6.2402,6.2476,6.2996,6.359,6.359,6.359,6.359,6.359,6.359,6.359,6.359,6.359,6.359,6.359,6.359,6.359,6.359,6.359,6.359,6.359,6.359,6.359,6.359,6.359,6.359,6.359,6.359,6.359,6.359,6.359,6.359,6.359,6.359,6.359,6.359,6.359,6.359,6.359,6.359,6.359,6.359,6.359,6.359,6.359,6.359,6.359,6.359,6.359,6.359,6.359,6.359,6.359,3.7505,0.0,4.3277,4.3277,4.2616,4.188,0.0,3.9558,3.7769,3.7351,3.7113,3.7419,3.89,3.9999,4.176,4.5036,4.7247,4.975,5.3099,5.7062,0.0,6.1287,6.1301,6.1044,6.0715,5.9616,5.876,5.8459,5.8327,5.8249,5.8179,5.8338,5.8437,5.8476,5.9557,6.0486,6.1187,6.2179,6.2996,6.359,6.359,6.359,6.359,6.359,6.359,6.359,6.359,6.2699,6.1187,6.1187,6.0221,5.8687,5.8687,5.9096,5.9653,5.9839,6.0322,6.1001,6.1808,6.2253,6.2513,6.3108,6.3442,6.359,6.359,6.359,6.359,6.359,6.359,6.359,6.359,6.359,6.359,6.359,6.359,6.359,6.359,6.359,6.359,6.359,6.359,6.359,6.359,6.359,6.359,6.359,6.359,6.359,6.359,6.359,6.359,6.359,6.359,6.359,6.359,6.359,6.359,6.359,6.359,6.359,6.359,6.359,6.359,6.359,6.359,6.359,6.359,6.359,6.359,6.359,6.359,6.359,3.4821,3.7936,4.1207,4.1207,4.1169,4.1016,4.0592,3.9421,3.833,3.7985,3.7861,3.8362,4.0078,4.1371,4.3327,4.6798,4.9015,5.1622,5.5389,0.0,6.2059,6.2277,6.1934,6.1587,0.0,5.9761,5.8704,5.8415,5.8282,5.8179,5.8179,5.8338,5.8448,5.8519,5.9033,5.995,6.1187,6.1993,6.281,6.359,6.359,6.359,6.359,6.359,6.359,6.359,6.359,6.2885,6.1744,6.1744,6.099,5.9839,5.9839,6.0099,6.0545,6.0916,6.1368,6.198,6.275,6.3044,6.3162,6.3598,6.3747,6.3747,6.3691,6.368,6.3669,6.3613,6.359,6.359,6.359,6.359,6.359,6.359,6.359,6.359,6.359,6.359,6.359,6.359,6.359,6.359,6.359,6.359,6.359,6.359,6.359,6.359,6.359,6.359,6.359,6.359,6.359,6.359,6.359,6.359,6.359,6.359,6.359,6.359,6.359,6.359,6.359,6.359,6.359,6.359,6.359,6.359,6.3776,6.4148,6.4148,6.4371,3.3416,3.6422,3.9583,3.9583,4.0247,4.0716,3.9972,3.9815,3.9619,3.8918,3.8949,3.9604,4.136,4.3039,4.5258,4.853,5.1353,5.4396,5.803,6.1191,6.3034,6.2724,6.2329,0.0,6.1629,5.9801,5.8572,5.8382,5.8271,5.8227,5.8249,5.836,5.8432,5.8551,5.8746,5.9616,6.1176,6.1882,6.2662,6.359,6.359,6.359,6.359,6.359,6.359,6.359,0.0,0.0,6.2402,6.2402,6.193,6.1187,6.1187,6.1309,6.1506,6.2175,6.2586,6.2918,6.3589,6.3867,6.3894,6.3894,6.3894,6.3883,6.3834,6.3802,6.3758,6.3658,6.3613,6.359,6.359,6.359,6.359,6.359,6.359,6.359,6.359,6.359,6.359,6.359,6.359,6.359,6.359,6.359,6.359,6.359,6.359,6.359,6.359,6.359,6.359,6.359,6.359,6.359,6.359,6.359,6.359,6.359,6.359,6.359,6.359,6.359,6.359,6.359,6.359,6.3665,6.3776,6.3776,6.4185,6.5002,6.5002,6.5373,3.3416,3.5988,3.8715,3.8715,3.9338,3.996,3.9835,3.9791,3.975,3.9634,4.0755,4.2265,4.4018,4.5687,4.7697,5.028,5.3916,5.6806,0.0,0.0,6.1932,6.1657,0.0,6.1047,6.065,5.9353,5.8454,5.826,5.819,5.826,5.836,5.8432,5.8551,5.8656,5.9346,6.0173,6.1187,6.1336,6.2142,6.359,6.359,6.359,6.359,6.359,6.359,6.359,0.0,6.3145,6.2402,6.2402,6.193,6.1187,6.1187,6.1698,6.238,6.2529,6.3041,6.3723,6.3835,6.3883,6.3894,6.3894,6.3894,6.3894,6.3883,6.3856,6.378,6.3758,6.368,6.359,6.359,6.359,6.359,6.359,6.359,6.359,6.359,6.359,6.359,6.359,6.359,6.359,6.359,6.359,6.359,6.359,6.359,6.359,6.359,6.359,6.359,6.359,6.359,6.359,6.359,6.359,6.359,6.359,6.359,6.359,6.359,6.359,6.359,6.359,6.359,6.3925,6.4631,6.4631,6.5076,6.5893,6.5893,6.5968,3.3416,3.5908,3.8515,3.8509,3.9829,4.115,4.1143,4.1524,4.1983,4.2448,4.3138,4.4331,4.6495,4.7872,4.9756,5.3065,5.5832,5.7813,5.8514,6.0259,6.137,0.0,0.0,6.0463,6.0247,5.9107,5.8323,5.8316,5.8249,5.8257,5.8432,5.8497,5.8757,5.9319,5.9728,6.0545,6.1856,6.1845,6.2439,6.359,6.359,6.359,6.359,6.359,6.3635,6.3691,0.0,6.345,6.3133,6.3067,6.2855,6.2586,6.2586,6.2875,6.3329,6.3455,6.3763,6.4114,6.4227,6.4267,6.4257,6.4196,6.4176,6.4145,6.4031,6.3953,6.3856,6.3802,6.3691,6.359,6.359,6.359,6.359,6.359,6.359,6.359,6.359,6.359,6.359,6.359,6.359,6.359,6.359,6.359,6.359,6.359,6.359,6.359,6.359,6.359,6.359,6.359,6.359,6.359,6.359,6.359,6.359,6.359,6.359,6.359,6.359,6.359,6.359,6.359,6.4036,6.4445,6.4816,6.5262,6.5931,6.6748,6.6748,6.6971,3.369,3.6063,3.8549,3.8734,4.0553,4.2334,4.2559,4.3399,4.4435,4.528,4.573,4.6639,4.8785,5.0267,5.2189,5.5357,5.7164,5.831,5.8778,5.9953,6.0716,6.0527,6.0163,5.9888,5.9783,5.8867,5.8327,5.8393,5.8338,5.8419,5.8778,5.881,5.9234,6.0173,6.0396,6.1102,6.2402,6.2621,6.303,6.359,6.359,6.3613,6.3635,6.3635,6.3702,6.3812,6.3714,6.3725,6.3812,6.3714,6.3736,6.3823,6.3856,6.4054,6.4352,6.4557,6.4788,6.4995,6.5114,6.5209,6.5153,6.5066,6.5046,6.5007,6.4817,6.4683,6.4556,6.4426,6.4294,6.4107,6.3713,6.359,6.359,6.359,6.359,6.359,6.359,6.359,6.359,6.359,6.359,6.359,6.359,6.359,6.359,6.359,6.3776,6.3888,6.3888,6.4073,6.4185,6.4185,6.4185,6.411,6.3888,6.3702,6.359,6.359,6.359,6.359,6.359,6.359,6.3702,6.3888,6.4482,6.5002,6.5373,6.6042,6.6785,6.7565,6.7565,6.7899,3.4627,3.6526,3.8693,3.951,4.1013,4.2503,4.3241,4.4694,4.6146,4.6973,4.838,4.9705,5.0677,5.3206,5.5478,5.6301,5.7682,5.8592,5.8371,0.0,5.9484,5.9328,5.9184,5.9027,5.8841,5.8619,5.8465,5.8404,5.8443,5.8841,5.9678,5.9775,6.02,6.1076,6.1808,6.229,6.2402,6.3267,6.3676,6.359,6.359,6.3658,6.3769,6.3769,6.3823,6.3883,6.3873,6.3883,6.3883,6.3873,6.3883,6.3894,6.4011,6.4674,6.559,6.567,6.6209,6.6898,6.6908,6.6917,6.6917,6.6908,6.6908,6.6878,6.6731,6.6647,6.6549,6.6286,6.6131,6.5634,6.4033,6.359,6.359,6.359,6.359,6.359,6.359,6.359,6.359,6.359,6.359,6.359,6.359,6.359,6.359,6.359,6.4222,6.4705,6.4705,6.5411,6.5931,6.5931,6.5931,6.5596,6.4779,6.4036,6.359,6.359,6.359,6.359,6.359,6.359,6.3962,6.4705,6.4779,6.5559,6.7119,6.7193,6.7639,6.8419,6.8419,6.8456,3.5368,3.6954,3.8846,4.0241,4.2225,4.4083,4.4921,4.5997,4.7335,4.9201,5.0037,5.111,5.3398,5.5072,5.6505,5.7634,5.8132,5.8496,5.881,5.8971,5.9071,5.903,5.8832,5.865,5.8593,5.8486,5.8432,5.8454,5.8978,5.9488,5.9849,6.0412,6.1102,6.1919,6.2253,6.2669,6.3267,6.3609,6.3791,6.3802,6.3802,6.3797,6.3878,6.3878,6.3905,6.4011,6.3937,6.3937,6.4011,6.4011,6.4052,6.422,6.488,6.5462,6.5974,6.6569,6.7022,6.7361,6.7454,6.7472,6.7463,6.737,6.7306,6.7269,6.7136,6.694,6.6742,6.6582,6.6385,6.6055,6.5334,6.5151,6.5151,6.5151,6.5151,6.5151,6.5151,6.5151,6.5151,6.5151,6.5151,6.5151,6.5151,6.5151,6.5151,6.5151,6.5411,6.5596,6.5596,6.5893,6.6079,6.6079,6.6079,6.5968,6.5633,6.5336,6.5151,6.5151,6.4185,6.3813,6.4333,6.4333,6.4742,6.5596,6.6116,6.6673,6.7305,6.7788,6.8196,6.8493,6.8493,6.8493,3.6263,3.7849,3.9664,4.1127,4.3368,4.5517,4.6618,4.7624,4.8885,5.0886,5.1828,5.2992,5.5352,5.6542,5.7465,0.0,5.8481,5.8671,5.9035,5.896,5.8838,5.8838,5.8667,5.8572,5.8572,5.8508,5.8608,5.8905,5.9509,6.0098,6.0656,6.125,6.1978,6.284,6.284,6.3155,6.3834,6.391,6.3985,6.4011,6.4083,6.4083,6.4011,6.4042,6.4125,6.4237,6.4155,6.4166,6.4274,6.4274,6.4514,6.4925,6.5634,6.6295,6.6991,6.7652,6.8066,6.8365,6.8455,6.8481,6.8464,6.8373,6.8303,6.8268,6.8139,6.7939,6.7738,6.7551,6.7287,6.7064,6.6965,6.6523,6.6079,6.6079,6.6079,6.6079,6.6079,6.6079,6.6079,6.6079,6.6079,6.6079,6.6079,6.6079,6.6079,6.6079,6.6302,6.6488,6.6488,6.6711,6.6859,6.6859,6.6636,6.6488,6.6488,6.6228,6.6079,6.6079,6.5002,6.4631,6.5188,6.5225,6.5596,6.6451,6.7008,6.7416,6.7676,6.8233,6.8493,6.8493,6.8493,6.8493,3.7308,3.917,4.1301,4.2128,4.4253,4.6512,4.817,4.9718,5.1031,5.1857,5.3892,5.5707,5.6303,5.7664,5.8581,5.8276,5.8774,5.9147,5.892,5.8797,5.8687,5.8687,5.8698,5.8698,5.8698,5.8698,5.9032,5.9839,5.9913,6.0619,6.229,6.2402,6.284,6.378,6.3791,6.3834,6.3905,6.4183,6.4294,6.4304,6.451,6.4491,6.4304,6.4356,6.4453,6.4596,6.4596,6.4596,6.4596,6.4606,6.5218,6.6119,6.6119,6.7259,6.8891,6.8891,6.9462,7.0194,7.0194,7.0194,7.0194,7.0194,7.0194,7.0176,7.0039,6.9976,6.9834,6.9478,6.9225,6.8945,6.8756,6.7412,6.6128,6.6116,6.6116,6.6116,6.6116,6.6116,6.6116,6.6116,6.6116,6.6116,6.6116,6.6116,6.6116,6.6116,6.6785,6.7305,6.7305,6.8011,6.8493,6.8493,6.7788,6.7305,6.7305,6.6562,6.6116,6.6116,6.6128,6.6128,6.6128,6.6128,6.6488,6.7305,6.7305,6.7713,6.8493,6.8493,6.8493,6.8493,6.8493,6.8493,3.8752,4.0061,4.1709,4.4306,4.5932,4.7446,4.9629,5.0456,5.1322,5.3107,5.4874,5.6273,5.6975,5.7781,5.8452,5.8859,5.8941,5.894,5.8797,5.8818,5.8838,5.8838,5.8882,5.8895,5.8895,5.8895,5.9238,5.9992,6.055,6.1337,6.2339,6.3011,6.3523,6.378,6.3942,6.4079,6.4193,6.4324,6.4434,6.4587,6.4745,6.4699,6.451,6.4539,6.4568,6.4596,6.4596,6.4596,6.4643,6.5368,6.6215,6.7166,6.7806,6.8472,6.9108,6.9739,7.0187,7.0473,7.0546,7.0569,7.0569,7.0569,7.0483,7.0372,7.0319,7.0191,6.9965,6.9699,6.9457,6.9214,6.8843,6.836,6.7907,6.7812,6.7788,6.7788,6.7788,6.7788,6.7788,6.7788,6.7788,6.7788,6.7788,6.7788,6.7788,6.7788,6.7973,6.8122,6.8122,6.8345,6.8493,6.8493,6.8308,6.8122,6.8122,6.7936,6.7788,6.7788,6.7871,6.7623,6.6982,6.6933,6.7305,6.8122,6.8122,6.8271,6.8493,6.8493,6.8493,6.8493,6.8493,6.8493,3.9879,4.1186,4.2752,4.5445,4.6904,4.8431,5.1105,5.1923,5.2576,5.4155,5.5684,5.6854,5.7213,5.8017,5.8745,5.9083,5.9012,5.8882,5.877,5.8852,5.8922,5.8922,5.8992,5.8994,5.8994,5.9293,5.9824,6.0601,6.1411,6.2199,6.2954,6.3541,6.3888,6.3995,6.4121,6.4284,6.4444,6.4539,6.4661,6.4824,6.4958,6.4941,6.4835,6.4835,6.4835,6.4873,6.5176,6.5327,6.5374,6.6333,6.7303,6.8189,6.8773,6.9256,6.9745,7.029,7.0561,7.0639,7.07,7.0715,7.0715,7.0715,7.0639,7.0586,7.0531,7.0402,7.0161,6.9919,6.9671,6.9436,6.9056,6.8903,6.8791,6.8554,6.8493,6.8493,6.8493,6.8493,6.8493,6.8493,6.8493,6.8493,6.8493,6.8493,6.8493,6.8493,6.8493,6.8493,6.8493,6.8493,6.8493,6.8493,6.8493,6.8493,6.8493,6.8542,6.8566,6.8566,6.8744,6.859,6.7987,6.794,6.8166,6.865,6.865,6.865,6.865,6.865,6.865,6.865,6.865,6.88,4.0652,4.2311,4.4035,4.5857,4.7619,4.9633,5.2446,5.3651,5.4397,5.5071,5.6375,5.7327,5.7247,5.8347,5.9215,5.9033,5.9004,5.8992,5.892,5.8982,5.9024,5.9024,5.9043,5.9081,5.9155,5.9856,6.0706,6.1545,6.2282,6.3056,6.3867,6.3915,6.4042,6.4304,6.4334,6.4453,6.4734,6.488,6.4976,6.5031,6.5161,6.5248,6.5256,6.5223,6.5245,6.5359,6.6083,6.6501,6.6692,6.75,6.8388,6.9226,6.9234,6.9799,7.0615,7.0593,7.0655,7.073,7.0737,7.0737,7.0737,7.0737,7.0737,7.0737,7.0692,7.0578,7.0372,7.0187,6.9937,6.9689,6.9315,6.9144,6.8956,6.8662,6.8542,6.8506,6.8493,6.8493,6.8493,6.8493,6.8493,6.8493,6.8493,6.8493,6.8493,6.8493,6.8493,6.8493,6.8493,6.8493,6.8493,6.8493,6.8493,6.8493,6.8506,6.8626,6.8709,6.8721,6.8937,6.9045,6.9045,6.8986,6.8944,6.8944,6.8944,6.8944,6.8944,6.8944,6.8944,6.8944,6.8981,6.9372,4.065,4.2332,4.4306,4.73,5.0113,5.2276,5.2894,5.397,5.5116,5.5957,5.6664,5.7377,5.7985,5.8716,5.9206,5.9158,5.909,5.8984,5.8992,5.912,5.9225,5.9225,5.9364,5.9682,6.0276,6.0492,6.1186,6.249,6.2742,6.315,6.3867,6.4121,6.4274,6.4366,6.4643,6.4835,6.4929,6.5128,6.525,6.5298,6.5383,6.545,6.5494,6.529,6.555,6.6159,6.6311,6.7148,6.8405,6.8672,6.9277,7.0074,7.0206,7.0393,7.0593,7.073,7.0789,7.0779,7.0829,7.085,7.085,7.085,7.085,7.0843,7.0787,7.0743,7.0669,7.0427,7.0268,7.0085,6.9709,6.9481,6.9336,6.9089,6.8835,6.8614,6.8518,6.8493,6.8493,6.8493,6.8493,6.8493,6.8493,6.8493,6.8493,6.8493,6.8493,6.8493,6.8493,6.8493,6.8493,6.8493,6.8493,6.853,6.8638,6.873,6.8809,6.8911,6.923,6.9399,6.9399,6.9246,6.9138,6.9138,6.9138,6.9138,6.9138,6.9138,6.9138,6.9138,6.9765,7.0155,4.0414,4.2008,4.3836,4.754,5.0799,5.3079,5.3015,5.4397,5.5957,5.6787,5.7088,5.7431,5.8249,5.8847,5.9253,5.9253,5.9178,5.9159,5.9244,5.9374,5.9427,5.9427,5.9893,6.0381,6.0751,6.145,6.2212,6.298,6.3421,6.3756,6.4108,6.4356,6.4549,6.4689,6.4886,6.5073,6.5244,6.5329,6.5444,6.5487,6.553,6.5796,6.6207,6.6055,6.6192,6.6642,6.7403,6.8226,6.9065,6.9526,6.9996,7.0457,7.0546,7.0632,7.0715,7.0758,7.0815,7.085,7.0885,7.0898,7.0898,7.0898,7.0898,7.0891,7.0857,7.0815,7.0758,7.0593,7.0475,7.0336,6.9974,6.9844,6.9739,6.9481,6.9149,6.8823,6.8754,6.8721,6.8674,6.8674,6.8674,6.8674,6.8674,6.8674,6.8674,6.8674,6.8674,6.8674,6.8674,6.8674,6.8674,6.8674,6.8674,6.8733,6.8823,6.8968,6.9155,6.9277,6.9594,6.9787,6.9834,6.9787,6.9662,6.9501,6.9491,6.9521,6.9572,6.9572,6.9761,7.0176,7.0581,7.1172,3.9789,4.1839,4.3906,4.7421,5.072,5.3074,5.3004,5.4772,5.6635,5.742,5.7536,5.7724,5.8509,5.904,5.9336,5.9336,5.9336,5.9411,5.9483,5.9589,5.9659,5.9659,6.0449,6.1033,6.1167,6.2436,6.3314,6.3455,6.4077,6.4453,6.4453,6.467,6.4868,6.5031,6.5117,6.5284,6.5537,6.5566,6.5608,6.5656,6.581,6.6315,6.716,6.7221,6.7246,6.7308,6.8656,6.932,6.9512,7.0192,7.0499,7.0601,7.0616,7.0708,7.0794,7.0808,7.085,7.0898,7.0898,7.0898,7.0898,7.0898,7.0898,7.0898,7.0898,7.0857,7.0794,7.076,7.0639,7.0493,7.0247,7.0179,7.0118,6.9901,6.9521,6.9171,6.9111,6.9039,6.8998,6.8998,6.8998,6.8998,6.8998,6.8998,6.8998,6.8998,6.8998,6.8998,6.8998,6.8998,6.8998,6.8998,6.8998,6.9054,6.9111,6.9336,6.9542,6.9692,6.9981,7.0251,7.048,7.0602,7.0595,7.0401,7.0203,7.0193,7.0275,7.0427,7.0845,7.1492,7.1644,7.2358,3.8345,4.263,4.6893,4.81,5.0742,5.3063,5.2947,5.4734,5.6621,5.7346,5.7952,5.8618,5.9463,5.9566,5.9572,5.9572,5.9572,5.9572,5.9589,5.9744,5.9853,5.9853,6.0741,6.1595,6.2213,6.306,6.3806,6.4453,6.4595,6.467,6.467,6.49,6.5077,6.5166,6.5428,6.5587,6.5683,6.5769,6.5838,6.5883,6.6647,6.7455,6.8309,6.8862,6.9102,6.9044,6.9298,6.9796,7.0493,7.0608,7.0685,7.0708,7.0736,7.0772,7.0801,7.0864,7.0891,7.0898,7.0898,7.0898,7.0898,7.0898,7.0898,7.0898,7.0898,7.0891,7.0871,7.0794,7.0765,7.0721,7.0501,7.0445,7.0421,7.0315,7.0149,6.9945,6.9504,6.943,6.9419,6.9419,6.9419,6.9419,6.9419,6.9419,6.9419,6.9419,6.9419,6.9419,6.9419,6.9419,6.9419,6.9419,6.9419,6.946,6.961,6.973,6.989,6.9999,7.0306,7.0797,7.1548,7.1704,7.2072,7.2722,7.1887,7.1468,7.1485,7.2173,7.2563,7.2677,7.3433,7.392,3.7482,4.1695,4.552,4.7181,5.003,5.2635,5.3383,5.5401,5.7291,5.8053,5.878,5.9403,5.9753,5.9748,5.9723,5.9723,5.9736,5.9786,5.9836,5.9912,6.0181,6.0675,6.1583,6.2475,6.3274,6.3992,6.4588,6.4947,6.4943,6.4934,6.4977,6.5229,6.5397,6.5477,6.5658,6.582,6.5883,6.5943,6.6204,6.6672,6.7559,6.8446,6.9295,6.9579,6.9622,6.9462,6.9925,7.037,7.0715,7.0715,7.0699,7.0743,7.0779,7.0815,7.0857,7.0885,7.0898,7.0898,7.0898,7.0898,7.0898,7.0898,7.0898,7.0898,7.0898,7.0898,7.0891,7.0864,7.085,7.0829,7.0714,7.0684,7.0662,7.0578,7.0531,7.0421,7.023,7.001,6.9853,6.9853,6.9853,6.9853,6.9853,6.9853,6.9853,6.9853,6.9853,6.9853,6.9853,6.9853,6.9853,6.9853,6.9853,6.9891,6.9954,7.0545,7.0951,7.1093,7.1758,7.2347,7.2775,7.2892,7.3126,7.3472,7.2847,7.257,7.2663,7.3008,7.3461,7.3959,7.4343,7.4774,3.6834,4.036,4.3399,4.6071,4.9157,5.1954,5.346,5.5776,5.7771,5.8334,5.9213,5.9869,5.9832,5.9824,5.9824,5.9849,5.9877,5.995,6.0037,6.0091,6.0502,6.1332,6.2307,6.3213,6.4038,6.481,6.5253,6.5329,6.5284,6.5276,6.5329,6.5556,6.5736,6.5788,6.5905,6.6036,6.608,6.6284,6.6952,6.8044,6.8684,6.944,7.0278,7.0222,7.0118,6.9941,7.0525,7.075,7.0736,7.0736,7.0765,7.0815,7.0815,7.085,7.0898,7.0898,7.0898,7.0898,7.0898,7.0898,7.0898,7.0898,7.0898,7.0898,7.0898,7.0898,7.0898,7.0898,7.0898,7.0885,7.0829,7.0815,7.0808,7.075,7.0736,7.0729,7.0723,7.0475,7.0247,7.0247,7.0247,7.0247,7.0247,7.0247,7.0247,7.0247,7.0247,7.0324,7.0552,7.0591,7.0667,7.0866,7.0904,7.093,7.0951,7.1677,7.2179,7.2256,7.3031,7.3604,7.3928,7.398,7.4128,7.4314,7.4105,7.3887,7.3769,7.4,7.4452,7.5154,7.5154,7.5435,3.6296,3.9128,4.1815,4.5121,4.8349,5.1067,5.2617,5.5349,5.7566,5.7498,5.8756,5.9893,5.9885,5.9885,5.991,5.999,6.0005,6.0037,6.0076,6.0263,6.0669,6.1502,6.247,6.3467,6.4391,6.513,6.5608,6.5683,6.5683,6.5683,6.5651,6.5883,6.599,6.599,6.6165,6.6293,6.6293,6.7115,6.8379,7.0045,7.0036,7.0449,7.1247,7.1153,7.1083,7.1004,7.0973,7.0952,7.0885,7.0885,7.0891,7.0891,7.0891,7.0898,7.0898,7.0898,7.0898,7.0898,7.0898,7.0898,7.0898,7.0898,7.0898,7.0898,7.0898,7.0898,7.0898,7.0898,7.0898,7.0898,7.0891,7.0891,7.0891,7.0885,7.0885,7.085,7.0745,7.0662,7.0654,7.0654,7.0654,7.0654,7.0654,7.0654,7.0654,7.0654,7.0654,7.0953,7.1797,7.1912,7.218,7.2947,7.3031,7.3031,7.3031,7.3221,7.3308,7.3315,7.3536,7.4038,7.4816,7.4855,7.524,7.6038,7.6063,7.5639,7.481,7.5645,7.6069,7.6115,7.6115,7.6147,3.4828,3.7398,4.01,4.3474,4.6689,4.9733,5.2374,5.4982,5.7144,5.8107,5.9129,5.9893,5.9893,5.9934,5.9982,6.0013,6.0099,6.0235,6.0277,6.0384,6.1015,6.245,6.2964,6.3834,6.5323,6.569,6.5913,6.6024,6.599,6.599,6.603,6.6128,6.618,6.618,6.6297,6.6644,6.726,6.8083,6.9088,7.0265,7.0751,7.1145,7.1435,7.1345,7.1286,7.1224,7.1112,7.103,7.0965,7.0919,7.0898,7.0898,7.0898,7.0898,7.0898,7.0898,7.0898,7.0898,7.0898,7.0898,7.0898,7.0898,7.0898,7.0898,7.0898,7.0898,7.0898,7.0898,7.0898,7.0898,7.0898,7.0898,7.0898,7.0898,7.0898,7.1038,7.1566,7.1206,7.0976,7.1552,7.1667,7.1821,7.2398,7.2513,7.2513,7.2513,7.2513,7.2621,7.2928,7.2967,7.3082,7.3351,7.3389,7.3389,7.3389,7.3952,7.4284,7.4284,7.4957,7.5497,7.5806,7.585,7.6022,7.6332,7.6332,7.6159,7.5806,7.6109,7.6288,7.6332,7.6332,7.6332,3.3629,3.5866,3.8356,4.1755,4.4807,4.7847,5.1077,5.3816,5.6171,5.7724,5.8828,5.96,5.9898,5.9983,6.0014,6.0014,6.0167,6.0323,6.0436,6.0473,6.1223,6.3015,6.33,6.4105,6.5931,6.6118,6.6175,6.6283,6.6259,6.6254,6.6288,6.6338,6.6373,6.6385,6.6714,6.734,6.826,6.9076,6.9916,7.0782,7.133,7.1577,7.1564,7.1518,7.1416,7.1345,7.1201,7.1087,7.0998,7.0925,7.0898,7.0898,7.0898,7.0898,7.0898,7.0898,7.0898,7.0898,7.0898,7.0898,7.0898,7.0898,7.0898,7.0898,7.0898,7.0898,7.0898,7.0898,7.1091,7.1321,7.1321,7.1552,7.1783,7.1783,7.1783,7.1937,7.2514,7.1937,7.1591,7.2476,7.2629,7.2822,7.3392,7.3507,7.3507,7.3507,7.3507,7.3584,7.3853,7.3892,7.4007,7.4315,7.4353,7.4368,7.4357,7.4928,7.529,7.5317,7.5967,7.6338,7.6338,7.638,7.6403,7.6403,7.6403,7.638,7.6338,7.6338,7.6362,7.6403,7.6403,7.6392,0.0,0.0,0.0,4.0151,4.2818,4.5435,4.8647,5.1834,5.4585,5.6126,5.7694,5.9019,5.9893,6.0061,6.0099,6.0099,6.0204,6.0344,6.0466,6.0546,6.1256,6.3051,6.3411,6.4247,6.6104,6.6281,6.6346,6.6508,6.6512,6.6516,6.6516,6.6514,6.6552,6.6588,6.7444,6.8339,6.9192,7.0055,7.0911,7.1721,7.1721,7.1701,7.1703,7.1622,7.1551,7.1485,7.1286,7.1136,7.0998,7.0925,7.0898,7.0898,7.0898,7.0898,7.0898,7.0898,7.0898,7.0898,7.0898,7.0898,7.0898,7.0898,7.0898,7.0898,7.0898,7.0898,7.0898,7.0898,7.1514,7.2213,7.2213,7.286,7.3507,7.3507,7.3507,7.3507,7.3546,7.286,7.2514,7.3353,7.3546,7.3546,7.3584,7.3584,7.3584,7.3584,7.3584,7.3853,7.4623,7.4738,7.5046,7.5899,7.6015,7.6012,7.609,7.6159,7.6231,7.6295,7.6368,7.6403,7.6403,7.6403,7.6403,7.6403,7.6403,7.6403,7.6403,7.6403,7.6403,7.6403,7.6403,7.6368,3.4633,0.0,0.0,0.0,0.0,0.0,0.0,5.0665,5.3146,5.5275,5.6462,5.7577,5.8957,5.9268,5.9495,6.0143,6.0323,6.0429,6.0533,6.0617,6.113,6.2419,6.3201,6.4139,6.5393,6.6135,6.6545,0.0,6.6612,6.6624,6.6624,6.663,6.6649,6.6678,6.7501,6.8408,6.9241,7.014,7.0988,7.1822,7.1822,7.1836,7.1784,7.1704,7.1626,7.1507,7.1386,7.1236,7.1062,7.0952,7.0898,7.0898,7.0898,7.0898,7.0898,7.0898,7.0898,7.0898,7.0898,7.0898,7.0898,7.0898,7.0898,7.0898,7.0898,7.0898,7.0898,7.0898,7.1514,7.2367,7.2976,7.3315,7.3507,7.3507,7.3507,7.3661,7.4238,7.4168,7.4091,7.4315,7.4353,7.4584,7.5207,7.5322,7.5322,7.5322,7.5322,7.5399,7.563,7.563,7.5745,7.5976,7.6027,7.6069,7.6097,7.6205,7.6282,7.6301,7.6368,7.6403,7.6403,7.6403,7.6403,7.6403,7.6403,7.6403,7.6403,7.6403,7.6403,7.6403,7.6403,7.6392,3.6318,3.7675,3.9223,4.0734,0.0,0.0,4.6932,4.925,5.15,0.0,5.5107,5.6479,5.7803,5.8324,5.8745,5.9276,5.9705,6.0103,6.0533,6.0648,6.1095,6.2174,6.2819,6.3726,6.5104,6.5767,6.6252,6.6644,6.6736,6.6743,6.6743,6.6743,6.675,6.6724,6.7896,6.8802,6.9282,7.0528,7.1417,7.1911,7.1911,7.1897,7.1827,7.1782,7.1672,7.1571,7.1436,7.1313,7.1136,7.0998,7.0925,7.0898,7.0898,7.0898,7.0898,7.0898,7.0898,7.0898,7.0898,7.0898,7.0898,7.0898,7.0898,7.0898,7.0898,7.0898,7.0975,7.1321,7.2322,7.3437,7.4322,7.4546,7.4546,7.4546,7.4546,7.4661,7.513,7.5245,7.5245,7.5245,7.5245,7.5399,7.5899,7.6015,7.6015,7.6015,7.6015,7.6015,7.6015,7.6015,7.6015,7.6015,7.6048,7.6104,7.6138,7.6238,7.6313,7.6344,7.638,7.6403,7.6403,7.6403,7.6403,7.6403,7.6403,7.6403,7.6403,7.6403,7.6403,7.6403,7.6403,7.6403,3.8546,3.975,0.0,0.0,0.0,0.0,4.5667,4.7732,4.9818,0.0,5.3395,5.5186,5.6307,5.6986,5.7468,5.781,5.85,5.937,6.0323,6.0628,6.1074,6.203,6.2387,6.3162,6.4863,6.5244,6.5766,6.6588,6.675,6.6791,6.6791,6.6791,6.6791,6.6791,6.8429,6.9327,6.9327,7.1041,7.1899,7.1899,7.1899,7.1897,7.1895,7.1853,7.1758,7.1676,7.1521,7.1353,7.1219,7.1081,7.0979,7.0898,7.0898,7.0898,7.0898,7.0898,7.0898,7.0898,7.0898,7.0898,7.0898,7.0898,7.0898,7.0898,7.0898,7.0898,7.1091,7.2052,7.3476,7.4892,7.5784,7.6015,7.6015,7.6015,7.6015,7.6015,7.6015,7.6015,7.6015,7.6015,7.6015,7.6015,7.6015,7.6015,7.6015,7.6015,7.6015,7.6015,7.6015,7.6015,7.6015,7.6015,7.6048,7.6125,7.6192,7.6263,7.6332,7.6397,7.6403,7.6403,7.6403,7.6403,7.6403,7.6403,7.6403,7.6403,7.6403,7.6403,7.6403,7.6403,7.6519,7.6558,4.3393,0.0,0.0,0.0,0.0,0.0,4.5889,4.696,4.8203,0.0,5.0484,5.1438,5.36,5.4087,5.459,5.6036,5.6928,5.7956,5.9412,6.0346,6.0982,6.1317,6.2081,6.2772,6.3228,6.4629,6.5572,6.5749,6.639,6.6787,6.6787,6.6787,6.6787,6.6787,6.8466,6.9363,6.9363,7.112,7.1979,7.1979,7.1979,7.1933,7.1918,7.1872,7.1823,7.1683,7.1662,7.1521,7.1334,7.1219,7.1068,7.0898,7.0898,7.0898,7.0898,7.0898,7.0898,7.0898,7.0898,7.0898,7.0898,7.0898,7.0898,7.0898,7.0898,7.0898,7.1245,7.2815,7.393,7.4892,7.5784,7.6015,7.6015,7.6015,7.6015,7.6015,7.6015,7.6015,7.6015,7.6015,7.6015,7.6015,7.6015,7.6015,7.6015,7.6015,7.6015,7.6015,7.6015,7.6015,7.6015,7.6015,7.6048,7.6125,7.6192,7.6263,7.6332,7.6397,7.6403,7.6403,7.6403,7.6403,7.6403,7.6403,7.6403,7.6403,7.6403,7.6403,7.6403,7.6403,7.7138,7.7448,4.6405,0.0,0.0,4.6302,0.0,0.0,0.0,4.7063,4.7598,4.8385,4.9171,5.0079,5.133,5.1838,5.2384,5.3253,5.4456,5.5523,5.6343,5.8294,5.9701,5.9821,6.0756,6.159,6.2167,6.3401,6.438,6.4878,6.5712,6.6188,6.6188,6.6618,6.6852,6.6852,6.8492,6.939,6.939,7.1147,7.2006,7.2006,7.2006,7.1961,7.1948,7.1941,7.1907,7.1796,7.1734,7.161,7.1446,7.1313,7.1136,7.0946,7.0912,7.0898,7.0898,7.0898,7.0898,7.0898,7.0898,7.0898,7.0898,7.0898,7.0898,7.0975,7.1398,7.2129,7.2976,7.3853,7.47,7.5438,7.5899,7.6015,7.6015,7.6015,7.6015,7.6015,7.6015,7.6015,7.6015,7.6015,7.6015,7.6015,7.6015,7.6015,7.6015,7.6015,7.6015,7.6015,7.6015,7.6015,7.6015,7.6015,7.6048,7.6125,7.6192,7.6263,7.6332,7.6397,7.6403,7.6403,7.6403,7.6403,7.6597,7.7061,7.7481,7.7713,7.7713,7.7713,7.7481,7.7061,7.7945,7.8332,0.0,0.0,0.0,0.0,0.0,4.7731,0.0,0.0,0.0,4.7176,4.8187,0.0,0.0,0.0,0.0,0.0,0.0,0.0,0.0,5.5251,0.0,5.8066,5.9004,5.994,6.0755,6.1781,6.2875,6.3959,6.4712,6.5262,6.5575,6.6278,6.6747,6.6903,6.8544,6.9403,6.9403,7.1121,7.2019,7.2019,7.2019,7.2016,7.2008,7.1997,7.1976,7.1901,7.1791,7.1679,7.1521,7.1363,7.1219,7.103,7.0939,7.0898,7.0898,7.0898,7.0898,7.0898,7.0898,7.0898,7.0898,7.0898,7.1014,7.1321,7.2168,7.3514,7.47,7.47,7.5322,7.6015,7.6015,7.6015,7.6015,7.6015,7.6015,7.6015,7.6015,7.6015,7.6015,7.6015,7.6015,7.6015,7.6015,7.6015,7.6015,7.6015,7.6015,7.6015,7.6015,7.6015,7.6015,7.6015,7.6034,7.6104,7.6185,7.625,7.6313,7.6397,7.6403,7.6481,7.6635,7.6829,7.7216,7.7945,7.8641,7.8989,7.8989,7.9144,7.8796,7.7983,7.8834,7.9221,0.0,0.0,0.0,0.0,4.9865,0.0,0.0,0.0,4.6392,4.6339,0.0,0.0,0.0,0.0,0.0,0.0,0.0,0.0,5.0311,5.1289,5.3145,5.6107,5.7324,5.7964,5.8126,5.9674,6.138,6.3023,6.3227,6.3973,6.5535,6.5692,6.6083,6.6864,6.8544,6.9403,6.9403,7.1121,7.2019,7.2019,7.2019,7.2019,7.2018,7.2009,7.1997,7.198,7.192,7.1797,7.1648,7.1477,7.1301,7.1166,7.0979,7.0898,7.0898,7.0898,7.0898,7.0898,7.0898,7.0898,7.0898,7.0898,7.1398,7.2213,7.3084,7.3969,7.47,7.47,7.5322,7.6015,7.6015,7.6015,7.6015,7.6015,7.6015,7.6015,7.6015,7.6015,7.6015,7.6015,7.6015,7.6015,7.6015,7.6015,7.6015,7.6015,7.6015,7.6015,7.6015,7.6015,7.6015,7.6015,7.6022,7.6048,7.6185,7.6198,7.6263,7.6392,7.6403,7.6751,7.7525,7.8293,7.8757,7.8834,7.895,7.8989,7.8989,7.9724,7.9647,7.8873,7.9685,8.0066,0.0,0.0,0.0,0.0,0.0,0.0,4.845,0.0,4.6293,0.0,0.0,0.0,0.0,0.0,0.0,0.0,4.7224,0.0,0.0,0.0,4.9503,0.0,0.0,0.0,5.6912,5.7741,5.8698,5.9947,6.0932,6.2029,6.3279,6.4764,6.5779,6.6131,6.781,6.8943,6.9451,7.0662,7.1482,7.199,7.199,7.1989,7.1986,7.1984,7.2015,7.1997,7.1971,7.1872,7.1728,7.1536,7.1397,7.1241,7.1043,7.0932,7.0898,7.0898,7.0898,7.0898,7.0898,7.1245,7.1745,7.2245,7.2976,7.3707,7.4084,7.4776,7.5438,7.5438,7.5707,7.6015,7.6015,7.6015,7.6015,7.6015,7.6015,7.6015,7.6015,7.6015,7.6015,7.6015,7.6015,7.6015,7.6015,7.6015,7.6015,7.6015,7.6015,7.6015,7.6015,7.6015,7.6015,7.6015,7.6015,7.6034,7.6185,7.6192,7.6488,7.7126,7.7635,7.8061,7.8448,7.926,7.9685,7.9685,8.0188,8.0453,8.0453,8.0801,8.0762,8.0459,8.0801,8.0956,5.8252,0.0,0.0,0.0,0.0,0.0,0.0,0.0,0.0,0.0,0.0,0.0,0.0,0.0,0.0,0.0,0.0,4.5576,0.0,4.5085,0.0,0.0,0.0,0.0,0.0,5.537,5.6007,5.7101,5.8553,6.0039,6.1601,6.3711,6.5117,6.5586,6.7305,6.8594,6.9453,7.0273,7.1133,7.1992,7.1992,7.1992,7.1991,7.199,7.1985,7.2009,7.1995,7.1913,7.1822,7.1616,7.1607,7.1672,7.1484,7.1506,7.1618,7.1367,7.1398,7.1629,7.1629,7.2014,7.2706,7.3546,7.4199,7.4738,7.4976,7.5515,7.6015,7.6015,7.6015,7.6015,7.6015,7.6015,7.6015,7.6015,7.6015,7.6015,7.6015,7.6015,7.6015,7.6015,7.6015,7.6015,7.6015,7.6015,7.6015,7.6015,7.6015,7.6015,7.6015,7.6015,7.6015,7.6015,7.6015,7.6034,7.6185,7.643,7.699,7.7977,7.8873,7.9337,7.9337,8.0111,8.0569,8.0569,8.1188,8.1497,8.1497,8.1497,8.1497,8.1497,8.1497,8.1497,0.0,0.0,0.0,5.5663,0.0,0.0,0.0,0.0,4.8821,0.0,0.0,0.0,0.0,0.0,0.0,4.5271,4.5034,0.0,0.0,0.0,0.0,0.0,0.0,0.0,0.0,5.2329,5.3547,0.0,5.621,5.8164,6.1523,6.2578,6.3867,6.5547,6.7305,6.8594,6.9414,7.0273,7.1133,7.1992,7.1992,7.1992,7.1992,7.1991,7.1987,7.2018,7.1999,7.1959,7.1889,7.1758,7.2084,7.2638,7.2501,7.2887,7.3387,7.2503,7.2706,7.343,7.343,7.343,7.3584,7.4392,7.4661,7.4861,7.5707,7.5976,7.6015,7.6015,7.6015,7.6015,7.6015,7.6015,7.6015,7.6015,7.6015,7.6015,7.6015,7.6015,7.6015,7.6015,7.6015,7.6015,7.6015,7.6015,7.6015,7.6015,7.6015,7.6015,7.6015,7.6015,7.6015,7.6015,7.6015,7.6034,7.6185,7.6977,7.7885,7.8906,7.9724,8.0143,8.0143,8.0994,8.1459,8.1459,8.1497,8.1497,8.1497,8.1497,8.1497,8.1497,8.1497,8.1497,0.0,0.0,5.9788,5.7515,0.0,0.0,0.0,0.0,0.0,0.0,0.0,0.0,0.0,0.0,4.7225,4.6053,4.4878,4.3821,0.0,0.0,0.0,0.0,0.0,0.0,0.0,0.0,0.0,5.2575,5.4062,5.6133,5.9023,6.1601,6.3515,6.4687,6.6445,6.8008,6.9375,6.9687,7.0586,7.1992,7.1992,7.1992,7.1992,7.1992,7.1991,7.1987,7.2016,7.1996,7.1996,7.2454,7.2677,7.2815,7.3203,7.3792,7.4273,7.3388,7.3238,7.3584,7.4123,7.4276,7.443,7.5284,7.5553,7.563,7.5899,7.6015,7.6015,7.6015,7.6015,7.6015,7.6015,7.6015,7.6015,7.6015,7.6015,7.6015,7.6015,7.6015,7.6015,7.6015,7.6015,7.6015,7.6015,7.6015,7.6015,7.6015,7.6015,7.6015,7.6015,7.6015,7.6015,7.6015,7.6015,7.6272,7.7002,7.8413,7.9443,7.9757,8.0608,8.1072,8.1072,8.1343,8.1497,8.1497,8.1497,8.1497,8.1497,8.1497,8.1497,8.1497,8.1497,8.1497,6.3394,6.2596,0.0,5.9212,5.7604,0.0,5.3347,0.0,0.0,0.0,0.0,0.0,0.0,0.0,0.0,4.6601,4.5116,4.3669,0.0,4.1989,0.0,0.0,0.0,0.0,0.0,0.0,4.867,5.0389,5.2382,5.4805,0.0,6.0547,6.2773,6.4258,6.5703,6.7383,6.9414,6.9453,7.0312,7.1992,7.1992,7.1992,7.1992,7.1992,7.1992,7.1989,7.1984,7.2166,7.2451,7.2925,7.336,7.3802,7.4188,7.4726,7.5226,7.4249,7.4123,7.4476,7.4976,7.5168,7.5238,7.5822,7.6015,7.6015,7.6015,7.6015,7.6015,7.6015,7.6015,7.6015,7.6015,7.6015,7.6015,7.6015,7.6015,7.6015,7.6015,7.6015,7.6015,7.6015,7.6015,7.6015,7.6015,7.6015,7.6015,7.6015,7.6015,7.6015,7.6015,7.6015,7.613,7.6438,7.6476,7.7004,7.8275,7.9495,8.0337,8.0646,8.1188,8.1497,8.1497,8.1497,8.1497,8.1497,8.1497,8.1497,8.1497,8.1497,8.1497,8.1497,8.1497,8.1497]}]]